[[{"header":{"parameterUnit":"m.s-1","parameterCategory":1,"la1":30.6,"la2":28.766,"lo1":-90.7593,"lo2":-88.6598,"dy":0.0162,"dx":0.0183,"nx":116,"ny":114,"refTime":"2023-05-12T12:00:00:Z","depth":0,"parameterNumber":2,"parameterNumberName":"U-component_of_WINDS"},"data":[0.0,0.0,0.0,0.0,0.0,0.0,0.0,0.0,0.0,0.0,0.0,0.0,0.0,0.0,0.0,0.0,0.0,0.0,0.0,0.0,0.0,0.0,0.0,0.0,0.0,0.0,0.0,0.0,0.0,0.0,0.0,0.0,0.0,0.0,0.0,0.0,0.0,0.0,0.0,0.0,0.0,0.0,0.0,0.0,0.0,0.0,0.0,0.0,0.0,0.0,0.0,0.0,0.0,0.0,0.0,0.0,0.0,0.0,0.0,0.0,0.0,0.0,0.0,0.0,0.0,0.0,0.0,0.0,0.0,0.0,0.0,0.0,0.0,0.0,0.0,0.0,0.0,0.0,0.0,0.0,0.0,0.0,0.0,0.0,0.0,0.0,0.0,0.0,0.0,0.0,0.0,0.0,0.0,0.0,0.0,0.0,0.0,0.0,0.0,0.0,0.0,0.0,0.0,0.0,0.0,0.0,0.0,0.0,0.0,0.0,0.0,0.0,0.0,0.0,0.0,0.0,0.0,0.0,0.0,0.0,0.0,0.0,0.0,0.0,0.0,0.0,0.0,0.0,0.0,0.0,0.0,0.0,0.0,0.0,0.0,0.0,0.0,0.0,0.0,0.0,0.0,0.0,0.0,0.0,0.0,0.0,0.0,0.0,0.0,0.0,0.0,0.0,0.0,0.0,0.0,0.0,0.0,0.0,0.0,0.0,0.0,0.0,0.0,0.0,0.0,0.0,0.0,0.0,0.0,0.0,0.0,0.0,0.0,0.0,0.0,0.0,0.0,0.0,0.0,0.0,0.0,0.0,0.0,0.0,0.0,0.0,0.0,0.0,0.0,0.0,0.0,0.0,0.0,0.0,0.0,0.0,0.0,0.0,0.0,0.0,0.0,0.0,0.0,0.0,0.0,0.0,0.0,0.0,0.0,0.0,0.0,0.0,0.0,0.0,0.0,0.0,0.0,0.0,0.0,0.0,0.0,0.0,0.0,0.0,0.0,0.0,0.0,0.0,0.0,0.0,0.0,0.0,0.0,0.0,0.0,0.0,0.0,0.0,0.0,0.0,0.0,0.0,0.0,0.0,0.0,0.0,0.0,0.0,0.0,0.0,0.0,0.0,0.0,0.0,0.0,0.0,0.0,0.0,0.0,0.0,0.0,0.0,0.0,0.0,0.0,0.0,0.0,0.0,0.0,0.0,0.0,0.0,0.0,0.0,0.0,0.0,0.0,0.0,0.0,0.0,0.0,0.0,0.0,0.0,0.0,0.0,0.0,0.0,0.0,0.0,0.0,0.0,0.0,0.0,0.0,0.0,0.0,0.0,0.0,0.0,0.0,0.0,0.0,0.0,0.0,0.0,0.0,0.0,0.0,0.0,0.0,0.0,0.0,0.0,0.0,0.0,0.0,0.0,0.0,0.0,0.0,0.0,0.0,0.0,0.0,0.0,0.0,0.0,0.0,0.0,0.0,0.0,0.0,0.0,0.0,0.0,0.0,0.0,0.0,0.0,0.0,0.0,0.0,0.0,0.0,0.0,0.0,0.0,0.0,0.0,0.0,0.0,0.0,0.0,0.0,0.0,0.0,0.0,0.0,0.0,0.0,0.0,0.0,0.0,0.0,0.0,0.0,0.0,0.0,0.0,0.0,0.0,0.0,0.0,0.0,0.0,0.0,0.0,0.0,0.0,0.0,0.0,0.0,0.0,0.0,0.0,0.0,0.0,0.0,0.0,0.0,0.0,0.0,0.0,0.0,0.0,0.0,0.0,0.0,0.0,0.0,0.0,0.0,0.0,0.0,0.0,0.0,0.0,0.0,0.0,0.0,0.0,0.0,0.0,0.0,0.0,0.0,0.0,0.0,0.0,0.0,0.0,0.0,0.0,0.0,0.0,0.0,0.0,0.0,0.0,0.0,0.0,0.0,0.0,0.0,0.0,0.0,0.0,0.0,0.0,0.0,0.0,0.0,0.0,0.0,0.0,0.0,0.0,0.0,0.0,0.0,0.0,0.0,0.0,0.0,0.0,0.0,0.0,0.0,0.0,0.0,0.0,0.0,0.0,0.0,0.0,0.0,0.0,0.0,0.0,0.0,0.0,0.0,0.0,0.0,0.0,0.0,0.0,0.0,0.0,0.0,0.0,0.0,0.0,0.0,0.0,0.0,0.0,0.0,0.0,0.0,0.0,0.0,0.0,0.0,0.0,0.0,0.0,0.0,0.0,0.0,0.0,0.0,0.0,0.0,0.0,0.0,0.0,0.0,0.0,0.0,0.0,0.0,0.0,0.0,0.0,0.0,0.0,0.0,0.0,0.0,0.0,0.0,0.0,0.0,0.0,0.0,0.0,0.0,0.0,0.0,0.0,0.0,0.0,0.0,0.0,0.0,0.0,0.0,0.0,0.0,0.0,0.0,0.0,0.0,0.0,0.0,0.0,0.0,0.0,0.0,0.0,0.0,0.0,0.0,0.0,0.0,0.0,0.0,0.0,0.0,0.0,0.0,0.0,0.0,0.0,0.0,0.0,0.0,0.0,0.0,0.0,0.0,0.0,0.0,0.0,0.0,0.0,0.0,0.0,0.0,0.0,0.0,0.0,0.0,0.0,0.0,0.0,0.0,0.0,0.0,0.0,0.0,0.0,0.0,0.0,0.0,0.0,0.0,0.0,0.0,0.0,0.0,0.0,0.0,0.0,0.0,0.0,0.0,0.0,0.0,0.0,0.0,0.0,0.0,0.0,0.0,0.0,0.0,0.0,0.0,0.0,0.0,0.0,0.0,0.0,0.0,0.0,0.0,0.0,0.0,0.0,0.0,0.0,0.0,0.0,0.0,0.0,0.0,0.0,0.0,0.0,0.0,0.0,0.0,0.0,0.0,0.0,0.0,0.0,0.0,0.0,0.0,0.0,0.0,0.0,0.0,0.0,0.0,0.0,0.0,0.0,0.0,0.0,0.0,0.0,0.0,0.0,0.0,0.0,0.0,0.0,0.0,0.0,0.0,0.0,0.0,0.0,0.0,0.0,0.0,0.0,0.0,0.0,0.0,0.0,0.0,0.0,0.0,0.0,0.0,0.0,0.0,0.0,0.0,0.0,0.0,0.0,0.0,0.0,0.0,0.0,0.0,0.0,0.0,0.0,0.0,0.0,0.0,0.0,0.0,0.0,0.0,0.0,0.0,0.0,0.0,0.0,0.0,0.0,0.0,0.0,0.0,0.0,0.0,0.0,0.0,0.0,0.0,0.0,0.0,0.0,0.0,0.0,0.0,0.0,0.0,0.0,0.0,0.0,0.0,0.0,0.0,0.0,0.0,0.0,0.0,0.0,0.0,0.0,0.0,0.0,0.0,0.0,0.0,0.0,0.0,0.0,0.0,0.0,0.0,0.0,0.0,0.0,0.0,0.0,0.0,0.0,0.0,0.0,0.0,0.0,0.0,0.0,0.0,0.0,0.0,0.0,0.0,0.0,0.0,0.0,0.0,0.0,0.0,0.0,0.0,0.0,0.0,0.0,0.0,0.0,0.0,0.0,0.0,0.0,0.0,0.0,0.0,0.0,0.0,0.0,0.0,0.0,0.0,0.0,0.0,0.0,0.0,0.0,0.0,0.0,0.0,0.0,0.0,0.0,0.0,0.0,0.0,0.0,0.0,0.0,0.0,0.0,0.0,0.0,0.0,0.0,0.0,0.0,0.0,0.0,0.0,0.0,0.0,0.0,0.0,0.0,0.0,0.0,0.0,0.0,0.0,0.0,0.0,0.0,0.0,0.0,0.0,0.0,0.0,0.0,0.0,0.0,0.0,0.0,0.0,0.0,0.0,0.0,0.0,0.0,0.0,0.0,0.0,0.0,0.0,0.0,0.0,0.0,0.0,0.0,0.0,0.0,0.0,0.0,0.0,0.0,0.0,0.0,0.0,0.0,0.0,0.0,0.0,0.0,0.0,0.0,0.0,0.0,0.0,0.0,0.0,0.0,0.0,0.0,0.0,0.0,0.0,0.0,0.0,0.0,0.0,0.0,0.0,0.0,0.0,0.0,0.0,0.0,0.0,0.0,0.0,0.0,0.0,0.0,0.0,0.0,0.0,0.0,0.0,0.0,0.0,0.0,0.0,0.0,0.0,0.0,0.0,0.0,0.0,0.0,0.0,0.0,0.0,0.0,0.0,0.0,0.0,0.0,0.0,0.0,0.0,0.0,0.0,0.0,0.0,0.0,0.0,0.0,0.0,0.0,0.0,0.0,0.0,0.0,0.0,0.0,0.0,0.0,0.0,0.0,0.0,0.0,0.0,0.0,0.0,0.0,0.0,0.0,0.0,0.0,0.0,0.0,0.0,0.0,0.0,0.0,0.0,0.0,0.0,0.0,0.0,0.0,0.0,0.0,0.0,0.0,0.0,0.0,0.0,0.0,0.0,0.0,0.0,0.0,0.0,0.0,0.0,0.0,0.0,0.0,0.0,0.0,0.0,0.0,0.0,0.0,0.0,0.0,0.0,0.0,0.0,0.0,0.0,0.0,0.0,0.0,0.0,0.0,0.0,0.0,0.0,0.0,0.0,0.0,0.0,0.0,0.0,0.0,0.0,0.0,0.0,0.0,0.0,0.0,0.0,0.0,0.0,0.0,0.0,0.0,0.0,0.0,0.0,0.0,0.0,0.0,0.0,0.0,0.0,0.0,0.0,0.0,0.0,0.0,0.0,0.0,0.0,0.0,0.0,0.0,0.0,0.0,0.0,0.0,0.0,0.0,0.0,0.0,0.0,0.0,0.0,0.0,0.0,0.0,0.0,0.0,0.0,0.0,0.0,0.0,0.0,0.0,0.0,0.0,0.0,0.0,0.0,0.0,0.0,0.0,0.0,0.0,0.0,0.0,0.0,0.0,0.0,0.0,0.0,0.0,0.0,0.0,0.0,0.0,0.0,0.0,0.0,0.0,0.0,0.0,0.0,0.0,0.0,0.0,0.0,0.0,0.0,0.0,0.0,0.0,0.0,0.0,0.0,0.0,0.0,0.0,0.0,0.0,0.0,0.0,0.0,0.0,0.0,0.0,0.0,0.0,0.0,0.0,0.0,0.0,0.0,0.0,0.0,0.0,0.0,0.0,0.0,0.0,0.0,0.0,0.0,0.0,0.0,0.0,0.0,0.0,0.0,0.0,0.0,0.0,0.0,0.0,0.0,0.0,0.0,0.0,0.0,0.0,0.0,0.0,0.0,0.0,0.0,0.0,0.0,0.0,0.0,0.0,0.0,0.0,0.0,0.0,0.0,0.0,0.0,0.0,0.0,0.0,0.0,0.0,0.0,0.0,0.0,0.0,0.0,0.0,0.0,0.0,0.0,0.0,0.0,0.0,0.0,0.0,0.0,0.0,0.0,0.0,0.0,0.0,0.0,0.0,0.0,0.0,0.0,0.0,0.0,0.0,0.0,0.0,0.0,0.0,0.0,0.0,0.0,0.0,0.0,0.0,0.0,0.0,0.0,0.0,0.0,0.0,0.0,0.0,0.0,0.0,0.0,0.0,0.0,0.0,0.0,0.0,0.0,0.0,0.0,0.0,0.0,0.0,0.0,0.0,0.0,0.0,0.0,0.0,0.0,0.0,0.0,0.0,0.0,0.0,0.0,0.0,0.0,0.0,0.0,0.0,0.0,0.0,0.0,0.0,0.0,0.0,0.0,0.0,0.0,0.0,0.0,0.0,0.0,0.0,0.0,0.0,0.0,0.0,0.0,0.0,0.0,0.0,0.0,0.0,0.0,0.0,0.0,0.0,0.0,0.0,0.0,0.0,0.0,0.0,0.0,0.0,0.0,0.0,0.0,0.0,0.0,0.0,0.0,0.0,0.0,0.0,0.0,0.0,0.0,0.0,0.0,0.0,0.0,0.0,0.0,0.0,0.0,0.0,0.0,0.0,0.0,0.0,0.0,0.0,0.0,0.0,0.0,0.0,0.0,0.0,0.0,0.0,0.0,0.0,0.0,0.0,0.0,0.0,0.0,0.0,0.0,0.0,0.0,0.0,0.0,0.0,0.0,0.0,0.0,0.0,0.0,0.0,0.0,0.0,0.0,0.0,0.0,0.0,0.0,0.0,0.0,0.0,0.0,0.0,0.0,0.0,0.0,0.0,0.0,0.0,1.3678,0.0,0.0,0.0,0.0,0.0,0.0,0.0,0.0,0.0,0.0,0.0,0.0,0.0,0.0,0.0,0.0,0.0,0.0,0.0,0.0,0.0,0.0,0.0,0.0,0.0,0.0,0.0,0.0,0.0,0.0,0.0,0.0,0.0,0.0,0.0,0.0,0.0,0.0,0.0,0.7002,0.7649,0.8291,0.7521,0.7782,0.8882,0.0,0.0,0.0,0.0,0.0,0.0,0.0,0.0,0.0,0.0,0.0,0.0,0.0,0.0,0.0,0.0,0.0,0.0,0.0,0.0,0.0,0.0,0.0,0.0,0.0,0.0,0.0,0.0,0.0,0.0,0.0,0.0,0.0,0.0,0.0,0.0,0.0,0.0,0.0,0.0,0.0,0.0,0.0,0.0,0.0,0.0,0.0,0.0,0.0,0.0,0.0,0.0,0.0,0.0,0.0,0.0,0.0,0.0,0.0,0.0,0.0,0.0,0.0,0.0,0.0,0.0,0.0,0.0,0.0,0.0,0.0,1.4327,0.0,0.0,0.0,0.0,0.0,0.0,0.0,0.0,0.0,0.0,0.0,0.0,0.0,0.0,0.0,0.0,0.0,0.0,0.0,0.0,0.0,0.0,0.0,0.3292,0.3626,0.3419,0.4077,0.4163,0.0,0.0,0.0,0.0,0.0,0.0,0.0,0.5559,0.5741,0.5631,0.6572,0.7293,0.7836,0.7876,0.8543,0.9651,0.8538,0.0,0.0,0.0,0.0,0.0,0.0,0.0,0.0,0.0,0.0,0.0,0.0,0.0,0.0,0.0,0.0,0.0,0.0,0.0,0.0,0.0,0.0,0.0,0.0,0.0,0.0,0.0,0.0,0.0,0.0,0.0,0.0,0.0,0.0,0.0,0.0,0.0,0.0,0.0,0.0,0.0,0.0,0.0,0.0,0.0,0.0,0.0,0.0,0.0,0.0,0.0,0.0,0.0,0.0,0.0,0.0,0.0,0.0,0.0,0.0,0.0,0.0,0.0,1.1777,1.2523,1.3699,1.3708,1.4083,1.4717,1.4596,1.4514,1.4387,1.3321,0.0,0.0,0.0,0.0,0.0,0.0,0.0,0.0,0.0,0.0,0.0,0.0,0.0,0.0,0.0,0.0,0.0,0.0,0.0,0.0,0.0,0.361,0.3719,0.3047,0.3851,0.4432,0.4394,0.0,0.0,0.0,0.0,0.0,0.3805,0.4625,0.5284,0.5679,0.793,0.9119,0.9258,0.9417,0.938,0.9157,0.8689,0.8576,0.877,0.0,0.0,0.0,0.0,0.0,0.0,0.0,0.0,0.0,0.0,0.0,0.0,0.0,0.0,0.0,0.0,0.0,0.0,0.0,0.0,0.0,0.0,0.0,0.0,0.0,0.0,0.0,0.0,0.0,0.0,0.0,0.0,0.0,0.0,0.0,0.0,0.0,0.0,0.0,0.0,0.0,1.1464,1.2862,0.0,0.0,0.0,0.0,0.0,0.0,0.0,0.0,0.0,0.0,0.0,0.0,0.0,1.1688,1.2305,1.1978,1.1978,1.2313,1.2979,1.3704,1.4478,1.4495,1.4883,1.5533,1.4874,0.0,1.4515,1.4327,0.0,0.0,0.0,0.0,0.0,0.0,0.0,0.0,0.0,0.0,0.0,0.0,0.0,0.0,0.0,0.0,0.0,0.0,0.0,0.0,0.0,0.2136,0.2604,0.1761,0.3132,0.3563,0.235,0.3146,0.0,0.0,0.0,0.3981,0.3852,0.4725,0.5949,0.7421,0.8551,0.9242,0.9513,0.9984,0.9822,0.9164,0.9319,0.9226,0.8959,0.8294,0.0,0.0,0.0,0.0,0.0,0.0,0.0,0.0,0.0,0.0,0.0,0.0,0.0,0.0,0.0,0.0,0.0,0.0,0.0,0.0,0.0,0.0,0.0,0.0,0.0,0.0,0.0,0.0,0.0,0.0,0.0,0.0,0.0,0.0,0.0,0.0,0.0,0.0,0.0,1.0585,1.1391,1.1367,1.1387,1.1358,0.0,0.0,0.0,0.0,0.0,0.0,0.0,0.0,0.0,1.1507,1.1483,1.1713,1.2221,1.2193,1.2509,1.3093,1.3346,1.3809,1.4425,1.4563,1.4828,1.5089,1.5163,1.5303,1.5423,1.4195,1.4022,1.4446,0.0,0.0,0.0,0.0,1.3891,1.4399,0.0,0.0,0.0,0.0,0.0,0.0,0.0,0.0,0.0,0.0,0.0,0.0,-0.087,0.0846,0.1666,0.078,0.2555,0.2959,0.0999,0.2329,0.2885,0.0,0.3259,0.3892,0.379,0.4952,0.6655,0.8897,0.8891,0.9062,0.9357,1.017,1.0124,0.929,0.9868,0.9875,0.9309,0.8393,0.7555,0.6719,0.0,0.0,0.0,0.0,0.0,0.0,0.0,0.0,0.0,0.0,0.0,0.0,0.0,0.0,0.0,0.0,0.0,0.0,0.0,0.0,0.0,0.0,0.0,0.0,0.0,0.0,0.0,0.0,0.0,0.0,0.0,0.0,0.0,0.0,0.0,0.0,0.0,1.0856,1.1336,1.0467,1.1098,1.1291,0.0,0.0,0.0,0.0,0.0,0.0,1.1724,1.1819,1.1861,1.1778,1.1854,1.2148,1.2606,1.254,1.2906,1.3656,1.3651,1.3866,1.4286,1.4709,1.488,1.4857,1.541,1.5819,1.5981,1.4224,1.4027,1.4729,1.383,1.3752,1.4048,1.3864,1.4353,1.503,0.0,0.0,0.0,0.0,0.0,0.0,0.0,0.0,0.0,0.0,0.0,-0.1542,-0.1546,0.0548,0.1583,0.0538,0.2407,0.3236,0.2184,0.2675,0.288,0.264,0.2853,0.303,0.313,0.4803,0.6843,0.9159,0.9155,0.9071,0.883,0.9987,1.0085,0.9347,1.0021,1.0166,0.9916,0.9304,0.823,0.6859,0.6719,0.0,0.0,0.0,0.0,0.0,0.0,0.0,0.0,0.0,0.0,0.0,0.0,0.0,0.0,0.0,0.0,0.0,0.0,0.0,0.0,0.0,0.0,0.0,0.0,0.0,0.0,0.0,0.0,0.0,0.0,0.0,0.0,0.0,0.0,0.0,0.0,0.0,0.0,1.2119,1.2253,0.0,0.0,0.0,0.0,1.1383,1.1657,1.1937,1.2271,1.2896,1.3404,1.3754,1.3418,1.3647,1.4663,1.3691,1.3313,1.3594,1.4384,1.4605,1.4292,1.5341,1.5693,1.5462,1.5462,1.5552,1.5581,1.5194,1.5241,1.5487,1.404,1.4382,1.5496,1.485,1.553,1.6817,0.0,0.0,0.0,0.0,0.0,0.0,0.0,0.0,-0.2414,-0.1007,-0.1143,0.0643,0.6128,0.3485,0.2384,0.5174,0.3339,0.158,0.0565,0.1265,0.194,0.2409,0.2327,0.317,0.5044,0.6698,0.8544,1.0588,1.1163,1.1362,1.1277,1.2432,1.2557,1.1805,1.2508,1.2374,1.1497,1.0119,0.8942,0.7969,0.7297,0.633,0.0,0.0,0.0,0.0,0.0,0.0,0.0,0.0,0.0,0.0,0.0,0.0,0.0,0.0,0.0,0.0,0.0,0.0,0.0,0.0,0.0,0.0,0.0,0.0,0.0,0.0,0.0,0.0,0.0,0.0,0.0,0.0,0.0,0.0,0.0,0.0,0.0,1.1957,1.2318,0.0,1.2152,1.1881,1.2006,1.2816,1.2777,1.3002,1.3467,1.3708,1.3808,1.3712,1.3801,1.4097,1.462,1.446,1.4482,1.477,1.4838,1.475,1.4448,1.518,1.516,1.4794,1.5258,1.5591,1.5667,1.5274,1.5561,1.6092,1.5782,1.6012,1.6468,1.6197,1.6748,1.7647,0.0,0.0,0.0,0.0,0.0,0.0,0.0,0.0,-0.3284,-0.1541,-0.1678,0.0322,0.6253,0.3004,0.1675,0.47,0.277,0.0875,-0.0315,0.0548,0.1428,0.2059,0.255,0.405,0.6673,0.788,0.9351,1.1353,1.135,1.1682,1.2326,1.3086,1.3328,1.3233,1.4026,1.3833,1.2818,1.1453,1.0165,0.8923,0.8208,0.7449,0.668,0.0,0.0,0.0,0.0,0.0,0.0,0.0,0.0,0.0,0.0,0.0,0.0,0.0,0.0,0.0,0.0,0.0,0.0,0.0,0.0,0.0,0.0,0.0,0.0,0.0,0.0,0.0,0.0,0.0,0.0,0.0,0.0,0.0,0.0,0.0,1.1768,1.1948,1.2447,1.2748,1.2647,1.2573,1.2849,1.3789,1.3716,1.3851,1.4433,1.4416,1.4295,1.4095,1.4282,1.4522,1.481,1.501,1.5204,1.5391,1.5104,1.4863,1.4663,1.4974,1.4846,1.442,1.5105,1.5326,1.5219,1.5225,1.5521,1.5948,1.6501,1.6872,1.7119,1.7266,1.7784,1.8429,0.0,0.0,0.0,0.0,0.0,0.0,0.0,-0.49,-0.4634,-0.2684,-0.2889,-0.2712,-0.1526,-0.0856,-0.0646,-0.1045,0.0713,0.1194,-0.0325,0.0688,0.1456,0.1651,0.3635,0.5698,0.7705,0.7983,0.9099,1.122,0.98,1.0003,1.1752,1.1746,1.2334,1.3438,1.4384,1.4482,1.3782,1.3541,1.2024,0.9818,0.9455,0.9055,0.8519,0.0,0.0,0.0,0.0,0.0,0.0,0.0,0.0,0.0,0.0,0.0,0.0,0.0,0.0,0.0,0.0,0.0,0.0,0.0,0.0,0.0,0.0,0.0,0.0,0.0,0.0,0.0,0.0,0.0,0.0,0.0,0.0,0.0,1.0749,1.1371,1.1986,1.2271,1.2927,1.3207,1.2946,1.338,1.3867,1.4142,1.4402,1.4683,1.4977,1.499,1.499,1.499,1.499,1.5124,1.5404,1.5411,1.5411,1.5404,1.5124,1.4983,1.4977,1.4977,1.481,1.4502,1.4965,1.4792,1.4307,1.4932,1.5165,1.5225,1.6042,1.6784,1.7578,1.799,1.8469,1.904,0.0,0.0,0.0,0.0,0.0,0.0,0.0,-0.4824,-0.4289,-0.3353,-0.3021,-0.0775,0.4694,0.1833,0.1142,0.5122,0.2719,0.0529,-0.0388,0.018,0.1241,0.2625,0.4616,0.6198,0.7311,0.8065,0.9122,1.0704,1.0845,1.1513,1.2647,1.3957,1.4744,1.5371,1.7024,1.686,1.5465,1.5884,1.4846,1.2756,1.0801,0.9956,0.9685,0.0,0.0,0.0,0.0,0.0,0.0,0.0,0.0,0.0,0.0,0.0,0.0,0.0,0.0,0.0,0.0,0.0,0.0,0.0,0.0,0.0,0.0,0.0,0.0,0.0,0.0,0.0,0.0,0.0,0.0,0.0,0.0,1.131,1.1462,1.2252,1.3056,1.3824,1.4123,1.4449,1.5021,1.5008,1.5026,1.5337,1.5424,1.5504,1.5585,1.5591,1.5591,1.5591,1.5591,1.5631,1.5712,1.5712,1.5712,1.5712,1.5631,1.5478,1.5277,1.5277,1.4997,1.4516,1.4602,1.4268,1.3601,1.4518,1.4679,1.4396,1.6102,1.7103,1.7617,1.8276,1.8852,1.9259,0.0,0.0,0.0,0.0,0.0,0.0,0.0,-0.4957,-0.4489,-0.3756,-0.3286,-0.1238,0.3399,0.1056,0.0539,0.3958,0.1539,-0.0329,-0.0699,0.0416,0.1799,0.3511,0.4987,0.6314,0.7472,0.8325,0.9429,1.0731,1.1035,1.1807,1.3041,1.4186,1.4993,1.5718,1.7652,1.7564,1.5915,1.6838,1.622,1.4415,1.2751,1.1893,1.1557,1.0193,0.9713,0.946,0.7672,0.7349,0.7646,0.6168,0.0,0.0,0.0,0.0,0.0,0.0,0.0,0.0,0.0,0.0,0.0,0.0,0.0,0.0,0.0,0.0,0.0,0.0,0.0,0.0,0.0,0.0,0.0,0.0,1.1618,1.2276,1.2661,1.3095,1.3785,1.47,1.4848,1.5032,1.5623,1.5564,1.5531,1.5797,1.581,1.5908,1.6011,1.5893,1.5923,1.6012,1.5892,1.5832,1.5832,1.5832,1.5832,1.5832,1.5705,1.5625,1.5571,1.5451,1.5211,1.4883,1.4756,1.4349,1.3754,1.4158,1.4139,0.0,0.0,0.0,0.0,0.0,1.9097,1.9336,0.0,0.0,0.0,0.0,0.0,0.0,0.0,-0.5213,-0.496,-0.3959,-0.3623,-0.3052,-0.1817,-0.1538,-0.1327,-0.1121,-0.1115,-0.101,-0.0686,0.134,0.3105,0.4346,0.5078,0.622,0.7858,0.8471,0.9455,1.0779,1.0598,1.1271,1.2894,1.3501,1.4333,1.5291,1.7343,1.7333,1.5862,1.6996,1.6584,1.516,1.4801,1.4295,1.3592,1.228,1.175,1.1474,0.9653,0.8859,0.8625,0.759,0.0,0.0,0.0,0.0,0.0,0.0,0.0,0.0,0.0,0.0,0.0,0.0,0.0,0.0,0.0,0.0,0.0,0.0,0.0,0.0,0.0,0.0,0.0,0.0,1.2481,1.3417,1.4002,1.4087,1.4352,1.5065,1.5155,1.5263,1.558,1.5586,1.5675,1.5954,1.5922,1.5998,1.6273,0.0,0.0,0.0,0.0,1.5832,1.5832,1.5832,1.5832,1.5825,1.5571,1.5578,1.5818,1.5531,1.5398,1.5384,1.5124,1.4823,1.4482,1.4028,1.3975,1.4318,1.5516,1.6618,1.7536,1.876,1.9221,1.9336,0.0,0.0,0.0,0.0,0.0,0.0,0.0,-0.5085,-0.4824,-0.3892,-0.3623,-0.3052,-0.1817,-0.1443,-0.1231,-0.1119,-0.1078,-0.039,0.1149,0.3924,0.5493,0.5485,0.5924,0.6625,0.7793,0.7424,0.7834,0.9112,0.9871,1.0894,1.2205,1.5088,1.6278,1.6143,1.8851,1.8897,1.71,1.7567,1.7092,1.5976,1.5718,1.5084,1.4196,1.3441,1.3225,1.2991,1.1588,1.1274,1.1249,0.9611,0.9239,0.9316,0.8304,0.8226,0.0,0.0,0.0,0.0,0.0,0.0,0.0,0.0,0.0,0.0,0.0,0.0,0.0,0.0,0.0,0.0,0.0,0.0,0.0,1.2883,1.3483,1.4093,1.5059,1.5191,1.5246,1.5403,1.5634,1.5823,1.6144,1.6367,1.6371,1.6259,1.6037,1.5914,1.5993,1.5699,1.5721,1.5912,1.5858,1.5832,1.5832,1.5832,1.5832,1.5832,0.0,0.0,1.5818,1.5531,1.5398,1.5391,1.5337,1.501,1.4549,1.491,1.495,1.4913,1.5365,1.6267,1.7483,1.8417,1.8971,1.9336,0.0,0.0,0.0,0.0,0.0,0.0,0.0,-0.481,-0.4549,-0.3749,-0.3422,-0.2834,-0.1645,-0.1289,-0.1144,-0.1078,-0.0259,0.1275,0.3677,0.4924,0.5732,0.5925,0.6443,0.698,0.7451,0.7695,0.8171,0.8709,0.9681,1.0844,1.2226,1.4863,1.6377,1.6742,1.8964,1.9146,1.7655,1.7746,1.7527,1.7015,1.6136,1.5844,1.5847,1.4859,1.4429,1.4156,1.2862,1.2379,1.198,1.0391,0.9958,1.0021,0.9368,0.932,0.9373,0.0,0.0,0.0,0.0,0.0,0.0,0.0,0.0,0.0,0.0,0.0,0.0,0.0,0.0,1.1294,0.0,0.0,1.3045,1.3797,1.4244,1.4739,1.5403,1.5614,1.5692,1.5692,1.5804,1.5964,1.6092,1.6205,1.6256,1.6119,1.5989,1.5997,1.613,1.5841,1.5817,1.6059,1.5905,1.5832,1.5832,1.5832,1.5832,1.5832,1.5832,1.5905,1.6039,1.5745,1.5691,1.5825,1.5678,1.5444,1.5197,1.5491,1.5357,1.504,1.532,1.5904,1.6746,1.8004,1.8486,1.8674,0.0,0.0,0.0,0.0,0.0,0.0,0.0,-0.4571,-0.4379,-0.3779,-0.3396,-0.2732,-0.1667,-0.1467,-0.1322,-0.1101,0.0504,0.2682,0.5535,0.5361,0.5522,0.6337,0.7077,0.7531,0.7761,0.8771,0.9332,0.9217,1.0203,1.1296,1.2699,1.482,1.6316,1.7287,1.8784,1.8943,1.8038,1.7743,1.762,1.7488,1.6259,1.6298,1.6915,1.5783,1.5251,1.499,1.3686,1.293,1.2367,1.1007,1.054,1.0584,1.0256,1.0244,1.0335,0.989,0.9501,0.0,0.0,0.0,0.0,0.0,0.0,0.0,0.0,0.0,1.0547,1.1278,1.198,1.254,1.2964,1.3544,1.4099,1.4473,1.4853,1.5197,1.5463,1.568,1.5795,1.5741,1.5783,1.5813,1.5813,1.5813,1.5831,1.5885,1.5843,1.5933,1.6232,1.5903,1.5825,1.6182,1.5794,1.5737,1.573,1.573,1.573,1.5832,1.5832,1.5952,1.6179,1.5939,1.5959,1.6172,1.5932,1.5832,1.5832,1.5832,1.5558,1.5157,1.5391,1.5597,1.5908,1.766,1.8242,1.8372,0.0,0.0,0.0,0.0,0.0,0.0,0.0,0.0,-0.4442,-0.458,-0.414,-0.3427,-0.2462,-0.2334,-0.2008,-0.1163,0.0257,0.2318,0.5188,0.5881,0.6482,0.7241,0.7956,0.8758,0.9625,1.0094,1.0583,1.09,1.2431,1.3316,1.3737,1.658,1.7821,1.7718,1.8947,1.8989,1.8159,1.7168,1.6853,1.6806,1.6052,1.5825,1.5893,1.5504,1.547,1.5427,1.3989,1.3677,1.3777,1.2419,1.2132,1.2203,1.136,1.125,1.1175,0.9885,0.965,0.9728,0.9426,0.9655,1.0101,1.0497,1.0521,1.0775,0.0,0.0,1.2105,1.3009,1.3501,1.3809,1.4069,1.4189,1.4497,1.524,1.5221,1.5197,1.5463,1.5523,1.5457,1.5221,1.5403,1.5541,1.5541,1.5541,1.5638,1.5873,1.5674,1.5634,1.5921,1.5425,1.5319,1.5594,1.5326,1.5267,1.554,1.554,1.5635,1.5832,1.5832,1.5845,1.5879,1.5845,1.5845,1.5879,1.5845,1.5832,1.5832,1.5832,1.5792,1.5732,1.5765,1.5671,1.5714,1.7652,1.882,1.9738,0.0,0.0,0.0,0.0,0.0,0.0,0.0,0.0,0.0,-0.4374,-0.4207,-0.3602,-0.2634,-0.2253,-0.1854,-0.1133,0.0509,0.2294,0.415,0.5167,0.6107,0.6968,0.7603,0.8436,0.9444,1.0377,1.1154,1.1863,1.2823,1.3931,1.5294,1.7266,1.8678,1.9646,2.0492,2.0643,2.0313,1.8981,1.8452,1.84,1.7201,1.6556,1.6317,1.5137,1.4429,1.3959,1.3271,1.2613,0.0,1.1534,1.1453,1.1558,1.1316,1.1181,1.0912,0.9978,0.9793,1.0027,1.0486,1.0553,1.0695,1.179,1.1877,1.1863,1.2889,1.3034,1.3201,1.387,1.431,1.4642,1.4745,1.4896,1.5107,0.0,1.5409,1.5372,1.5481,1.5499,1.5282,1.4702,1.4733,1.4926,1.524,1.527,1.5384,1.5644,1.5559,1.5603,1.5921,1.5543,1.5426,1.5732,1.5312,1.5255,1.5506,1.5351,1.5267,1.5363,1.5363,1.5447,1.5603,1.5625,1.5737,1.5832,1.5832,1.5832,1.5832,1.5832,1.5832,1.5832,1.5832,1.5752,1.5819,1.696,1.7858,1.8674,0.0,0.0,0.0,0.0,0.0,0.0,0.0,0.0,0.0,0.0,-0.4077,-0.3867,-0.3132,-0.243,-0.198,-0.1725,0.0376,0.213,0.3105,0.44,0.552,0.6407,0.7197,0.8204,0.9383,1.0454,1.1606,1.2729,1.3273,1.4489,1.6195,1.7606,1.9172,2.0649,2.1096,2.1437,2.1505,2.0168,1.9484,1.914,1.7725,1.6846,1.6024,1.4511,1.3153,1.1981,1.1915,1.1224,1.0273,1.0327,1.039,1.0581,1.0744,1.075,1.052,0.9879,0.9834,1.0206,1.1025,1.1156,1.1395,1.276,1.2977,1.3022,1.3815,1.4004,1.4118,1.4576,1.4837,1.5071,1.5022,1.5053,1.5203,1.5275,1.533,1.5306,1.5275,1.5258,1.4926,1.4268,1.4123,1.4232,1.463,1.4799,1.5022,1.5366,1.539,1.5524,1.5817,1.5478,1.5425,1.5708,1.5174,1.4986,1.5278,1.5082,1.4987,1.5083,1.5083,1.5191,1.5375,1.5531,1.5658,1.5856,1.5952,1.5905,1.5832,1.5832,1.5832,1.5832,1.5832,1.5832,1.5838,1.649,1.7152,1.7993,0.0,0.0,0.0,0.0,0.0,0.0,0.0,0.0,0.0,0.0,0.0,0.0,0.0,-0.333,-0.2774,-0.3134,-0.0431,0.1663,0.2362,0.3801,0.4987,0.5777,0.7177,0.8541,1.0038,1.0714,1.1957,1.3719,1.4419,1.5224,1.6197,1.7803,1.914,2.0034,1.9867,2.0138,2.0653,1.9698,1.8663,1.7772,1.7198,1.5934,1.4476,1.3881,1.1979,0.9676,0.9968,0.9926,0.9632,0.9202,0.9379,0.9731,0.9802,0.9985,1.0043,0.9631,0.9776,1.0108,1.0569,1.1286,1.2077,1.2886,1.3483,1.4075,1.4877,1.5065,1.5149,1.5409,1.5261,1.5015,1.4724,1.4535,1.4419,1.4665,1.4701,1.473,1.4671,1.4463,1.4226,1.3954,1.3694,1.3544,0.0,1.402,1.4545,1.5077,1.5119,1.5234,1.5487,1.501,1.4847,1.5101,1.4582,1.4496,1.47,1.4694,1.4885,1.5083,1.5083,1.5089,1.5102,1.5641,1.5869,1.5888,1.6168,1.6092,1.5832,1.5832,1.5832,1.5832,1.5832,1.5832,1.5865,1.6732,1.7487,1.8434,0.0,0.0,0.0,0.0,0.0,0.0,0.0,0.0,0.0,0.0,0.0,0.0,0.0,0.0,0.0,0.0,-0.0972,0.0314,0.0988,0.2622,0.3808,0.4459,0.5883,0.7415,0.8982,1.0105,1.175,1.4068,1.4592,1.5613,1.7155,1.7779,1.8733,1.9769,2.0057,2.0517,2.0962,2.0606,1.952,1.8086,1.7251,1.5698,1.3808,1.2619,1.096,0.9158,0.0,0.8008,0.7581,0.8163,0.8378,0.848,0.9256,0.9331,0.927,0.9616,0.9902,1.0478,1.1933,1.2556,1.3039,1.457,1.4824,1.4865,1.5487,1.5383,1.5136,1.5053,1.4413,1.3794,1.3275,1.3181,1.3176,1.3443,1.3794,1.4056,1.4407,1.4388,1.4051,1.3534,1.3626,0.0,0.0,0.0,0.0,1.4545,1.4745,1.4962,1.5228,1.4908,1.4835,1.5101,1.4582,1.4389,1.4674,1.4491,1.4496,1.4592,1.4783,1.4874,1.4802,1.535,1.5652,1.5608,1.5908,1.5919,1.5832,1.5832,1.5832,1.5832,1.5832,1.5832,1.5865,1.6746,1.727,1.7684,0.0,0.0,0.0,0.0,0.0,0.0,0.0,0.0,0.0,0.0,0.0,0.0,0.0,0.0,0.0,0.0,0.0,-0.0674,-0.0,0.1309,0.2446,0.3242,0.4478,0.6009,0.7765,0.869,1.0339,1.289,1.3398,1.4604,1.6452,1.7044,1.7874,1.8846,1.925,1.9668,2.0044,2.0117,1.8937,1.7163,1.6508,1.4826,1.2503,1.124,0.9884,0.0,0.7528,0.6721,0.627,0.7175,0.7456,0.7562,0.8611,0.8939,0.9108,0.9723,1.0222,1.1006,1.2773,1.3391,1.3865,1.543,1.5491,1.5353,1.5587,1.5228,1.4686,1.426,1.3483,1.2683,1.2072,1.1935,1.2083,1.2252,1.266,1.3153,1.3676,1.3686,1.3549,1.3228,1.335,1.3418,0.0,0.0,0.0,1.4274,1.4467,1.4727,1.5089,1.4859,1.4877,1.5234,1.4817,1.4672,1.4853,1.4588,1.4395,1.4298,1.4479,1.4625,1.4752,1.5196,1.5356,1.5416,1.5706,1.5816,1.573,1.5737,1.5832,1.5832,1.5832,1.5832,1.5879,1.6766,1.7148,1.7383,0.0,0.0,0.0,0.0,0.0,0.0,0.0,0.0,0.0,0.0,0.0,0.0,0.0,0.0,0.0,0.0,0.0,0.0,-0.049,0.0123,0.1071,0.2267,0.3145,0.4534,0.6463,0.678,0.8067,1.0461,1.1151,1.2418,1.4364,1.5524,1.6569,1.7376,1.7376,1.7605,1.7999,1.8119,1.7002,1.5112,1.4935,1.3279,1.087,1.004,0.8763,0.7445,0.6847,0.6173,0.5744,0.6377,0.6822,0.7179,0.8005,0.875,0.9433,1.0075,1.0835,1.1723,1.3106,1.396,1.4545,1.5324,1.5505,1.5405,1.51,1.4619,1.3939,1.3032,1.2411,1.1746,0.0,0.0,1.0994,1.1272,1.1594,1.2049,1.2681,1.2592,1.2637,0.0,0.0,0.0,0.0,0.0,0.0,1.4298,0.0,1.4545,1.5059,1.4853,1.4944,1.5445,1.5215,1.5083,1.5065,1.4817,1.4564,1.4298,1.431,1.4461,1.4721,1.5029,1.5115,1.5091,1.5692,1.5725,1.554,1.5737,1.5832,1.5832,1.5832,1.5832,1.5899,1.6783,1.7119,1.7412,0.0,0.0,0.0,0.0,0.0,0.0,0.0,0.0,0.0,0.0,0.0,0.0,0.0,0.0,0.0,0.0,0.0,0.0,-0.1189,-0.0119,0.0725,0.1194,0.2455,0.3743,0.5165,0.6625,0.8068,0.9526,1.0431,1.1774,1.3371,1.4187,1.4969,1.5707,1.5707,1.5936,1.6312,1.637,1.5425,1.4002,1.351,1.2274,1.0588,0.9676,0.8631,0.7639,0.7128,0.6492,0.5934,0.6584,0.7772,0.8923,0.9192,0.9732,1.0381,1.1169,1.1922,1.2774,1.3815,1.4682,1.5288,1.5692,1.5636,1.5305,1.4743,1.3849,1.2963,1.1978,1.0978,1.0198,1.0021,0.9958,0.0,1.0941,1.1455,0.0,1.2947,1.2947,0.0,1.2892,0.0,1.338,1.2918,1.3825,0.0,0.0,1.4508,1.4672,1.4805,1.4751,1.4781,1.4914,1.4853,1.4714,1.4503,1.4437,1.437,1.4298,1.4509,1.4648,1.4733,1.522,1.5279,1.5103,1.5706,1.5718,1.554,1.5737,1.5832,1.5832,1.5832,1.5832,1.5872,1.6551,1.7078,1.764,0.0,0.0,0.0,0.0,0.0,0.0,0.0,0.0,0.0,0.0,0.0,0.0,0.0,0.0,0.0,0.0,0.0,0.0,0.0,-0.0518,-0.0,0.0241,0.1498,0.2949,0.4601,0.5928,0.706,0.7951,0.9034,1.037,1.1925,1.2647,1.3485,1.4304,1.4304,1.4433,1.4634,1.4445,1.3666,0.0,0.0,1.0945,0.9674,0.867,0.7973,0.7378,0.6574,0.6317,0.6489,0.7297,0.8513,0.9642,0.9955,1.0473,1.1092,1.2014,1.2671,1.3325,1.4219,1.4941,1.5505,1.5535,1.5194,1.4717,1.3935,1.2907,1.1816,1.0825,1.01,0.9486,0.9168,0.9276,0.9626,0.0,0.0,0.0,1.2368,1.257,1.2707,0.0,1.3252,0.0,1.3285,1.384,1.4205,0.0,1.4683,1.4938,1.5052,1.495,1.4992,1.5228,1.501,1.4757,1.4485,1.4479,1.4419,1.4298,1.4461,1.4533,1.4539,1.4835,1.4904,1.4832,0.0,1.5575,1.5369,1.5876,1.5945,1.5832,1.5832,1.5832,1.5885,1.6508,1.7069,1.7682,0.0,0.0,0.0,0.0,0.0,0.0,0.0,0.0,0.0,0.0,-0.5504,-0.5117,0.0,0.0,0.0,0.0,0.0,0.0,0.0,0.0,-0.0739,-0.0351,0.0583,0.2124,0.427,0.4924,0.5568,0.6274,0.7443,0.8761,1.0179,1.1146,1.2108,1.296,1.3077,1.3131,1.3077,1.2779,1.1976,1.0883,1.0616,0.9756,0.8586,0.0,0.7101,0.6867,0.5827,0.6041,0.6993,0.8103,0.9038,0.9916,1.0552,1.1128,1.176,1.2824,1.3327,1.3763,1.4579,1.5093,1.5363,1.5001,1.4607,1.3913,1.2903,1.1887,1.088,0.9723,0.9459,0.926,0.8602,0.8821,0.9281,0.9585,0.0,1.0681,1.1655,1.1968,1.2344,1.3023,1.2926,1.3084,1.3744,1.3685,1.3741,1.4157,1.4724,1.5143,1.5329,1.5125,1.53,1.5722,1.5258,1.4908,1.4721,1.4678,1.4539,1.4298,1.4298,1.4316,1.4352,1.4352,1.4352,1.4364,1.5193,1.5337,1.5198,1.5919,1.6059,1.5832,1.5872,1.5885,1.5959,1.6547,1.7168,1.7753,0.0,0.0,0.0,0.0,0.0,0.0,0.0,0.0,0.0,0.0,-0.4512,-0.468,0.0,0.0,0.0,0.0,0.0,0.0,0.0,0.0,0.0,-0.0113,0.0338,0.1468,0.3473,0.3972,0.464,0.5485,0.6788,0.7763,0.841,0.9903,1.0805,1.1114,1.1813,1.2135,1.2135,1.2186,1.1557,1.051,1.0458,0.9487,0.8037,0.7824,0.0,0.0,0.6203,0.6254,0.6682,0.8033,0.9499,1.09,1.1547,1.2337,1.3284,1.4616,1.4548,1.4316,1.568,1.5541,1.4995,1.479,1.4145,1.3367,1.2221,1.1233,1.0196,0.9195,0.8834,0.865,0.8374,0.8659,0.9184,0.9886,1.0279,1.0977,1.2129,1.2328,1.2538,0.0,1.3071,1.3157,1.3556,1.3738,0.0,0.0,1.4482,1.474,1.4873,1.482,1.4844,1.4926,1.4606,1.4527,1.4714,1.4485,1.4346,1.4298,1.4298,1.4419,1.4642,1.4642,1.4642,1.4648,1.5281,0.0,1.5185,1.5695,1.5879,1.5852,1.6099,1.6192,1.6266,1.6854,1.7483,1.7946,0.0,0.0,0.0,0.0,0.0,0.0,0.0,-0.2764,-0.2963,-0.285,-0.3128,-0.3516,-0.4181,-0.3959,-0.3516,0.0,0.0,0.0,0.0,0.0,0.0,0.0,0.0,0.0,0.2629,0.3347,0.4064,0.4889,0.0,0.673,0.7894,0.8849,0.9636,1.0218,1.0787,1.099,1.0889,1.0744,1.0328,0.9762,0.9547,0.8817,0.7771,0.0,0.0,0.0,0.0,0.6053,0.6546,0.7702,0.902,1.0349,1.1484,1.2286,1.308,1.4199,1.418,1.4087,1.501,1.5041,1.4657,1.4312,1.3591,1.2686,1.1629,1.0491,0.9529,0.8829,0.8551,0.8353,0.8144,0.8331,0.8776,0.9428,0.9787,1.0432,1.1876,1.2043,1.2307,1.3023,1.3001,1.3071,1.3443,1.3453,1.3582,1.3833,1.4074,1.4348,1.4497,1.4593,1.4613,1.4515,1.4509,1.4509,1.4497,1.4364,1.4298,1.4298,1.4298,1.437,1.4497,1.4497,1.4497,1.4509,1.5237,1.5337,1.5191,1.5807,1.5972,1.5845,1.5985,1.6046,1.6112,1.67,1.7225,1.7597,0.0,0.0,0.0,0.0,0.0,0.0,-0.1736,-0.2116,-0.233,-0.1832,-0.1955,-0.2408,-0.3241,-0.3352,-0.3019,0.0,0.0,0.0,0.0,0.0,0.0,0.0,0.0,0.0,0.0,0.0,0.0,0.0,0.4787,0.0,0.0,0.0,0.0,0.0,0.9858,1.0012,0.9917,0.9666,0.9413,0.0,0.0,0.8196,0.0,0.0,0.0,0.0,0.0,0.0,0.6397,0.7288,0.8222,0.9251,1.059,1.162,1.2393,1.3149,1.342,1.3502,1.4087,1.4358,1.4415,1.3755,1.3008,1.2042,1.1009,0.9873,0.8875,0.8467,0.8256,0.8066,0.7946,0.8001,0.824,0.8719,0.9015,0.9744,1.1218,1.1551,1.1941,1.2926,1.2872,0.0,1.3432,1.3206,0.0,1.3712,1.3696,1.3811,1.4191,1.4387,1.4342,1.422,1.4418,1.4424,1.4298,1.4298,1.4298,1.4298,1.4298,1.4298,1.4298,1.4298,1.4298,1.431,1.5014,1.528,0.0,1.5796,1.6039,1.5838,1.5899,1.5959,1.6072,1.6533,1.6995,1.7367,0.0,0.0,0.0,0.0,0.0,0.0,-0.1715,-0.1727,-0.1767,-0.1714,-0.1762,-0.1853,-0.1796,-0.1796,-0.1906,0.0,0.0,0.0,0.0,0.0,0.0,0.0,0.0,0.0,0.0,0.0,0.0,0.0,0.0,0.0,0.0,0.0,0.0,0.0,0.0,0.0,0.9658,0.9865,0.0,0.0,0.0,0.0,0.0,0.0,0.0,0.0,0.0,0.0,0.5876,0.6776,0.7377,0.7892,0.8541,1.0187,1.195,1.2709,1.3083,1.3344,1.4129,1.4226,1.4029,1.334,1.2447,1.1488,1.0241,0.915,0.8337,0.8098,0.7802,0.7607,0.7716,0.7709,0.7794,0.7965,0.8416,0.9169,1.0454,1.0912,1.1613,1.2705,0.0,0.0,1.3432,1.3066,1.2996,1.3475,1.3297,1.336,1.3879,1.376,1.3688,1.3931,1.3955,1.4045,1.4298,1.4298,1.4298,1.4298,1.4298,1.4298,1.4298,1.4298,1.4298,1.4298,1.4617,1.491,0.0,1.5478,1.5662,1.5852,1.6126,1.6393,1.6633,1.6687,1.7252,1.7907,0.0,0.0,0.0,0.0,0.0,0.0,-0.1557,-0.1643,-0.1639,-0.1552,-0.1651,-0.1675,-0.1427,-0.1371,-0.1382,-0.1519,0.0,0.0,0.0,0.0,0.0,0.0,0.0,0.0,0.0,0.0,0.2014,0.2845,0.3622,0.0,0.0,0.0,0.0,0.0,0.0,0.0,0.0,0.0,0.0,0.0,0.0,0.0,0.0,0.0,0.0,0.0,0.0,0.0,0.5537,0.6253,0.6595,0.6876,0.7387,0.8317,0.9392,1.0761,1.1514,1.2104,1.2814,1.3362,1.3588,1.2567,1.1608,1.0642,0.9468,0.847,0.7819,0.7741,0.74,0.7197,0.7396,0.7135,0.7116,0.7651,0.765,0.0,0.9463,0.9867,1.0547,1.1822,1.224,0.0,0.0,0.0,1.2899,1.3227,1.3163,1.3147,1.345,1.3335,1.3346,1.3636,1.3835,1.3931,1.4022,1.4202,1.4298,1.4298,1.4298,1.4298,1.4298,1.4298,1.4298,1.4298,1.4592,1.4885,0.0,1.5356,1.5635,1.5838,1.5959,1.6186,1.6466,1.664,1.7076,1.7542,0.0,0.0,0.0,0.0,0.0,-0.1404,-0.1451,-0.1487,-0.1483,-0.1395,-0.1487,-0.1507,-0.1214,-0.1148,-0.1103,-0.1031,-0.108,0.0,0.0,0.0,0.0,0.0,0.0,0.0,0.0,0.0,0.1562,0.2258,0.2945,0.4006,0.0,0.0,0.0,0.0,0.0,0.0,0.0,0.0,0.0,0.0,0.0,0.0,0.0,0.0,0.0,0.0,0.0,0.0,0.0,0.0,0.0,0.6337,0.6664,0.6942,0.7427,0.8838,0.9942,1.0813,1.1429,1.2109,1.2485,1.1605,1.0768,0.9786,0.8666,0.7832,0.733,0.733,0.7007,0.6871,0.7124,0.6785,0.665,0.7255,0.7168,0.7368,0.8574,0.901,0.9717,1.0987,0.0,1.2005,0.0,1.2737,1.2904,1.2996,1.3066,1.3077,1.3007,1.3046,1.3152,1.3346,1.3539,1.3738,1.3931,1.4118,1.4202,1.4298,1.4298,1.4298,1.4298,1.4298,1.4298,1.4298,1.4496,1.479,0.0,1.5267,1.5547,1.5832,1.5832,1.6012,1.6299,1.6506,1.682,1.7284,0.0,0.0,0.0,0.0,0.0,0.0,-0.1344,-0.1253,-0.1239,-0.1287,-0.1282,-0.1211,-0.1009,-0.1023,-0.0953,-0.0813,-0.0818,0.0,0.0,0.0,0.0,0.0,0.0,0.0,0.0,0.0,0.1159,0.1707,0.2254,0.3345,0.4897,0.5382,0.615,0.0,0.0,0.0,0.0,0.0,0.0,0.0,0.0,0.0,0.0,0.0,0.0,0.0,0.0,0.0,0.0,0.0,0.0,0.0,0.0,0.642,0.6593,0.7496,0.8535,0.9601,0.9938,1.0442,1.0793,1.059,0.9826,0.885,0.7866,0.7219,0.6881,0.6881,0.6618,0.6535,0.712,0.689,0.6688,0.668,0.6985,0.7368,0.7816,0.8461,0.9234,0.0,0.0,1.133,1.2032,1.2689,1.3007,1.2786,1.2974,0.0,1.2775,1.2764,1.2861,1.3147,1.3147,1.3346,1.3931,1.3931,1.4022,1.4298,1.4298,1.4298,1.4298,1.4298,1.4298,1.4298,1.4298,1.4592,0.0,1.5083,1.5363,1.5832,1.5832,1.6012,1.6273,1.6279,1.6647,1.7257,0.0,0.0,0.0,0.0,0.0,0.0,-0.1299,-0.1298,-0.1227,-0.1057,-0.1138,-0.1105,-0.0843,-0.0877,-0.0871,-0.0733,-0.075,0.0,0.0,0.0,0.0,0.0,0.0,0.0,0.0,0.117,0.1453,0.1969,0.253,0.3403,0.4625,0.5066,0.5828,0.6815,0.6982,0.0,0.0,0.0,0.0,0.0,0.0,0.0,0.0,0.0,0.0,0.0,0.0,0.0,0.0,0.0,0.0,0.0,0.0,0.0,0.0,0.665,0.7627,0.8525,0.8788,0.9398,0.9848,0.9199,0.8644,0.8096,0.7219,0.6793,0.6552,0.6552,0.6486,0.6473,0.6792,0.6654,0.6587,0.6826,0.6855,0.7007,0.0,0.0,0.0,1.0037,1.1389,1.2357,0.0,0.0,1.284,1.277,1.2829,1.284,1.2764,1.2764,1.2861,1.2861,1.305,1.3147,1.3346,1.3738,1.3931,1.4022,1.4202,1.4298,1.4298,1.4298,1.4298,1.4298,1.4298,1.4496,0.0,1.4987,1.5267,1.5635,1.5737,1.6012,1.6273,1.6273,1.6513,1.6847,0.0,0.0,0.0,0.0,0.0,0.0,-0.1299,-0.1191,-0.1063,-0.1081,-0.1056,-0.0924,-0.0721,-0.0764,-0.0809,-0.0719,-0.0629,0.0,0.0,0.0,0.0,0.0,0.0,0.0,0.153,0.1609,0.1796,0.2136,0.2569,0.3241,0.4239,0.4519,0.5281,0.6426,0.6539,0.6815,0.0,0.0,0.0,0.0,0.0,0.0,0.4783,0.0,0.0,0.0,0.0,0.0,0.0,0.0,0.0,0.0,0.0,0.0,0.0,0.0,0.686,0.7455,0.7861,0.8294,0.8544,0.8065,0.7684,0.7371,0.6724,0.6501,0.642,0.642,0.642,0.6453,0.657,0.655,0.6591,0.6818,0.6871,0.6964,0.0,0.0,0.0,0.9952,0.0,0.0,0.0,1.2711,1.2764,1.2764,1.2764,1.2764,1.2764,1.2764,1.2764,1.2764,1.2958,1.305,1.3244,1.3539,1.3835,1.4022,1.4202,1.4298,1.4298,1.4298,1.4298,1.4298,1.4298,1.449,0.0,1.4987,1.5267,1.554,1.5737,1.5945,1.6119,1.6233,1.6386,1.656,0.0,0.0,0.0,0.0,0.0,0.0,0.0,-0.0988,-0.0854,-0.13,-0.0988,-0.0719,-0.0719,-0.0719,-0.0719,-0.0719,-0.0539,0.0,0.0,0.0,0.0,0.0,0.0,0.0,0.2042,0.2195,0.2295,0.2325,0.2553,0.3086,0.3811,0.3811,0.4632,0.6055,0.5987,0.6367,0.0,0.0,0.0,0.0,0.0,0.0,0.0,0.0,0.0,0.0,0.0,0.0,0.0,0.0,0.0,0.0,0.0,0.0,0.0,0.0,0.0,0.0,0.0,0.7064,0.7016,0.7185,0.6945,0.6631,0.6457,0.642,0.0,0.642,0.642,0.6424,0.6436,0.6566,0.6688,0.6729,0.7021,0.0,0.0,0.7651,0.0,0.0,1.1256,0.0,1.2393,1.2624,1.2764,1.2764,1.2764,1.2764,1.2764,1.2764,1.2764,1.2764,1.2764,1.3055,1.3443,1.3443,1.3727,1.4298,1.4298,1.4298,1.4298,1.4298,1.4298,0.0,1.4298,1.4394,0.0,1.4987,1.5267,1.5445,1.573,1.5832,1.5865,1.6139,1.6239,1.6279,0.0,0.0,0.0,0.0,0.0,0.0,0.0,0.0,0.0,0.0,-0.0764,-0.0719,-0.0719,-0.0719,-0.0719,0.0,0.0,0.0,0.0,0.0,0.0,0.0,0.0,0.0,0.2557,0.298,0.3235,0.3352,0.3922,0.4164,0.4168,0.4168,0.4969,0.6389,0.589,0.6204,0.0,0.0,0.0,0.0,0.0,0.0,0.0,0.0,0.0,0.0,0.4519,0.4718,0.0,0.0,0.0,0.0,0.0,0.0,0.0,0.0,0.6214,0.6288,0.6394,0.0,0.6534,0.6622,0.6547,0.6473,0.0,0.0,0.0,0.0,0.0,0.0,0.0,0.6664,0.6781,0.7058,0.0,0.7423,0.7423,0.0,0.0,1.0603,1.1543,1.2161,1.2425,1.2624,1.2764,1.2764,1.2764,1.2764,1.2764,1.2764,1.2764,1.2764,1.2764,1.2958,1.3147,1.3443,1.3636,1.4022,1.4208,1.4298,1.4298,1.4298,1.4298,1.4298,1.4298,1.4298,1.4394,1.4885,1.5178,1.5267,1.5642,1.5832,1.5838,1.5905,1.5932,1.5945,0.0,0.0,0.0,0.0,0.0,0.0,0.0,0.0,0.0,0.0,-0.0942,-0.086,-0.0739,-0.0819,-0.0776,0.0,0.0,0.0,0.0,0.0,0.0,0.0,0.0,0.3152,0.3407,0.3705,0.3897,0.4079,0.4353,0.4349,0.4185,0.3957,0.4522,0.5703,0.5817,0.6204,0.6691,0.686,0.0,0.0,0.5573,0.0,0.0,0.0,0.0,0.0,0.4574,0.4718,0.0,0.5218,0.5367,0.5495,0.0,0.0,0.0,0.0,0.621,0.621,0.621,0.6284,0.642,0.642,0.635,0.635,0.6416,0.0,0.0,0.0,0.0,0.0,0.0,0.6696,0.6814,0.0,0.7305,0.0,0.0,0.0,0.9384,1.0305,1.1203,1.1803,0.0,1.2592,1.2764,1.2764,1.2764,1.2764,1.2764,1.2764,1.2764,1.2764,1.2764,1.2958,1.3249,1.3443,1.3732,1.4118,1.4202,1.4298,1.4298,1.4298,1.4298,1.4298,1.4298,1.4298,1.4298,1.479,1.4987,1.5178,1.5547,1.5737,1.5832,1.5832,1.5832,1.5832,0.0,0.0,0.0,0.0,0.0,0.0,0.0,0.0,0.0,0.0,0.0,0.0,0.0,0.0,0.0,0.0,0.0,0.0,0.0,0.0,0.0,0.0,0.3363,0.3573,0.4376,0.4419,0.4516,0.4745,0.4634,0.449,0.4219,0.3884,0.4036,0.4725,0.5769,0.6209,0.6253,0.6608,0.6322,0.566,0.5549,0.0,0.0,0.0,0.0,0.0,0.0,0.0,0.0,0.5222,0.5367,0.5495,0.6017,0.0,0.0,0.0,0.0,0.0,0.6148,0.6284,0.642,0.635,0.628,0.6214,0.635,0.0,0.0,0.0,0.0,0.0,0.0,0.6741,0.0,0.0,0.0,0.0,0.7833,0.8465,0.9016,0.9481,1.0591,0.0,1.1895,1.2355,1.2662,1.2764,1.2764,1.2764,1.2764,1.2764,1.2748,1.2711,1.2711,1.2882,1.3329,1.3403,1.3732,1.4202,1.4298,1.4298,1.4298,1.4298,1.4298,1.4298,0.0,0.0,1.4298,1.4592,1.4885,1.5083,1.5356,1.5635,1.5832,1.5832,1.5832,1.5832,0.0,0.0,0.0,0.0,0.0,0.0,0.0,0.0,0.0,0.0,0.0,0.0,0.0,0.0,0.0,0.0,0.0,0.0,0.0,0.0,0.0,0.4066,0.385,0.4,0.4707,0.5147,0.5518,0.5774,0.6258,0.6019,0.5163,0.5106,0.4971,0.4725,0.5769,0.6209,0.6258,0.6773,0.6671,0.6095,0.5851,0.0,0.0,0.0,0.0,0.0,0.0,0.0,0.0,0.4979,0.5181,0.5495,0.5822,0.0,0.0,0.0,0.0,0.0,0.5954,0.6152,0.635,0.628,0.6214,0.6214,0.6214,0.0,0.0,0.0,0.0,0.0,0.0,0.694,0.7163,0.0,0.0,0.802,0.0,0.0,0.9175,0.9453,0.0,1.0863,1.1617,1.1966,1.2273,1.2764,1.2764,1.2764,1.2764,1.2764,1.2673,1.2474,1.2468,1.246,1.2525,1.3227,1.3642,1.3931,1.4202,1.4298,1.4298,1.4298,1.4298,1.4298,0.0,1.4298,1.4298,1.4592,1.4885,1.5083,1.5356,1.5635,1.5832,1.5832,1.5832,1.5832,0.0,0.0,0.0,0.0,0.0,0.0,0.0,0.0,0.0,0.0,0.0,0.0,0.0,0.0,0.0,0.0,0.0,0.0,0.0,0.0,0.3718,0.4318,0.436,0.465,0.522,0.5487,0.5743,0.6095,0.6036,0.5806,0.5354,0.5072,0.4748,0.4453,0.5007,0.5281,0.5336,0.6209,0.6322,0.5887,0.0,0.0,0.0,0.0,0.0,0.0,0.0,0.0,0.0,0.0,0.506,0.5315,0.5657,0.0,0.0,0.0,0.0,0.0,0.5888,0.6024,0.6152,0.6214,0.621,0.6214,0.628,0.0,0.0,0.0,0.0,0.0,0.0,0.0,0.7139,0.7334,0.0,0.8223,0.8394,0.856,0.8787,0.0,0.0,1.0116,1.0988,1.1462,1.1957,1.2565,1.2452,1.2436,1.2571,1.2452,1.2328,1.2221,1.2215,1.2254,1.2232,1.2636,1.3102,1.3524,1.3661,1.3761,1.3892,1.3992,1.4087,1.4093,0.0,1.4298,1.4298,1.4394,1.4688,1.4885,1.5172,1.5452,1.5635,1.573,1.5832,1.5832,0.0,0.0,0.0,0.0,0.0,0.0,0.0,0.0,0.0,0.0,0.0,0.0,0.0,0.0,0.0,0.0,0.0,0.0,0.0,0.4488,0.4501,0.4522,0.4892,0.5242,0.551,0.5707,0.5941,0.6209,0.5837,0.5567,0.5513,0.5014,0.4625,0.4401,0.4567,0.4625,0.457,0.5555,0.5832,0.5508,0.0,0.0,0.0,0.0,0.0,0.0,0.0,0.0,0.0,0.0,0.0,0.0,0.0,0.0,0.0,0.555,0.5617,0.5617,0.5818,0.5888,0.5954,0.6148,0.621,0.0,0.0,0.0,0.0,0.0,0.0,0.0,0.0,0.69,0.0,0.7484,0.7963,0.8304,0.8349,0.8426,0.8564,0.8792,0.9097,0.9602,1.0362,1.0944,1.1482,1.2125,1.2151,1.2129,1.2318,1.2151,1.2113,1.1968,1.1968,1.1941,1.1887,1.2062,1.2484,1.3153,1.3152,1.3341,1.3531,1.3716,1.3815,1.3827,1.4093,1.4208,1.4208,1.4268,1.449,1.4688,1.4987,1.5267,1.5635,1.573,1.5832,1.5832,0.0,0.0,0.0,0.0,0.0,0.0,0.0,0.0,0.0,0.0,0.0,0.0,0.0,0.0,0.0,0.0,0.0,0.0,0.0,0.4515,0.4508,0.4519,0.5269,0.5588,0.5316,0.5991,0.6268,0.6209,0.6485,0.6431,0.6154,0.5828,0.5391,0.4842,0.5117,0.4952,0.4519,0.5117,0.5332,0.5281,0.5062,0.0,0.0,0.0,0.0,0.0,0.0,0.0,0.0,0.0,0.0,0.0,0.0,0.0,0.5428,0.555,0.5617,0.5617,0.5617,0.5752,0.5954,0.6148,0.621,0.0,0.6351,0.6523,0.0,0.695,0.0,0.0,0.0,0.6834,0.72,0.7733,0.8052,0.8349,0.8524,0.0,0.8986,0.8836,0.8962,0.9347,0.993,1.0389,1.0857,1.1426,1.1875,1.2145,1.2167,1.2145,1.1951,1.1731,1.1725,1.1623,1.1402,1.1402,1.1894,1.2808,1.3071,1.3344,1.3544,1.3544,1.3544,1.3556,1.3821,1.3936,1.3954,1.4195,1.449,1.4688,1.4987,1.5363,1.5737,1.5825,1.5832,1.5832,0.0,0.0,0.0,0.0,0.0,0.0,0.0,0.0,0.0,0.0,0.0,0.0,0.0,0.0,0.0,0.0,0.0,0.0,0.0,0.4584,0.4581,0.4519,0.5117,0.5336,0.5062,0.5882,0.6159,0.595,0.6059,0.6277,0.6485,0.5664,0.5226,0.5117,0.4405,0.4076,0.3968,0.4401,0.4673,0.4791,0.4794,0.4794,0.0,0.0,0.0,0.0,0.0,0.0,0.0,0.0,0.4813,0.5023,0.5233,0.5346,0.5428,0.5491,0.5554,0.5617,0.5617,0.5815,0.6083,0.6214,0.628,0.0,0.0,0.6765,0.6909,0.6802,0.7054,0.0,0.0,0.0,0.7224,0.7537,0.8081,0.8446,0.8402,0.8609,0.8698,0.8511,0.845,0.864,0.9279,0.9463,0.9921,1.0624,1.0969,1.1154,1.1154,1.143,1.1435,1.1047,1.1176,1.1144,1.0907,1.0985,1.1399,1.2083,1.233,1.2668,1.2998,1.3183,1.3272,1.329,1.355,1.3755,1.3912,1.4014,1.4242,1.449,1.4885,1.5363,1.5832,1.5832,1.5832,1.5832,0.0,0.0,0.0,0.0,0.0,0.0,0.0,0.0,0.0,0.0,0.0,0.0,0.0,0.0,0.0,0.0,0.0,0.0,0.419,0.4301,0.4463,0.4684,0.5062,0.5226,0.512,0.5723,0.6005,0.5795,0.6009,0.6223,0.6376,0.5605,0.5171,0.5007,0.4073,0.3635,0.3638,0.391,0.4073,0.4242,0.4353,0.4408,0.0,0.0,0.0,0.0,0.0,0.0,0.0,0.0,0.4582,0.487,0.4954,0.5101,0.5287,0.5287,0.5384,0.5554,0.5554,0.5749,0.6013,0.6083,0.0,0.0,0.6708,0.6933,0.7023,0.6944,0.7188,0.7366,0.7248,0.0,0.0,0.0,0.7947,0.8288,0.8215,0.8264,0.8284,0.8211,0.8044,0.8168,0.8598,0.8787,0.9235,0.9937,1.0253,1.0513,1.0598,1.0863,1.0893,1.0649,1.0789,1.0799,1.0638,1.0713,1.1039,1.1458,1.1718,1.206,1.2726,1.2901,1.2988,1.3006,1.3272,1.3495,1.3664,1.3749,1.4029,1.4456,1.4848,1.5279,1.5832,1.5832,1.5832,1.5832,0.0,0.0,0.0,0.0,0.0,0.0,0.0,0.0,0.0,0.0,0.0,0.0,0.0,0.0,0.0,0.0,0.0,0.0,0.3561,0.3569,0.407,0.5069,0.523,0.5391,0.5567,0.5736,0.5795,0.5795,0.6381,0.6376,0.5773,0.5928,0.5441,0.4463,0.4291,0.3962,0.3585,0.3585,0.3585,0.3638,0.3744,0.3796,0.3796,0.0,0.0,0.0,0.0,0.0,0.0,0.0,0.44,0.4718,0.4686,0.4889,0.5068,0.5131,0.524,0.5428,0.5428,0.5488,0.5683,0.5822,0.0,0.0,0.6867,0.7023,0.7126,0.7407,0.7342,0.7224,0.7224,0.7078,0.0,0.7423,0.7638,0.7817,0.7979,0.7862,0.7817,0.7983,0.7854,0.7821,0.7988,0.8423,0.8837,0.9241,0.9725,1.0136,1.0552,1.0552,1.0632,1.0627,1.0632,1.0632,1.0627,1.0632,1.0713,1.0961,1.1197,1.1782,1.2699,1.2699,1.2699,1.2717,1.3,1.3121,1.3145,1.3405,1.3939,1.4731,1.4731,1.5184,1.5825,1.5825,1.5825,1.5832,0.0,0.0,0.0,0.0,0.0,0.0,0.0,0.0,0.0,0.0,0.0,0.0,0.0,0.0,0.0,0.0,0.0,0.0,0.2956,0.3347,0.3793,0.4184,0.4732,0.5066,0.5234,0.5395,0.5449,0.5449,0.5332,0.5273,0.5273,0.4889,0.456,0.4291,0.3683,0.3466,0.3585,0.3527,0.3527,0.3585,0.3638,0.3635,0.3694,0.0,0.0,0.0,0.0,0.0,0.0,0.0,0.0,0.0,0.4655,0.4895,0.5157,0.5291,0.5453,0.5488,0.5428,0.569,0.0,0.5888,0.0,0.0,0.0,0.6929,0.0,0.0,0.7244,0.7074,0.7204,0.7183,0.0,0.7285,0.7561,0.7691,0.7488,0.7521,0.7492,0.7289,0.7298,0.7405,0.7732,0.8112,0.8488,0.9021,0.9423,0.9741,0.9905,1.0232,1.0315,1.0137,1.0304,1.0309,1.0132,1.0286,1.0445,1.0695,1.0942,1.1445,1.2176,1.2344,1.253,1.2705,1.2789,1.294,1.3145,1.3591,1.401,1.4345,1.4533,1.4983,1.5524,1.5524,1.5651,1.5832,0.0,0.0,0.0,0.0,0.0,0.0,0.0,0.0,0.0,0.0,0.0,0.0,0.0,0.0,0.0,0.0,0.0,0.0,0.0,0.2681,0.3236,0.4067,0.4398,0.4787,0.5348,0.5289,0.5171,0.5058,0.4944,0.4835,0.4725,0.434,0.4012,0.3849,0.3408,0.3357,0.3585,0.3527,0.3527,0.3588,0.3634,0.3651,0.3707,0.0,0.0,0.0,0.0,0.0,0.0,0.0,0.0,0.0,0.4464,0.4718,0.5075,0.5205,0.5377,0.5488,0.5428,0.5756,0.0,0.5954,0.6102,0.6339,0.644,0.0,0.0,0.0,0.7313,0.7196,0.7309,0.7212,0.0,0.7119,0.7297,0.7366,0.7147,0.7147,0.7114,0.704,0.6962,0.6986,0.7381,0.7577,0.7847,0.8339,0.8798,0.9095,0.9251,0.9727,0.9943,0.9787,1.0019,1.0073,0.9922,0.9992,1.0138,1.0357,1.0522,1.097,1.1601,1.1869,1.2158,1.2397,1.2499,1.2644,1.2819,1.3354,1.3787,1.4059,1.4333,1.4777,1.5224,1.5224,1.5337,1.5504,0.0,0.0,0.0,0.0,0.0,0.0,0.0,0.0,0.0,0.0,0.1239,0.0,0.0,0.0,0.0,0.0,0.0,0.0,0.0,0.179,0.2567,0.4223,0.4171,0.4622,0.5795,0.5348,0.4956,0.4725,0.4889,0.467,0.4122,0.3953,0.3735,0.3413,0.3413,0.3471,0.3585,0.3585,0.3585,0.3593,0.3754,0.3796,0.3796,0.3796,0.0,0.0,0.0,0.0,0.0,0.0,0.0,0.0,0.4191,0.4552,0.4906,0.5091,0.525,0.5428,0.5428,0.5627,0.5888,0.5888,0.6032,0.0,0.6195,0.6777,0.7391,0.7407,0.0,0.7435,0.7435,0.7171,0.7023,0.7023,0.7023,0.7015,0.6978,0.6769,0.6717,0.6913,0.6717,0.6684,0.6909,0.6954,0.7186,0.7544,0.7906,0.8272,0.8654,0.919,0.9534,0.9577,0.9782,0.99,0.9922,0.9922,0.9922,0.9922,1.0067,1.0416,1.0884,1.1373,1.1662,1.1932,1.2174,1.2288,1.233,1.2831,1.3347,1.3767,1.4041,1.4487,1.4923,1.4923,1.4943,1.4997,0.0,0.0,0.0,0.0,0.0,0.0,0.0,0.0,0.0,0.0,0.0,0.0,0.0,0.0,0.0,0.0,0.0,0.0,0.0,0.179,0.2124,0.2899,0.3959,0.4963,0.5795,0.5234,0.4842,0.4725,0.4395,0.3953,0.3352,0.3297,0.3352,0.3413,0.3413,0.3471,0.3585,0.3585,0.3585,0.3588,0.361,0.3621,0.3621,0.3621,0.3621,0.0,0.0,0.0,0.0,0.0,0.0,0.0,0.4351,0.4631,0.492,0.5245,0.5335,0.5428,0.5428,0.5627,0.0,0.5888,0.6125,0.6286,0.6006,0.631,0.6688,0.6834,0.6972,0.7138,0.7138,0.7077,0.7023,0.7023,0.7023,0.6925,0.657,0.6501,0.6388,0.6144,0.6083,0.6195,0.6474,0.6815,0.7123,0.7465,0.7749,0.8122,0.8649,0.8597,0.8899,0.9567,0.9626,0.9739,0.9916,0.9922,0.9922,0.9922,0.9922,1.017,1.061,1.1105,1.149,1.1926,1.198,1.2125,1.2318,1.2794,1.3239,1.3572,1.392,1.4355,1.4616,1.4616,1.4763,1.497,0.0,0.0,0.0,0.0,0.0,0.0,0.0,0.0,0.0,0.0,0.0,0.0,0.0,0.0,0.0,0.0,0.0,0.0,0.0,0.0,0.1789,0.2732,0.4015,0.5022,0.5795,0.5513,0.5066,0.4622,0.4343,0.3849,0.3074,0.3074,0.3132,0.3244,0.3413,0.3527,0.3527,0.3583,0.3585,0.3588,0.3642,0.3721,0.3721,0.3721,0.3721,0.3716,0.3604,0.0,0.0,0.0,0.0,0.0,0.0,0.0,0.4806,0.4996,0.5132,0.525,0.525,0.0,0.0,0.5837,0.0,0.6217,0.5949,0.6034,0.6193,0.629,0.6513,0.6696,0.6696,0.6696,0.6668,0.665,0.6634,0.6539,0.6201,0.6164,0.6095,0.5908,0.5888,0.5944,0.6121,0.6433,0.6668,0.6861,0.7179,0.7476,0.7787,0.8112,0.8536,0.918,0.9446,0.969,0.9916,0.9922,0.9922,0.9922,0.9922,1.0143,1.0519,1.0959,1.1254,1.154,1.1673,1.1811,1.195,1.2488,1.2864,1.3201,1.3618,1.3971,1.4315,1.4315,1.4409,1.4563,0.0,0.0,0.0,0.0,0.0,0.0,0.0,0.0,0.0,0.0,0.0,0.0,0.0,0.0,0.0,0.0,0.0,0.0,0.0,0.0,0.0,0.3174,0.4125,0.4967,0.5795,0.574,0.5297,0.4519,0.446,0.3962,0.3074,0.3077,0.3132,0.3188,0.3471,0.3527,0.3413,0.3527,0.3583,0.3593,0.3686,0.3724,0.3782,0.3782,0.3782,0.3771,0.3618,0.3596,0.361,0.3591,0.0,0.0,0.0,0.0,0.4717,0.4677,0.481,0.5034,0.5061,0.0,0.5541,0.577,0.5978,0.0,0.5929,0.5864,0.5839,0.5839,0.6099,0.6327,0.6327,0.6327,0.6278,0.6186,0.6162,0.6104,0.5864,0.5839,0.5831,0.5858,0.5854,0.5866,0.5955,0.6121,0.6237,0.6207,0.6578,0.6881,0.7012,0.7755,0.8356,0.8733,0.9209,0.9567,0.9793,0.9798,0.9798,0.9798,0.9798,1.0066,1.0438,1.084,1.0995,1.1123,1.1359,1.1486,1.1552,1.2012,1.25,1.2921,1.3212,1.3539,1.3931,1.4068,1.4088,1.4122,0.0,0.0,0.0,0.0,0.0,0.0,0.0,0.0,0.0,0.0,0.0,0.0,0.0,0.0,0.0,0.0,0.0,0.0,0.0,0.0,0.0,0.384,0.4018,0.4632,0.5795,0.5521,0.5073,0.4519,0.4346,0.3849,0.3074,0.297,0.314,0.3527,0.3471,0.3471,0.3583,0.3471,0.3471,0.3585,0.3487,0.3548,0.3607,0.3607,0.3607,0.3604,0.3591,0.3648,0.3773,0.3618,0.374,0.0,0.0,0.0,0.4291,0.4494,0.4555,0.4661,0.4851,0.0,0.5758,0.0,0.586,0.6162,0.0,0.0,0.5649,0.0,0.5815,0.5957,0.5957,0.5957,0.5953,0.5929,0.5921,0.586,0.5673,0.5649,0.5706,0.578,0.5819,0.588,0.6041,0.6232,0.6292,0.6195,0.6379,0.6745,0.7396,0.755,0.7996,0.8837,0.8942,0.9071,0.9297,0.9297,0.9297,0.9297,0.9455,0.9818,1.0288,1.0448,1.076,1.1111,1.1148,1.1304,1.1534,1.1809,1.2139,1.2487,1.3052,1.3339,1.348,1.3904,1.4088,1.4095,0.0,0.0,0.0,0.0,0.0,0.0,0.0,0.0,0.0,0.0,0.0,0.0,0.0,0.0,0.0,0.0,0.0,0.0,0.0,0.0,0.0,0.3735,0.4184,0.4743,0.5521,0.5352,0.4963,0.4242,0.4132,0.3685,0.297,0.2858,0.3135,0.3691,0.3469,0.3469,0.3577,0.3524,0.3527,0.3471,0.3527,0.3747,0.4079,0.3749,0.3805,0.4079,0.3694,0.3615,0.3707,0.3602,0.3694,0.3814,0.3812,0.0,0.0,0.0,0.4309,0.4542,0.4647,0.5051,0.5445,0.0,0.5628,0.588,0.6068,0.5896,0.5766,0.5766,0.5746,0.5734,0.5734,0.591,0.6028,0.6028,0.6145,0.6191,0.5987,0.5956,0.5985,0.6009,0.6,0.6037,0.6174,0.6315,0.6456,0.6528,0.6665,0.7016,0.7451,0.7657,0.8017,0.8576,0.8794,0.8974,0.92,0.9206,0.9206,0.9206,0.9281,0.9466,0.9818,0.9999,1.0442,1.0962,1.1037,1.1184,1.1298,1.1374,1.1692,1.212,1.2397,1.2872,1.3307,1.3362,1.3612,1.3814,0.0,0.0,0.0,0.0,0.0,0.0,0.0,0.0,0.0,0.0,0.0,0.0,0.0,0.0,0.0,0.0,0.0,0.0,0.0,0.0,0.0,0.3627,0.4184,0.4688,0.5242,0.5187,0.4798,0.4024,0.4021,0.3633,0.2916,0.2914,0.3244,0.3796,0.3413,0.3355,0.3574,0.3469,0.3469,0.3413,0.358,0.3965,0.4463,0.4079,0.432,0.4741,0.4297,0.4017,0.3904,0.3904,0.3835,0.3754,0.361,0.3823,0.0,0.0,0.0,0.4359,0.0,0.0,0.5148,0.5225,0.5389,0.5691,0.0,0.0,0.5843,0.0,0.5811,0.5681,0.5793,0.5948,0.6058,0.6111,0.628,0.6393,0.6232,0.6209,0.6209,0.6317,0.6317,0.6341,0.6394,0.6492,0.6673,0.6818,0.6969,0.722,0.7505,0.7827,0.8128,0.8353,0.8636,0.8856,0.9028,0.9028,0.906,0.9114,0.906,0.9162,0.9427,0.9644,0.999,1.0551,1.0837,1.1051,1.1111,1.1111,1.1313,1.1744,1.1818,1.2334,1.3004,1.2942,1.3187,1.35,0.0,0.0,0.0,0.0,0.0,0.0,0.0,0.0,0.0,0.0,0.0,0.0,0.2689,0.3646,0.3925,0.2738,0.2125,0.0,0.0,0.0,0.0,0.3741,0.3852,0.0,0.5069,0.4853,0.4467,0.4024,0.4128,0.3741,0.2916,0.3352,0.3627,0.3796,0.3193,0.3081,0.3413,0.3188,0.3244,0.3413,0.3688,0.4073,0.4515,0.4736,0.5162,0.5641,0.5584,0.5239,0.4725,0.4725,0.4241,0.3593,0.3585,0.3593,0.3655,0.0,0.0,0.0,0.0,0.4497,0.0,0.4805,0.5159,0.5627,0.0,0.0,0.5722,0.6125,0.5994,0.5988,0.628,0.6046,0.5914,0.6173,0.6223,0.6218,0.6209,0.6209,0.6317,0.6647,0.6647,0.6733,0.6837,0.6867,0.6851,0.6773,0.6974,0.7221,0.7549,0.7876,0.8122,0.8468,0.8533,0.8538,0.8549,0.8549,0.8662,0.8945,0.8657,0.8781,0.9195,0.9378,0.9559,0.9903,1.0492,1.0882,1.1111,1.1111,1.1117,1.116,1.1661,1.2023,1.2312,1.2719,1.3061,1.3233,0.0,0.0,0.0,0.0,0.0,0.0,0.0,0.0,0.0,0.0,0.0,0.0,0.0,0.3314,0.2856,0.2573,0.1736,0.0,0.0,0.0,0.0,0.4024,0.4408,0.4794,0.5069,0.5073,0.4857,0.4467,0.4187,0.3799,0.3249,0.3413,0.3357,0.3249,0.3299,0.3408,0.3519,0.3355,0.3244,0.3231,0.3564,0.4128,0.4769,0.4666,0.5124,0.0,0.0,0.0,0.5094,0.4706,0.4396,0.4135,0.3749,0.3585,0.3638,0.3691,0.3775,0.0,0.0,0.0,0.0,0.465,0.4842,0.5121,0.5624,0.5712,0.57,0.5953,0.608,0.6237,0.6727,0.6625,0.6515,0.6665,0.6986,0.7146,0.6797,0.7063,0.7198,0.7165,0.7281,0.7402,0.7491,0.7307,0.7375,0.769,0.7411,0.7439,0.785,0.7742,0.7852,0.8187,0.8182,0.8252,0.8517,0.8517,0.8554,0.8641,0.8554,0.8668,0.8953,0.9062,0.9363,0.9764,1.0218,1.0622,1.0858,1.0858,1.096,1.1117,1.1452,1.1834,1.2222,1.2279,1.2593,1.2886,0.0,0.0,0.0,0.0,0.0,0.0,0.0,0.0,0.0,0.4855,0.0,0.0,0.0,0.0,0.335,0.3074,0.2458,0.2345,0.2905,0.3072,0.3408,0.3965,0.4463,0.4849,0.5014,0.5018,0.4912,0.4691,0.4411,0.3968,0.3413,0.3691,0.3524,0.2916,0.3466,0.3574,0.3352,0.3246,0.3135,0.3065,0.3609,0.4224,0.482,0.4923,0.0,0.0,0.0,0.0,0.0,0.5266,0.4739,0.4246,0.3767,0.3627,0.3638,0.0,0.0,0.0,0.38,0.0,0.0,0.0,0.4671,0.4846,0.5281,0.5405,0.5557,0.58,0.5977,0.6283,0.6917,0.7015,0.7072,0.7264,0.7581,0.7688,0.737,0.7602,0.7742,0.7528,0.7704,0.7801,0.7801,0.7661,0.7698,0.8072,0.7654,0.0,0.7861,0.7618,0.7657,0.7987,0.8117,0.8252,0.8517,0.8517,0.8517,0.8517,0.8517,0.8576,0.8835,0.8958,0.9179,0.9556,0.9922,1.0315,1.0725,1.0816,1.0954,1.1111,1.1335,1.1677,1.2062,1.2006,1.2276,1.2565,0.0,0.0,0.0,0.0,0.0,0.0,0.0,0.0,0.4945,0.4489,0.0,0.0,0.0,0.0,0.0,0.4343,0.4336,0.3947,0.2845,0.3292,0.3624,0.3624,0.0,0.0,0.4901,0.4625,0.4574,0.4691,0.4691,0.4245,0.3469,0.4301,0.4079,0.2972,0.3691,0.358,0.2916,0.2916,0.2916,0.297,0.3843,0.4391,0.4791,0.0,0.0,0.0,0.7379,0.72,0.0,0.6341,0.0,0.0,0.0,0.0,0.0,0.0,0.0,0.0,0.0,0.0,0.0,0.0,0.0,0.0,0.4886,0.0,0.5222,0.5612,0.5812,0.6108,0.678,0.7167,0.7551,0.7751,0.7812,0.7817,0.7801,0.7812,0.7817,0.7812,0.7817,0.7822,0.7822,0.7812,0.7812,0.7817,0.7665,0.7601,0.7606,0.7545,0.7657,0.7982,0.8317,0.8517,0.8511,0.8517,0.8517,0.8517,0.8517,0.8576,0.8835,0.8958,0.9081,0.9338,0.9426,0.9922,1.0719,1.0979,1.1099,1.1111,1.1335,1.1558,1.1706,1.1929,1.2157,1.2305,0.0,0.0,0.0,0.0,0.0,0.5415,0.5415,0.5466,0.5507,0.0,0.0,0.0,0.4952,0.5043,0.5062,0.4889,0.4498,0.4549,0.5214,0.4553,0.4391,0.4838,0.4629,0.4577,0.4743,0.4849,0.4959,0.4963,0.4798,0.4522,0.4187,0.4463,0.4135,0.3416,0.3916,0.386,0.3363,0.3028,0.3079,0.3448,0.3752,0.4167,0.0,0.0,0.0,0.0,0.0,0.7081,0.7042,0.0,0.5695,0.5671,0.0,0.0,0.0,0.0,0.0,0.0,0.3638,0.0,0.0,0.0,0.0,0.0,0.0,0.0,0.4879,0.5193,0.5427,0.5685,0.6107,0.6386,0.6793,0.7467,0.7968,0.8199,0.7849,0.8097,0.8248,0.8131,0.821,0.8318,0.8318,0.8156,0.8124,0.0,0.784,0.7666,0.7886,0.7887,0.7787,0.7657,0.8182,0.8382,0.8117,0.8382,0.8517,0.8517,0.8517,0.8576,0.8835,0.8958,0.9081,0.935,0.9676,0.9886,1.0107,1.0435,1.0767,1.1111,1.1484,1.1632,1.1706,1.2077,1.2231,1.2305,0.0,0.0,0.0,0.0,0.0,0.5159,0.5159,0.5371,0.5458,0.0,0.0,0.0,0.6116,0.5956,0.5769,0.566,0.5429,0.5538,0.61,0.5492,0.5214,0.5277,0.5066,0.4849,0.4691,0.4853,0.4963,0.5124,0.4963,0.4798,0.4574,0.4684,0.4353,0.3691,0.4027,0.4082,0.3805,0.3363,0.3357,0.0,0.3794,0.0,0.0,0.5274,0.594,0.0,0.0,0.0,0.7057,0.6164,0.581,0.0,0.0,0.0,0.0,0.0,0.0,0.0,0.0,0.0,0.0,0.0,0.0,0.0,0.4341,0.4358,0.4335,0.0,0.4706,0.516,0.5687,0.6335,0.688,0.7284,0.7888,0.8308,0.8142,0.8339,0.8463,0.8318,0.8425,0.8447,0.8317,0.8191,0.8101,0.8107,0.7614,0.7338,0.7326,0.7466,0.7466,0.7265,0.7792,0.7987,0.7787,0.8117,0.8317,0.8317,0.8447,0.8576,0.877,0.8894,0.9081,0.928,0.9569,0.9766,0.9886,1.0036,1.0411,1.0942,1.1345,1.1608,1.1694,1.2111,1.2305,1.2305,0.0,0.0,0.548,0.5674,0.5328,0.5029,0.5029,0.5222,0.5184,0.0,0.5706,0.6589,0.6999,0.7187,0.7095,0.6549,0.6804,0.675,0.6218,0.6268,0.6046,0.5496,0.5386,0.512,0.4798,0.4743,0.4798,0.5069,0.5069,0.4959,0.4691,0.4959,0.4684,0.3907,0.419,0.0,0.4249,0.386,0.0,0.3694,0.3913,0.4273,0.0,0.0,0.5916,0.6647,0.6769,0.6969,0.7052,0.6713,0.5718,0.0,0.0,0.0,0.0,0.0,0.3555,0.0,0.0,0.0,0.0,0.0,0.0,0.0,0.372,0.3739,0.3754,0.0,0.397,0.4618,0.5329,0.6462,0.723,0.6957,0.75,0.8031,0.8296,0.8372,0.8452,0.8441,0.8447,0.8382,0.8052,0.8052,0.7917,0.7652,0.7269,0.6881,0.6548,0.6815,0.6946,0.6881,0.7265,0.7521,0.7521,0.7852,0.7987,0.8052,0.8382,0.8582,0.877,0.877,0.8958,0.9274,0.9274,0.9474,0.9826,0.9826,1.0135,1.0628,1.1083,1.1339,1.1611,1.2085,1.2278,1.2305,0.0,0.6246,0.6033,0.5744,0.5443,0.5226,0.5226,0.547,0.5591,0.5495,0.6175,0.6651,0.6794,0.6972,0.7144,0.7149,0.7306,0.7402,0.7348,0.7079,0.6864,0.6756,0.5823,0.5281,0.5171,0.4849,0.4743,0.4798,0.4904,0.4846,0.4691,0.4849,0.4791,0.4522,0.468,0.4684,0.4581,0.0,0.0,0.4298,0.419,0.0,0.4762,0.5418,0.59,0.6337,0.6467,0.6697,0.6889,0.6595,0.5575,0.4416,0.0,0.0,0.0,0.3431,0.0,0.0,0.0,0.0,0.0,0.0,0.0,0.0,0.407,0.4039,0.3987,0.0,0.4205,0.431,0.4564,0.5065,0.5553,0.5935,0.6108,0.6524,0.7379,0.7754,0.7958,0.8076,0.8317,0.8452,0.8382,0.8182,0.8117,0.8317,0.7987,0.7661,0.7326,0.733,0.7269,0.6881,0.7265,0.7521,0.7521,0.7852,0.8117,0.8382,0.8452,0.8511,0.8582,0.8705,0.8835,0.8899,0.9017,0.9174,0.9415,0.9415,0.9759,1.0402,1.0666,1.0955,1.1371,1.1644,1.1952,1.2305,0.7168,0.679,0.6581,0.6287,0.5815,0.5597,0.5869,0.5733,0.5692,0.585,0.641,0.6875,0.6996,0.7435,0.7783,0.7842,0.7783,0.7723,0.7771,0.7515,0.7192,0.6864,0.6263,0.5882,0.5668,0.5454,0.5293,0.5128,0.5234,0.5124,0.4908,0.4901,0.4901,0.4908,0.4901,0.4846,0.4794,0.0,0.468,0.468,0.4463,0.0,0.4988,0.5424,0.5743,0.608,0.6331,0.6515,0.6634,0.6065,0.5411,0.0,0.4368,0.4007,0.371,0.0,0.3503,0.3542,0.0,0.0,0.0,0.3781,0.0,0.0,0.0,0.3611,0.3559,0.3652,0.3826,0.4085,0.4431,0.5093,0.5634,0.5734,0.5758,0.5966,0.6454,0.6895,0.7196,0.7254,0.7554,0.7832,0.7881,0.7778,0.7744,0.7972,0.7852,0.7591,0.7199,0.7396,0.733,0.6881,0.7265,0.7521,0.7521,0.7852,0.8052,0.8252,0.8452,0.8517,0.8517,0.8582,0.8705,0.8835,0.8894,0.9081,0.9274,0.9274,0.9563,0.9952,1.0288,1.0629,1.0899,1.1179,1.1553,1.1939,0.8425,0.7671,0.7201,0.7101,0.6476,0.61,0.6595,0.6216,0.595,0.6318,0.6918,0.7379,0.7581,0.8296,0.8725,0.8725,0.8203,0.7964,0.8171,0.7687,0.7141,0.6712,0.663,0.6372,0.5937,0.5941,0.5891,0.5677,0.5567,0.5403,0.5179,0.5011,0.4956,0.5069,0.5014,0.4956,0.4956,0.0,0.0,0.4897,0.0,0.4815,0.5224,0.532,0.5596,0.5895,0.6198,0.6361,0.6276,0.5584,0.536,0.5217,0.4422,0.4197,0.0,0.0,0.0,0.0,0.0,0.0,0.0,0.0,0.0,0.3452,0.0,0.0,0.0,0.0,0.0,0.0,0.4418,0.0,0.0,0.0,0.0,0.0,0.0,0.5878,0.0,0.6443,0.6697,0.6939,0.7198,0.7289,0.7279,0.725,0.7349,0.7199,0.6815,0.7199,0.7269,0.6881,0.7265,0.7521,0.7591,0.7852,0.8052,0.8117,0.8382,0.8517,0.8517,0.8517,0.8576,0.877,0.877,0.8958,0.9274,0.9274,0.9408,0.9566,0.9915,1.0224,1.0438,1.071,1.1128,1.1592,1.0422,0.9017,0.816,0.8116,0.7405,0.6937,0.7269,0.6959,0.6936,0.7611,0.8332,0.8783,0.8817,0.9422,0.9828,0.9828,0.8666,0.8261,0.9172,0.7704,0.6886,0.7031,0.674,0.6317,0.5684,0.577,0.5887,0.5946,0.5399,0.5289,0.5508,0.512,0.4956,0.5124,0.5187,0.5183,0.0,0.0,0.5011,0.0,0.5014,0.5085,0.0,0.5331,0.5517,0.5644,0.5822,0.5927,0.5996,0.0,0.5474,0.5375,0.0,0.4455,0.4298,0.3808,0.0,0.0,0.0,0.0,0.0,0.0,0.3268,0.0,0.0,0.0,0.3452,0.3678,0.0,0.0,0.0,0.0,0.0,0.0,0.0,0.0,0.4472,0.4839,0.5399,0.633,0.6038,0.6096,0.6951,0.7203,0.7036,0.6423,0.6749,0.6815,0.6482,0.6815,0.6946,0.6881,0.7265,0.7657,0.7917,0.7987,0.8117,0.8447,0.8511,0.8517,0.8517,0.8517,0.8517,0.8517,0.8705,0.8894,0.9017,0.921,0.9408,0.9484,0.9578,0.9866,1.0238,1.0504,1.1058,1.1618,1.2191,1.0691,0.981,1.0022,0.892,0.8194,0.8608,0.7973,0.7419,0.7422,0.8143,0.8672,0.8672,0.934,0.0,0.0,0.0,0.884,0.0,0.0,0.7107,0.7698,0.7206,0.6781,0.6598,0.6617,0.6539,0.6376,0.61,0.5882,0.5723,0.55,0.5449,0.5517,0.5572,0.0,0.5517,0.0,0.5344,0.0,0.0,0.0,0.0,0.5326,0.5462,0.5626,0.5746,0.5857,0.5973,0.0,0.5605,0.0,0.0,0.0,0.0,0.4098,0.0,0.0,0.0,0.0,0.0,0.0,0.0,0.0,0.3413,0.0,0.3469,0.0,0.0,0.0,0.0,0.0,0.0,0.0,0.433,0.0,0.0,0.0,0.4349,0.0,0.0,0.0,0.6489,0.6701,0.6653,0.6261,0.6771,0.6804,0.6267,0.6885,0.7138,0.6881,0.7265,0.7591,0.7722,0.7722,0.7787,0.7922,0.8117,0.8187,0.8187,0.8382,0.8517,0.8517,0.8576,0.877,0.9017,0.9081,0.928,0.9484,0.9484,0.9615,0.9788,0.9898,1.038,1.0992,1.4686,0.0,1.2113,1.2456,1.099,0.9742,0.9677,0.8926,0.8268,0.7973,0.8459,0.8944,0.9314,1.0143,0.0,0.0,1.0806,1.0364,0.0,0.0,0.7903,0.8108,0.7646,0.7178,0.6718,0.7048,0.709,0.681,0.6647,0.6376,0.6105,0.5941,0.5891,0.59,0.5845,0.5845,0.5845,0.0,0.5622,0.5567,0.5458,0.5352,0.5297,0.5297,0.5407,0.5517,0.5681,0.5845,0.5932,0.5841,0.5795,0.0,0.5549,0.0,0.5186,0.0,0.0,0.0,0.4077,0.0,0.0,0.0,0.0,0.0,0.0,0.0,0.0,0.0,0.0,0.0,0.0,0.0,0.0,0.0,0.0,0.4109,0.0,0.4047,0.0,0.0,0.0,0.0,0.0,0.6054,0.6139,0.6008,0.6423,0.6497,0.597,0.6716,0.7031,0.6876,0.7265,0.7521,0.7521,0.7521,0.7521,0.7657,0.7852,0.8052,0.8117,0.8382,0.8517,0.8517,0.8582,0.8705,0.8952,0.9017,0.9215,0.9478,0.9484,0.9484,0.949,0.9627,1.004,1.0584,1.8313,1.6605,0.0,1.5493,1.3752,1.1734,1.0039,0.9663,0.9671,0.0,0.0,0.0,0.0,0.0,0.0,0.0,0.0,1.3283,1.3908,0.0,0.9436,0.7968,0.8084,0.7226,0.5203,0.6423,0.7144,0.7257,0.6712,0.6549,0.6879,0.6277,0.6055,0.6209,0.605,0.6,0.6005,0.5845,0.5736,0.5622,0.5567,0.5458,0.5297,0.0,0.5301,0.5352,0.5513,0.0,0.0,0.5941,0.605,0.0,0.0,0.0,0.0,0.0,0.0,0.0,0.0,0.0,0.0,0.3899,0.0,0.0,0.0,0.0,0.3188,0.0,0.0,0.0,0.0,0.0,0.0,0.0,0.0,0.0,0.0,0.0,0.0,0.0,0.0,0.0,0.0,0.5397,0.5575,0.0,0.5324,0.5445,0.5604,0.5974,0.6362,0.6863,0.7265,0.7521,0.7521,0.7521,0.7657,0.7987,0.7987,0.8187,0.8511,0.8517,0.8517,0.8517,0.8705,0.877,0.8835,0.9151,0.9274,0.9338,0.9478,0.9484,0.9578,1.003,1.0327,1.0616,0.0,0.0,0.0,0.0,0.0,1.4441,1.2986,1.1407,0.0,0.0,1.1822,0.0,0.0,1.3152,1.3866,0.0,0.0,1.3512,1.5649,1.2525,0.0,1.1294,0.977,0.8632,0.0,0.8062,0.7875,0.7388,0.7165,0.7025,0.6879,0.6717,0.6549,0.6539,0.6485,0.649,0.0,0.0,0.0,0.0,0.0,0.5458,0.5297,0.0,0.5407,0.5513,0.5681,0.5845,0.0,0.6168,0.6273,0.6372,0.6518,0.6587,0.6594,0.6495,0.6342,0.0,0.0,0.0,0.5081,0.4725,0.0,0.0,0.0,0.0,0.0,0.0,0.0,0.0,0.0,0.0,0.0,0.0,0.0,0.0,0.0,0.0,0.0,0.0,0.0,0.0,0.0,0.0,0.0,0.0,0.4697,0.0,0.4859,0.5694,0.6237,0.6425,0.6677,0.6745,0.6745,0.6745,0.6811,0.6942,0.7138,0.7466,0.7852,0.8052,0.8317,0.8517,0.8582,0.8705,0.8835,0.8894,0.9087,0.9274,0.9344,0.9414,0.9554,0.9839,0.9999,1.0269,1.8419,0.0,0.0,0.0,0.0,0.0,0.0,0.0,0.0,0.0,1.3232,0.0,1.4299,0.0,1.4787,0.0,1.5252,1.5055,1.6616,1.4278,0.0,1.3077,1.1688,0.0,0.0,0.952,0.8877,0.8049,0.7689,0.7351,0.7041,0.7041,0.7036,0.6977,0.6923,0.6869,0.681,0.6549,0.6341,0.0,0.0,0.5513,0.0,0.0,0.5407,0.5622,0.0,0.59,0.6055,0.6327,0.6489,0.6663,0.6994,0.72,0.738,0.7454,0.74,0.723,0.707,0.6586,0.0,0.5751,0.5413,0.0,0.4248,0.0,0.0,0.0,0.0,0.0,0.0,0.0,0.0,0.0,0.0,0.0,0.0,0.4001,0.0,0.0,0.0,0.0,0.0,0.0,0.4138,0.3845,0.4389,0.4767,0.0,0.5486,0.5982,0.6233,0.6359,0.642,0.642,0.642,0.6486,0.6552,0.6815,0.7138,0.7521,0.7722,0.7987,0.8317,0.8317,0.8447,0.8705,0.8829,0.9022,0.921,0.9344,0.9414,0.9548,0.974,0.9988,1.0263,1.8027,1.902,0.0,0.0,1.9209,0.0,0.0,0.0,1.4574,0.0,1.4334,1.4397,1.5691,1.5997,1.6493,1.7517,1.7861,1.7722,1.6931,1.6641,0.0,0.0,1.3597,1.2985,1.1232,1.0813,1.0191,0.9302,0.8311,0.7663,0.7387,0.7399,0.7453,0.7555,0.7441,0.0,0.7155,0.6987,0.6663,0.6178,0.5786,0.5622,0.5567,0.5407,0.5462,0.5622,0.5736,0.59,0.6055,0.6327,0.6693,0.7048,0.7378,0.7739,0.8143,0.8745,0.8474,0.8094,0.8689,0.8117,0.7197,0.675,0.6487,0.0,0.0,0.0,0.4765,0.0,0.0,0.0,0.0,0.0,0.0,0.0,0.0,0.0,0.0,0.0,0.0,0.0,0.0,0.0,0.0,0.4394,0.4458,0.3909,0.4307,0.479,0.0,0.5309,0.5639,0.6384,0.6412,0.642,0.642,0.642,0.6552,0.6881,0.6881,0.7073,0.7456,0.7456,0.7657,0.7987,0.7987,0.8182,0.8517,0.8829,0.9017,0.9017,0.935,0.9484,0.9548,0.974,1.0108,1.0511,1.7612,1.8693,1.9676,0.0,1.9626,1.874,0.0,0.0,0.0,0.0,1.7306,1.7706,1.9096,1.7935,1.7509,1.8714,1.808,0.0,0.0,0.0,0.0,1.6353,1.5216,1.4421,1.4033,1.3156,1.1888,1.0368,1.0036,0.9284,0.825,0.8506,0.8598,0.8471,0.0,0.8023,0.7888,0.7492,0.7036,0.6544,0.6173,0.59,0.5736,0.0,0.5681,0.5736,0.5795,0.5959,0.6173,0.649,0.6804,0.7053,0.7502,0.8038,0.8546,0.8857,0.8986,0.9068,0.9066,0.8426,0.774,0.7677,0.7021,0.6267,0.0,0.0,0.0,0.0,0.0,0.0,0.0,0.0,0.0,0.0,0.0,0.0,0.0,0.0,0.0,0.3716,0.0,0.0,0.3785,0.3884,0.3909,0.3774,0.3861,0.4164,0.4748,0.0,0.5593,0.6018,0.6151,0.6284,0.642,0.642,0.642,0.6548,0.6548,0.6679,0.7073,0.7073,0.74,0.7987,0.7987,0.8182,0.8511,0.877,0.8894,0.9017,0.928,0.9414,0.9548,0.974,1.0108,1.0511,1.686,1.8272,0.0,2.0796,0.0,0.0,2.0191,1.9358,0.0,1.8594,1.8698,0.0,1.9895,1.9244,1.8905,1.9284,1.8639,0.0,1.785,0.0,0.0,1.7468,1.6743,1.626,1.6136,1.4167,0.0,1.1793,1.0372,0.9432,0.8972,0.9189,0.9266,0.9201,0.0,0.8801,0.8663,0.8011,0.7454,0.7031,0.6603,0.6332,0.0,0.5905,0.585,0.5959,0.585,0.5959,0.6228,0.649,0.6814,0.7254,0.7602,0.8231,0.8754,0.8874,0.9168,0.9354,0.9024,0.8416,0.7903,0.8022,0.7313,0.6597,0.6699,0.6425,0.5952,0.0,0.4893,0.4558,0.0,0.0,0.0,0.0,0.0,0.0,0.0,0.0,0.0,0.0,0.3618,0.0,0.3483,0.3355,0.3415,0.3729,0.3766,0.4087,0.4841,0.0,0.554,0.5828,0.5998,0.6086,0.6152,0.6152,0.6218,0.6284,0.6284,0.6416,0.6683,0.6683,0.7012,0.7531,0.7722,0.7987,0.8317,0.8641,0.8835,0.8958,0.921,0.9408,0.9484,0.9612,0.9833,1.0071,1.6303,1.8012,0.0,0.0,0.0,0.0,0.0,2.0384,0.0,1.9117,0.0,1.9529,1.9704,2.0139,2.018,1.9521,0.0,1.8811,1.7639,1.792,1.792,1.7579,1.792,1.792,1.7579,1.4725,1.3273,0.0,0.0,0.9233,0.9778,0.976,0.9838,0.9955,0.0,0.0,0.0,0.8456,0.7932,0.762,0.7041,0.681,0.6701,0.6168,0.6064,0.6173,0.5955,0.6014,0.6232,0.6332,0.6837,0.7439,0.7682,0.8253,0.8835,0.8958,0.9081,0.9163,0.8822,0.8288,0.7888,0.8066,0.7506,0.6972,0.7248,0.7191,0.694,0.6513,0.6162,0.5803,0.0,0.0,0.0,0.0,0.0,0.0,0.0,0.0,0.0,0.0,0.0,0.0,0.0,0.3017,0.3125,0.3735,0.3822,0.4238,0.5093,0.0,0.5424,0.5665,0.5879,0.5954,0.5892,0.602,0.6086,0.621,0.6342,0.6412,0.642,0.6482,0.6683,0.6946,0.7265,0.7591,0.7982,0.8506,0.877,0.8829,0.9145,0.9408,0.9606,0.9548,0.9548,0.9649,1.7207,0.0,0.0,0.0,0.0,2.1625,2.1398,2.1477,2.1247,2.0394,2.034,2.0752,2.1744,2.0804,2.0133,2.0286,1.9669,0.0,0.0,0.0,0.0,1.7975,1.803,1.8084,1.7975,1.6303,1.5277,0.0,0.0,0.0,1.1403,1.1138,1.0953,0.0,0.0,0.0,0.9601,0.8965,0.0,0.8367,0.7757,0.7402,0.7182,0.6977,0.6593,0.6213,0.6273,0.6277,0.6232,0.6332,0.6837,0.7444,0.7568,0.8196,0.8835,0.8835,0.8958,0.9005,0.8965,0.8566,0.8218,0.8264,0.78,0.7412,0.7444,0.7195,0.6898,0.669,0.6173,0.5805,0.6107,0.0,0.0,0.0,0.0,0.0,0.0,0.0,0.0,0.0,0.0,0.3588,0.0,0.0,0.3367,0.3624,0.3732,0.4082,0.478,0.0,0.5165,0.0,0.626,0.0,0.0,0.0,0.6741,0.6214,0.6933,0.6937,0.6416,0.7003,0.7138,0.6881,0.6946,0.7204,0.7652,0.8107,0.8565,0.9017,0.921,0.9652,1.0091,0.967,0.9862,1.034,1.7473,0.0,0.0,0.0,0.0,0.0,0.0,2.1104,2.0969,2.0365,2.0472,2.0833,2.142,2.1363,2.1188,2.0891,2.0738,2.01,1.8817,1.8741,1.8539,1.8124,1.8084,1.8084,1.8084,1.6384,1.5488,1.5445,0.0,0.0,1.2402,0.0,0.0,1.1802,0.0,1.0902,0.0,0.0,0.0,0.9382,0.8692,0.8415,0.8281,0.7663,0.7187,0.681,0.649,0.6386,0.6332,0.6386,0.6763,0.7231,0.7586,0.8043,0.8513,0.8581,0.8645,0.8589,0.8265,0.7901,0.7671,0.7745,0.7354,0.7052,0.741,0.728,0.711,0.7098,0.6653,0.6244,0.6294,0.6002,0.0,0.0,0.0,0.0,0.0,0.0,0.0,0.0,0.0,0.0,0.0,0.0,0.0,0.0,0.0,0.0,0.0,0.0,0.4837,0.0,0.0,0.0,0.6145,0.0,0.7134,0.6994,0.7386,0.7456,0.7269,0.7652,0.7782,0.7591,0.7852,0.8112,0.8301,0.8495,0.8694,0.8894,0.9081,0.9396,0.9837,1.0098,1.0415,1.0618,0.0,1.8766,0.0,0.0,2.0131,2.0346,2.0409,2.0359,2.0248,2.0067,2.0426,2.0693,2.0721,2.1609,2.1949,2.1271,2.1565,2.1143,1.9693,1.9602,1.9231,1.841,1.8363,1.8253,1.8127,1.6272,1.5449,0.0,0.0,0.0,0.0,0.0,0.0,0.0,0.0,0.0,0.0,0.0,1.0761,1.0444,0.9778,0.9501,0.9412,0.8527,0.7985,0.7563,0.6918,0.6544,0.6436,0.649,0.6749,0.7084,0.7549,0.7947,0.8259,0.8388,0.8454,0.8309,0.7744,0.7378,0.7145,0.7285,0.6905,0.6688,0.727,0.7306,0.7311,0.7413,0.7092,0.6723,0.6386,0.6122,0.0,0.0,0.0,0.0,0.0,0.0,0.0,0.0,0.0,0.0,0.3137,0.0,0.0,0.0,0.0,0.0,0.3781,0.0,0.0,0.0,0.0,0.6193,0.6268,0.0,0.7521,0.7642,0.7842,0.7977,0.7987,0.8301,0.8366,0.8231,0.8689,0.8952,0.9081,0.9081,0.9081,0.9145,0.9332,0.9582,1.0021,1.071,1.1017,1.1087,0.0,0.0,0.0,0.0,0.0,1.9503,1.985,1.9952,2.0066,2.0149,2.0569,2.0914,2.112,2.1227,2.1313,2.1276,2.1337,2.1117,2.0598,2.0573,2.0156,1.9218,1.92,1.8857,1.8135,1.7008,1.6266,0.0,0.0,1.3733,0.0,0.0,0.0,0.0,0.0,0.0,0.0,1.1744,1.1479,1.1419,1.0912,1.0535,1.0268,0.9897,0.9153,0.8178,0.7717,0.7079,0.6436,0.6766,0.692,0.7053,0.7364,0.7871,0.8421,0.8599,0.854,0.841,0.8305,0.7862,0.7392,0.7413,0.7219,0.7031,0.7128,0.7139,0.7139,0.7139,0.7219,0.7084,0.6484,0.6913,0.7191,0.0,0.0,0.0,0.0,0.0,0.5348,0.5296,0.0,0.0,0.4074,0.3611,0.0,0.0,0.352,0.0,0.0,0.0,0.0,0.5402,0.6346,0.6519,0.5954,0.7386,0.7912,0.7521,0.8312,0.8441,0.8052,0.8823,0.8818,0.8236,0.8425,0.8812,0.9274,0.9274,0.9709,1.0332,1.0584,1.1212,1.1958,1.1578,1.1826,1.2266,0.0,0.0,0.0,0.0,0.0,0.0,0.0,1.9331,1.985,2.0055,2.0334,2.0612,2.0961,2.1193,2.13,2.1227,2.1771,2.1826,2.11,2.1369,2.1152,2.0307,2.0258,1.9849,1.8973,1.8539,1.7826,0.0,0.0,0.0,0.0,0.0,0.0,0.0,0.0,1.3338,1.2956,1.2583,1.2466,1.2434,1.2123,1.211,1.2201,1.1531,1.0828,1.0076,0.9061,0.8059,0.7176,0.7133,0.6981,0.692,0.7616,0.8074,0.839,0.8669,0.8663,0.8569,0.8416,0.8184,0.7942,0.7669,0.7535,0.7402,0.7139,0.7085,0.7085,0.7085,0.7139,0.7144,0.6982,0.6874,0.6923,0.7192,0.0,0.0,0.0,0.0,0.0,0.5137,0.0,0.4117,0.0,0.3993,0.0,0.0,0.0,0.0,0.0,0.0,0.0,0.5118,0.0,0.6379,0.647,0.7647,0.8236,0.8431,0.8759,0.8894,0.8823,0.9344,0.96,0.9652,0.9716,0.9786,0.9919,0.9919,1.0034,1.0205,1.0408,1.073,1.1163,1.1772,1.2143,1.2451,1.5323,0.0,1.698,0.0,1.7523,1.8015,1.8093,1.8685,1.9331,1.9798,1.9914,2.0195,2.0838,2.1122,2.1242,2.1277,2.1921,2.2073,2.1549,2.1983,2.1891,2.1051,2.1175,0.0,1.9946,1.9907,1.9305,1.8016,1.7739,0.0,0.0,0.0,0.0,0.0,1.4519,1.4172,1.3803,1.3398,1.3285,1.3321,1.3488,1.3796,1.4063,1.3657,1.3091,1.2307,1.0953,0.9585,0.8246,0.7694,0.7283,0.7106,0.777,0.8165,0.8447,0.877,0.8825,0.8773,0.8639,0.8474,0.8315,0.7996,0.7883,0.783,0.7568,0.7461,0.7456,0.7295,0.7295,0.73,0.7413,0.6982,0.6815,0.7402,0.0,0.0,0.0,0.6346,0.0,0.0,0.5009,0.4908,0.4962,0.479,0.0,0.0,0.0,0.0,0.0,0.0,0.0,0.0,0.0,0.0,0.6732,0.7652,0.8366,0.8759,0.8888,0.9017,0.921,0.9536,0.9983,1.0498,1.0498,1.0491,1.0428,1.0428,1.0478,1.0528,1.0674,1.0807,1.1052,1.2097,1.2528,1.265,1.4647,1.4647,1.4932,1.6073,1.6312,1.6754,1.7929,1.8093,1.8471,1.9448,1.946,1.9784,2.0788,2.0901,2.1023,2.1375,2.1423,2.1589,2.1974,2.2441,2.2262,0.0,0.0,2.1722,2.0898,2.0875,2.0584,1.9967,0.0,0.0,1.9629,0.0,1.7548,1.6244,1.5517,1.5167,1.5118,1.4181,1.389,1.4061,1.4915,1.5415,1.5689,1.6536,1.6003,1.4703,1.3491,1.169,0.9694,0.8351,0.7806,0.767,0.7723,0.8103,0.8633,0.891,0.9015,0.9015,0.9015,0.8692,0.8421,0.8368,0.8368,0.8368,0.8368,0.8368,0.8262,0.7777,0.767,0.767,0.767,0.7348,0.7187,0.7439,0.0,0.0,0.0,0.0,0.0,0.5809,0.663,0.7058,0.6599,0.6128,0.0,0.0,0.0,0.0,0.0,0.0,0.0,0.5566,0.5898,0.0,0.642,0.7461,0.8047,0.8236,0.8635,0.8894,0.9017,0.9332,0.9779,1.0301,1.0301,1.0491,1.08,1.08,1.1178,1.1802,1.1802,1.205,1.2544,1.2858,1.2981,1.3042,1.4034,1.446,1.4883,1.5768,1.6093,1.6415,1.681,1.7589,1.8298,1.8886,1.9291,1.972,2.022,2.0398,2.0612,0.0,2.1291,2.1471,0.0,2.2002,2.2309,2.2368,2.2561,2.2411,2.1871,2.1847,2.146,2.0604,0.0,0.0,0.0,2.0099,1.9462,1.8453,1.7907,1.7027,1.5911,1.5555,1.5381,1.5583,1.7295,1.8166,1.867,1.9847,1.988,1.8956,1.6685,1.4446,1.222,1.0428,0.9127,0.8343,0.8521,0.8633,0.8798,0.9054,0.9159,0.9159,0.9159,0.9054,0.8896,0.8633,0.8626,0.8626,0.8321,0.8321,0.8368,0.8209,0.8156,0.8156,0.8156,0.8002,0.7895,0.7943,0.7538,0.0,0.6502,0.0,0.6563,0.5381,0.6194,0.6734,0.6315,0.6082,0.0,0.0,0.0,0.0,0.0,0.0,0.0,0.0,0.6358,0.0,0.7064,0.7204,0.7531,0.8047,0.8182,0.8565,0.921,0.9396,0.9779,1.0295,1.0099,1.0312,1.0787,1.0705,1.0986,1.149,1.1622,1.1747,1.1934,1.249,1.2674,1.2789,1.3554,1.4103,1.4638,1.5313,1.5758,1.6197,1.6652,1.7301,1.803,1.8738,1.9121,1.9512,1.9798,1.9862,0.0,2.0662,2.0885,2.1068,2.1229,2.1684,2.2095,2.248,2.2618,2.2581,2.2304,2.2295,0.0,2.1891,2.1863,2.1717,2.1461,2.1543,2.102,2.001,1.9638,1.8881,1.791,1.7745,1.7679,1.784,1.9818,2.087,2.1434,2.2964,2.3177,2.2369,1.9983,1.7313,1.4609,1.2385,1.0559,0.9273,0.9197,0.9256,0.9368,0.9524,0.9681,0.9859,1.0031,0.9978,0.9755,0.945,0.9281,0.9138,0.8685,0.8718,0.885,0.8682,0.8629,0.8629,0.8689,0.8385,0.8103,0.8268,0.7647,0.7121,0.7043,0.0,0.7137,0.0,0.0,0.0,0.0,0.6988,0.7133,0.0,0.0,0.0,0.0,0.0,0.0,0.6822,0.703,0.7324,0.7712,0.7722,0.7917,0.8371,0.856,0.9011,0.9594,0.9837,1.0218,1.0667,1.0423,1.0567,1.0975,1.0726,1.0822,1.1115,1.131,1.1498,1.1747,1.2297,1.2613,1.2773,1.3139,1.3683,1.4222,0.0,1.5342,1.6093,1.7101,1.7244,1.7612,1.8732,1.8934,1.9146,1.9512,1.9473,1.9617,2.0271,0.0,0.0,2.0934,2.1313,2.1616,2.1793,2.2095,2.2282,2.2374,2.2314,2.2696,2.3505,2.4415,2.423,2.3015,2.3015,2.2323,2.1025,2.0849,2.0708,2.0619,2.0408,2.0358,2.0543,2.2347,2.3291,2.3793,2.5602,2.5818,2.4892,2.2984,2.008,1.6717,1.4052,1.1977,1.032,0.9718,0.9888,1.0308,1.0249,1.053,1.097,1.1328,1.1187,1.0875,1.0646,1.0325,0.9947,0.9396,0.9538,0.9653,0.9196,0.9079,0.9141,0.9265,0.8597,0.8127,0.8349,0.7716,0.7282,0.7782,0.8063,0.8335,0.0,0.0,0.0,0.8588,0.854,0.8275,0.0,0.0,0.0,0.0,0.0,0.7021,0.7514,0.7845,0.8096,0.8236,0.8694,0.8952,0.9017,0.9518,0.9843,0.9983,1.0528,1.0968,1.124,1.1094,1.1156,1.1303,1.0905,1.0787,1.0989,1.1178,1.149,1.1926,1.2359,1.2736,1.2992,0.0,0.0,1.4336,1.5013,1.5505,1.5961,1.6181,1.6856,1.7446,1.7765,1.8494,1.904,1.9146,1.9093,1.9303,1.9759,2.0169,2.0422,2.0523,2.0934,2.1326,2.1793,2.1888,2.2296,2.3038,2.2649,2.274,2.3334,2.4131,2.4374,2.4029,2.429,2.372,2.2422,2.2372,2.1798,2.083,2.0778,2.0939,2.137,2.3139,2.4152,2.4833,2.6538,2.6949,2.6244,2.3456,2.0653,1.7838,1.4744,1.2447,1.0904,1.0817,1.1064,1.127,1.0585,1.0637,1.091,1.0709,1.0797,1.0902,1.0545,1.0685,1.0783,1.0325,1.0471,1.059,0.9959,0.9845,0.9845,0.9909,0.9626,0.9239,0.8629,0.7963,0.7435,0.7363,0.7723,0.7902,0.0,0.8407,0.8649,0.7818,0.7769,0.7936,0.0,0.0,0.0,0.8138,0.7883,0.7804,0.7816,0.8206,0.849,0.8823,0.8436,0.8441,0.8829,0.9332,0.9658,0.9862,1.0345,1.078,1.1101,1.1167,1.157,1.2035,1.182,1.198,1.2336,1.2458,1.2712,1.2903,1.2797,1.285,1.3028,1.2879,1.3518,1.4012,1.4335,1.5061,1.5678,1.5921,1.6662,1.7302,1.7904,1.8447,1.8881,1.9158,1.9105,1.9158,1.942,1.9978,2.0321,2.0321,2.0623,2.097,2.1348,2.1299,2.1589,2.2342,2.2049,2.2235,2.2934,2.3595,2.4036,2.4204,2.4395,2.4088,2.3397,2.3528,2.3177,2.2523,2.2675,2.2843,2.3187,2.4643,2.5324,2.5635,2.7285,2.7649,2.7036,2.5116,2.2737,2.0225,1.8186,1.5841,1.3689,1.3313,1.3173,1.2886,1.1764,1.1597,1.176,1.155,1.1525,1.1456,1.1083,1.1198,1.1303,1.1036,1.131,1.1437,1.109,1.1025,1.1025,1.1083,1.0501,0.9714,0.9077,0.816,0.763,0.7859,0.7915,0.8025,0.8374,0.8686,0.868,0.8208,0.8129,0.8273,0.8658,0.8279,0.0,0.8552,0.856,0.8449,0.8259,0.8685,0.8947,0.9145,0.8958,0.9022,0.935,0.9722,0.9977,1.018,1.073,1.1101,1.1351,1.1608,1.2004,1.2351,1.2277,1.2414,1.2826,1.2948,1.3199,1.345,1.3407,1.3631,1.3972,1.2506,1.3079,1.3517,1.3614,1.4517,1.5418,1.6063,1.653,1.721,1.8193,1.8519,1.878,1.9214,1.9251,1.9235,1.9247,1.9822,2.0169,2.0182,2.0472,2.0709,2.0908,2.0759,2.0921,2.1326,2.141,2.1779,2.2466,2.2934,2.3392,2.3797,2.3855,2.3897,2.3897,2.4204,2.4313,2.4354,2.4639,2.4799,2.495,2.5931,2.6134,2.6034,2.7379,2.7578,2.7071,2.6435,2.4659,2.2488,2.1811,1.9638,1.7074,1.6378,1.5812,1.5209,1.4026,1.3793,1.369,1.2904,1.2458,1.2167,1.1893,1.1856,1.1841,1.172,1.1994,1.2193,1.2083,1.2083,1.2142,1.2252,1.1191,1.0137,0.9589,0.8658,0.8191,0.8732,0.0,0.8516,0.9755,0.9316,0.8903,0.8903,0.879,0.8744,0.876,0.8711,0.8607,0.8404,0.8804,0.8908,0.8717,0.9058,0.9274,0.9274,0.9542,0.9798,0.9919,1.0117,1.0308,1.0561,1.1115,1.1553,1.174,1.212,1.2367,1.2552,1.2428,1.2597,1.3017,1.313,1.3442,1.3932,1.4001,1.4469,1.5041,1.2382,1.3079,1.3663,1.4224,1.4934,1.5571,1.6243,1.6696,1.7045,1.7218,1.8035,1.863,1.8746,1.9113,1.9352,1.9385,1.9772,2.0062,2.0195,2.056,2.0908,2.1264,2.1277,2.1506,2.2044,2.2434,2.2526,2.2263,2.2618,2.283,2.2934,2.326,2.3407,2.3451,2.3882,2.4067,2.4067,2.4094,2.4343,2.4655,2.4855,2.5096,2.5363,2.5558,2.5589,2.5414,2.4374,2.3172,2.1953,2.0948,1.97,1.8603,1.8701,1.8737,1.8758,1.8753,1.8763,1.7861,1.3471,1.2255,1.2281,1.2553,1.2876,1.2992,1.2398,1.2611,1.2684,1.215,1.2028,1.2089,1.2281,1.1943,1.1316,1.0089,1.0052,0.9986,0.9321,0.0,0.9018,0.9727,0.9038,0.8491,0.8491,0.8453,0.8493,0.8639,0.8639,0.8538,0.8385,0.862,0.8731,0.8676,0.9089,0.921,0.9017,0.9274,0.9466,0.9582,0.9792,0.9926,1.011,1.0681,1.1052,1.1428,1.1864,1.2297,1.2744,1.2744,1.3164,1.3821,1.3821,1.4309,1.4902,1.4341,1.446,1.4653,1.2151,1.2482,1.2776,1.3375,1.4288,1.5001,1.533,1.613,1.6774,1.7088,1.7523,1.7958,1.8322,1.8754,1.9108,1.9092,1.9429,1.9818,2.0067,2.0213,2.0322,2.0458,2.0408,2.0769,2.1444,2.1874,2.2123,2.2184,2.2356,2.2572,2.2799,2.2979,2.3083,2.3083,2.3523,2.3696,2.3696,2.3925,2.4109,2.4317,2.4508,2.4589,2.4614,2.4997,2.5052,2.4837,2.4537,2.3905,2.3206,2.3327,2.2536,2.1486,2.1461,2.1206,2.0776,2.0144,1.895,1.7338,1.4949,1.3528,1.277,1.2946,1.3394,1.3626,1.3322,1.3391,1.345,1.3147,1.3094,1.3094,1.3216,1.2687,1.1913,1.0997,1.0786,0.0,0.9732,0.9737,0.9915,1.0212,0.974,0.9234,0.8971,0.8884,0.8805,0.8741,0.8558,0.8609,0.8794,0.8788,0.8796,0.8955,0.9246,0.9332,0.9145,0.953,0.9658,0.9664,1.0053,1.018,1.0047,1.0491,1.0744,1.08,1.1365,1.1864,1.2305,1.2552,1.3094,1.3881,1.3941,1.4488,1.5147,1.4834,1.5069,1.5438,1.1988,1.2066,1.2189,1.2784,1.3716,1.4484,1.4697,1.5521,1.6374,1.6931,1.7098,1.74,1.7855,1.8331,1.8649,1.8649,1.9061,1.9399,1.9698,1.9723,1.9773,1.9825,1.9812,2.0105,2.066,2.1068,2.1506,2.1983,2.1983,2.2217,2.2663,2.2709,2.2768,2.2754,2.3098,2.3275,2.3319,2.361,2.3797,2.3925,2.4245,2.4261,2.4151,2.4735,2.4775,2.4589,2.4918,2.4741,2.4467,2.5427,2.4984,2.4,2.3816,2.3316,2.2619,2.1657,1.9668,1.765,1.7124,1.5821,1.4525,1.412,1.4346,1.4472,1.3987,1.3881,1.3881,1.3881,1.3881,1.3881,1.395,1.322,1.2489,1.1989,0.0,1.1991,0.0,1.2022,1.2385,1.1524,1.1226,1.0838,1.0248,1.0108,0.9954,0.9806,0.9445,0.9234,0.9186,0.8912,0.8845,0.9182,0.9365,0.94,0.9274,0.9658,0.9856,0.9862,1.0244,1.0364,1.0174,1.0434,1.0561,1.0491,1.1178,1.149,1.174,1.2236,1.2842,1.3381,1.3571,1.4172,1.4961,1.5029,1.5429,1.5899,1.2233,1.2453,1.2776,1.375,1.3952,1.4315,1.5225,1.5424,1.5733,1.6374,1.6863,1.7223,1.7237,1.7798,1.8136,1.8136,1.8679,1.8973,1.8861,1.9317,1.9876,2.0527,2.0537,2.0459,2.0233,2.0736,2.1118,2.1272,2.141,2.1602,2.1902,2.2137,2.2263,2.2278,2.2709,2.2934,2.2934,2.2979,2.3246,2.3638,2.3638,2.3909,2.4261,2.4276,2.4276,2.4343,2.4589,2.4704,2.4792,2.5137,2.5205,2.5099,2.5082,2.5025,2.5053,2.5363,2.4205,2.2317,2.0191,1.923,1.8466,1.6857,1.6485,1.5981,1.3976,1.3511,1.3511,1.3511,1.3511,1.3571,1.3761,1.3614,1.327,1.2781,0.0,0.0,1.4923,1.7197,1.7766,1.4349,1.377,1.3336,1.2615,1.2532,1.2567,1.2686,1.214,1.1053,0.9302,0.8732,0.8648,0.9176,0.9307,0.9401,0.9268,0.946,0.9716,0.9989,1.0047,1.0244,1.0561,1.0561,1.0744,1.1059,1.1553,1.1615,1.1365,1.205,1.2351,1.2389,1.2573,1.3295,1.4273,1.4469,1.4705,1.4933,1.1981,1.2128,1.2382,1.3485,1.4013,1.4434,1.4791,1.543,1.5908,1.6208,1.654,1.6842,1.6842,1.7256,1.7513,1.7513,1.8459,1.8836,1.837,1.8893,1.9402,1.985,2.0118,2.0182,2.0093,2.0523,2.0772,2.0845,2.0858,2.1118,2.1568,2.1664,2.1888,2.2231,2.2663,2.2889,2.2889,2.3083,2.326,2.3392,2.3246,2.3465,2.3867,2.3839,2.4009,2.4302,2.4385,2.4467,2.4533,2.4918,2.502,2.5059,2.5329,2.5368,2.5329,2.5438,2.498,2.4366,2.3779,2.1747,1.9625,1.8904,1.8741,1.8532,1.7725,1.7516,1.7546,1.7575,1.7768,1.793,1.7992,1.6821,1.6267,1.7441,0.0,1.7332,1.8365,1.9287,1.9263,1.7574,1.711,1.65,1.5324,1.523,1.5098,1.4818,1.5043,1.4744,1.3682,1.1748,1.0857,1.1237,0.9674,0.9034,0.939,0.9913,1.0104,0.9983,1.0491,1.0618,1.0434,1.0618,1.0681,1.0618,1.0996,1.1178,1.1185,1.156,1.192,1.2457,1.3082,1.3983,1.4877,1.5216,1.5285,1.5209,1.1643,1.192,1.2297,1.3169,1.3925,1.438,1.4459,1.5124,1.5718,1.6048,1.6327,1.6513,1.6675,1.6853,1.7009,1.7009,1.7897,1.833,1.8089,1.8806,1.9266,1.919,1.9683,1.9875,1.9836,2.0271,2.051,2.056,2.056,2.0809,2.1264,2.1166,2.1361,2.1732,2.2049,2.2282,2.2434,2.2632,2.2904,2.3172,2.2979,2.3201,2.3595,2.3595,2.3824,2.4094,2.4193,2.4219,2.4302,2.4599,2.4719,2.4799,2.5059,2.5176,2.5214,2.5137,2.5176,2.5368,2.5701,2.383,2.1672,2.1165,2.1044,2.0862,2.0174,2.0025,2.0049,2.0084,2.028,2.043,2.043,1.9209,1.8686,2.0199,1.9642,1.955,2.1053,2.1935,2.186,2.0361,2.0015,1.9449,1.8302,1.7993,1.7738,1.7451,1.8032,1.7856,1.6642,1.4498,1.3538,1.4033,1.2309,1.1723,1.2529,1.0997,1.0238,1.018,1.0618,1.0681,1.0491,1.0681,1.0681,1.0428,1.073,1.0919,1.0996,1.1233,1.166,1.2134,1.2901,1.36,1.4176,1.4503,1.4962,1.538,1.1354,1.2066,1.2592,1.2948,1.3536,1.4127,1.4437,1.4515,1.4904,1.5951,1.6088,1.6259,1.6743,1.6686,1.6608,1.6608,1.6942,1.7435,1.8078,1.9136,1.9498,1.8797,1.9433,1.9656,1.942,1.9926,2.0283,2.0422,2.051,2.0759,2.0993,2.0709,2.061,2.061,2.061,2.0921,2.1423,2.1423,2.1969,2.2889,2.2889,2.3157,2.3595,2.3595,2.3595,2.3638,2.3882,2.4051,2.412,2.4261,2.44,2.4457,2.4359,2.4574,2.4902,2.4902,2.516,2.5503,2.5503,2.5503,2.5146,2.369,2.3316,2.2766,2.0623,2.0156,2.0156,2.0156,2.0156,2.0156,2.0156,2.0143,2.0129,2.0143,2.2259,2.3636,2.2847,2.5607,2.6314,2.2574,2.2249,2.2098,2.1488,2.0826,2.0554,2.0818,2.109,2.0087,1.742,1.6429,1.6442,1.7507,1.7524,1.8036,1.9182,1.2812,0.9939,1.0604,1.0415,1.0485,1.08,1.08,1.0744,1.0624,1.0905,1.0905,1.08,1.1274,1.1392,1.1344,1.1553,1.1715,1.1878,1.1945,1.3359,1.5278,1.1354,1.1681,1.2135,1.316,1.3536,1.3835,1.4437,1.4749,1.5222,1.5879,1.6146,1.6416,1.6899,1.6821,1.674,1.6753,1.7256,1.7621,1.7831,1.8124,1.8363,1.8422,1.9291,1.9759,1.9656,1.9862,1.9965,1.9952,2.0003,2.0258,2.0709,2.066,2.0795,2.1175,2.1175,2.1237,2.1382,2.1188,2.1492,2.2123,2.1921,2.2342,2.3113,2.3113,2.329,2.3595,2.3696,2.3724,2.3767,2.4078,2.4204,2.4261,2.4467,2.4589,2.4695,2.463,2.4751,2.4918,2.5153,2.5253,2.5216,2.4847,2.4782,2.4683,2.432,2.4248,2.433,2.4646,2.4912,2.5078,2.5078,2.3812,2.3275,2.4837,2.4308,2.4208,2.5724,2.6879,2.7007,2.5511,2.5368,2.5099,2.4415,2.4162,2.4074,2.417,2.4432,2.4554,2.4495,2.1795,2.0503,2.1056,1.9117,1.8393,1.9041,1.7469,1.5503,1.3252,1.3501,1.2315,0.9907,1.0028,1.0104,1.0174,1.0275,1.0345,1.0428,1.0465,1.1679,1.3425,1.2335,1.3184,1.4856,1.3307,1.402,1.5724,1.1199,1.1425,1.1851,1.2658,1.2953,1.3382,1.4127,1.4369,1.4818,1.5525,1.5736,1.6088,1.6781,1.6704,1.669,1.685,1.7362,1.7723,1.7698,1.7918,1.817,1.8398,1.9016,1.9488,1.9798,1.9862,1.9862,1.9798,1.9798,1.9952,2.0258,2.0258,2.0446,2.0782,2.0782,2.0881,2.1091,2.0894,2.114,2.1636,2.1458,2.1766,2.2314,2.2526,2.2799,2.3068,2.3392,2.3508,2.3551,2.3809,2.3894,2.3937,2.4162,2.4287,2.4369,2.4343,2.4467,2.463,2.4871,2.4934,2.4958,2.5075,2.5307,2.561,2.5901,2.5901,2.5974,2.6314,2.6657,2.6873,2.6873,2.5918,2.5555,2.6887,2.59,2.5481,2.697,2.7261,2.7182,2.6877,2.6586,2.6265,2.59,2.5657,2.564,2.603,2.5946,2.6265,2.7229,2.4867,2.3714,2.4205,2.2659,2.2122,2.2747,2.3229,2.1086,1.6436,1.6598,1.5593,1.3536,1.2219,1.2457,1.3823,1.2323,1.2671,1.4259,1.371,1.4701,1.6403,1.5036,1.5529,1.6821,1.5504,1.6292,1.7969,1.0835,1.134,1.1784,1.1792,1.2158,1.2718,1.3605,1.3639,1.3912,1.4984,1.5167,1.5558,1.649,1.6427,1.6539,1.7013,1.7423,1.7668,1.7668,1.8182,1.8481,1.8518,1.856,1.8922,1.9695,1.9823,1.9823,1.9695,1.9747,1.9759,1.9747,1.9811,1.9798,1.9798,1.9798,2.0055,2.051,2.051,2.0845,2.1321,2.1321,2.1369,2.1465,2.1921,2.2123,2.2217,2.2904,2.3201,2.3319,2.3508,2.3595,2.3653,2.3653,2.3867,2.4078,2.4078,2.4287,2.4549,2.4589,2.4589,2.4589,2.463,2.513,2.5663,2.5807,2.5754,2.5701,2.5881,2.6154,2.6349,2.6349,2.664,2.6909,2.6909,2.6942,2.6975,2.6975,2.7007,2.7024,2.7024,2.6487,2.6182,2.6363,2.5825,2.5883,2.6809,2.6207,2.6136,2.6881,2.6216,2.6136,2.6827,2.7137,2.7669,2.8466,2.8897,2.6009,1.9884,1.9793,1.9719,1.9608,1.6299,1.6634,1.9639,1.6155,1.6745,2.0125,1.9194,1.9159,1.9624,1.866,1.8272,1.8195,1.8022,1.9289,2.1145,1.1038,1.1136,1.1382,1.1855,1.2072,1.2344,1.304,1.3588,1.4058,1.4593,1.5077,1.5694,1.6502,1.6566,1.6714,1.719,1.7345,1.7423,1.7423,1.7512,1.7723,1.8018,1.8159,1.8429,1.8869,1.8881,1.8881,1.8869,1.9303,1.946,1.9331,1.9772,1.9926,1.9798,1.9798,1.985,1.9952,1.9952,2.0308,2.0746,2.0746,2.1042,2.1417,2.1527,2.1575,2.1575,2.1752,2.2095,2.2572,2.3231,2.3653,2.3925,2.3925,2.3967,2.4009,2.3925,2.4009,2.4135,2.4302,2.4441,2.4564,2.4846,2.4966,2.5068,2.5285,2.5346,2.5422,2.5807,2.5954,2.6026,2.6026,2.6063,2.6134,2.6134,2.6452,2.6674,2.6674,2.7007,2.7218,2.7218,2.7144,2.7085,2.7085,2.7009,2.7108,2.7553,2.7423,2.7518,2.796,2.7763,2.7718,2.7933,2.8005,2.8147,2.8353,2.8422,2.6626,2.2948,2.3082,2.1695,1.8996,1.8253,1.8444,1.9281,1.8316,1.8156,1.8572,1.8261,1.9135,2.0483,1.837,1.8825,2.047,1.8451,1.9167,2.1451,1.1226,1.1226,1.1317,1.1585,1.1604,1.1799,1.2523,1.3129,1.3726,1.4182,1.4831,1.5446,1.6089,1.6181,1.6395,1.7024,1.7013,1.7034,1.7278,1.7278,1.7379,1.759,1.7689,1.7799,1.7975,1.7975,1.8182,1.8614,1.8881,1.8987,1.8922,1.9186,1.946,1.9617,1.9617,1.9759,1.9965,1.9965,2.0118,2.0321,2.0321,2.0472,2.0746,2.1042,2.1126,2.1224,2.1479,2.1732,2.1983,2.2374,2.2799,2.3127,2.3127,2.3392,2.3696,2.3696,2.3839,2.4024,2.4276,2.4276,2.4317,2.4508,2.4605,2.4742,2.5029,2.5068,2.5107,2.5394,2.5605,2.5701,2.5701,2.5885,2.5994,2.5994,2.6279,2.6487,2.6487,2.6808,2.7023,2.7023,2.7152,2.7296,2.7407,2.7421,2.7513,2.7659,2.7659,2.7748,2.7893,2.7893,2.7922,2.7989,2.8174,2.8246,2.8246,2.844,2.773,2.6143,2.6278,2.5446,2.3706,2.2109,2.2448,2.4207,2.2397,2.2217,2.3162,2.274,2.2978,2.3411,2.1729,2.1969,2.3113,2.1844,2.2177,2.3491,1.1365,1.1351,1.1344,1.1365,1.1281,1.1413,1.2072,1.2586,1.3116,1.3623,1.4359,1.5006,1.5467,1.5678,1.6059,1.6652,1.6588,1.6701,1.7088,1.7155,1.7211,1.7211,1.7278,1.7278,1.7278,1.7278,1.7656,1.8398,1.8452,1.8494,1.8506,1.8614,1.8881,1.9263,1.9263,1.9512,1.9914,1.9914,1.9926,1.9888,1.9888,1.9939,2.0093,2.051,2.0746,2.0894,2.1361,2.1506,2.1506,2.1602,2.1841,2.2137,2.2137,2.2572,2.3143,2.3275,2.3523,2.3797,2.4051,2.4009,2.3967,2.412,2.4302,2.4539,2.4806,2.4886,2.4942,2.5084,2.5307,2.5519,2.5519,2.5779,2.6033,2.6033,2.6191,2.6349,2.6349,2.6556,2.6691,2.6691,2.6891,2.7117,2.7404,2.7404,2.7404,2.7404,2.7465,2.7465,2.7404,2.7496,2.7569,2.7654,2.7989,2.8174,2.8174,2.8492,2.8637,2.8536,2.8619,2.8845,2.9037,2.6225,2.6713,2.9576,2.6685,2.6601,2.8468,2.7916,2.709,2.6151,2.5491,2.5234,2.5274,2.5441,2.5559,2.5636,1.156,1.156,1.1553,1.156,1.156,1.156,1.17,1.2212,1.2536,1.253,1.3561,1.4461,1.4779,1.5682,1.627,1.6335,1.6325,1.6389,1.641,1.6705,1.6874,1.6874,1.7155,1.7278,1.7278,1.7278,1.7334,1.749,1.7952,1.8104,1.8007,1.8548,1.8762,1.8721,1.8721,1.8774,1.8827,1.8827,1.9093,1.9473,1.9473,1.9772,2.0182,2.0233,2.0271,2.0321,2.0372,2.0709,2.114,2.1602,2.1793,2.1841,2.1841,2.1935,2.2016,2.203,2.2342,2.2785,2.3157,2.3523,2.3882,2.4219,2.4302,2.4359,2.4385,2.4846,2.5278,2.5454,2.5567,2.5605,2.5605,2.5626,2.568,2.568,2.5941,2.6139,2.6139,2.647,2.6691,2.6691,2.6725,2.6842,2.7038,2.7055,2.7072,2.7072,2.7279,2.731,2.7072,2.7509,2.7654,2.7457,2.7915,2.8164,2.8126,2.8182,2.8219,2.8255,2.8518,2.8694,2.8845,2.8563,2.868,2.9104,2.8857,2.8223,2.7349,2.7528,2.6764,2.5435,2.5379,2.5412,2.5468,2.555,2.5639,2.5683,1.1505,1.1622,1.1622,1.1622,1.1622,1.1622,1.1622,1.2134,1.2491,1.2393,1.3235,1.3855,1.401,1.4713,1.5381,1.6028,1.6024,1.607,1.6304,1.6462,1.6524,1.6524,1.6637,1.6761,1.6761,1.6931,1.7043,1.7043,1.7423,1.7634,1.759,1.7865,1.8061,1.8321,1.8321,1.8494,1.8827,1.8827,1.8934,1.9081,1.9081,1.9186,1.9436,1.9759,1.9914,2.0016,2.0334,2.0586,2.0785,2.0983,2.1215,2.1348,2.1348,2.1541,2.1841,2.2203,2.2388,2.2649,2.3201,2.3436,2.3566,2.3797,2.3925,2.4051,2.4162,2.4574,2.4895,2.4895,2.5052,2.5192,2.5192,2.54,2.5605,2.5605,2.5828,2.5994,2.603,2.6279,2.6556,2.6725,2.6758,2.6858,2.7103,2.7103,2.7103,2.7103,2.723,2.723,2.712,2.7338,2.7461,2.7461,2.7719,2.7836,2.7766,2.8053,2.8174,2.8101,2.85,2.8743,2.8815,2.9093,2.9225,2.9228,2.9416,2.8614,2.7167,2.7358,2.6507,2.5082,2.5157,2.5264,2.5406,2.5472,2.5532,2.5588]},{"header":{"parameterUnit":"m.s-1","parameterCategory":1,"la1":30.6,"la2":28.766,"lo1":-90.7593,"lo2":-88.6598,"dy":0.0162,"dx":0.0183,"nx":116,"ny":114,"refTime":"2023-05-12T12:00:00:Z","depth":0,"parameterNumber":3,"parameterNumberName":"V-component_of_WINDS"},"data":[0.0,0.0,0.0,0.0,0.0,0.0,0.0,0.0,0.0,0.0,0.0,0.0,0.0,0.0,0.0,0.0,0.0,0.0,0.0,0.0,0.0,0.0,0.0,0.0,0.0,0.0,0.0,0.0,0.0,0.0,0.0,0.0,0.0,0.0,0.0,0.0,0.0,0.0,0.0,0.0,0.0,0.0,0.0,0.0,0.0,0.0,0.0,0.0,0.0,0.0,0.0,0.0,0.0,0.0,0.0,0.0,0.0,0.0,0.0,0.0,0.0,0.0,0.0,0.0,0.0,0.0,0.0,0.0,0.0,0.0,0.0,0.0,0.0,0.0,0.0,0.0,0.0,0.0,0.0,0.0,0.0,0.0,0.0,0.0,0.0,0.0,0.0,0.0,0.0,0.0,0.0,0.0,0.0,0.0,0.0,0.0,0.0,0.0,0.0,0.0,0.0,0.0,0.0,0.0,0.0,0.0,0.0,0.0,0.0,0.0,0.0,0.0,0.0,0.0,0.0,0.0,0.0,0.0,0.0,0.0,0.0,0.0,0.0,0.0,0.0,0.0,0.0,0.0,0.0,0.0,0.0,0.0,0.0,0.0,0.0,0.0,0.0,0.0,0.0,0.0,0.0,0.0,0.0,0.0,0.0,0.0,0.0,0.0,0.0,0.0,0.0,0.0,0.0,0.0,0.0,0.0,0.0,0.0,0.0,0.0,0.0,0.0,0.0,0.0,0.0,0.0,0.0,0.0,0.0,0.0,0.0,0.0,0.0,0.0,0.0,0.0,0.0,0.0,0.0,0.0,0.0,0.0,0.0,0.0,0.0,0.0,0.0,0.0,0.0,0.0,0.0,0.0,0.0,0.0,0.0,0.0,0.0,0.0,0.0,0.0,0.0,0.0,0.0,0.0,0.0,0.0,0.0,0.0,0.0,0.0,0.0,0.0,0.0,0.0,0.0,0.0,0.0,0.0,0.0,0.0,0.0,0.0,0.0,0.0,0.0,0.0,0.0,0.0,0.0,0.0,0.0,0.0,0.0,0.0,0.0,0.0,0.0,0.0,0.0,0.0,0.0,0.0,0.0,0.0,0.0,0.0,0.0,0.0,0.0,0.0,0.0,0.0,0.0,0.0,0.0,0.0,0.0,0.0,0.0,0.0,0.0,0.0,0.0,0.0,0.0,0.0,0.0,0.0,0.0,0.0,0.0,0.0,0.0,0.0,0.0,0.0,0.0,0.0,0.0,0.0,0.0,0.0,0.0,0.0,0.0,0.0,0.0,0.0,0.0,0.0,0.0,0.0,0.0,0.0,0.0,0.0,0.0,0.0,0.0,0.0,0.0,0.0,0.0,0.0,0.0,0.0,0.0,0.0,0.0,0.0,0.0,0.0,0.0,0.0,0.0,0.0,0.0,0.0,0.0,0.0,0.0,0.0,0.0,0.0,0.0,0.0,0.0,0.0,0.0,0.0,0.0,0.0,0.0,0.0,0.0,0.0,0.0,0.0,0.0,0.0,0.0,0.0,0.0,0.0,0.0,0.0,0.0,0.0,0.0,0.0,0.0,0.0,0.0,0.0,0.0,0.0,0.0,0.0,0.0,0.0,0.0,0.0,0.0,0.0,0.0,0.0,0.0,0.0,0.0,0.0,0.0,0.0,0.0,0.0,0.0,0.0,0.0,0.0,0.0,0.0,0.0,0.0,0.0,0.0,0.0,0.0,0.0,0.0,0.0,0.0,0.0,0.0,0.0,0.0,0.0,0.0,0.0,0.0,0.0,0.0,0.0,0.0,0.0,0.0,0.0,0.0,0.0,0.0,0.0,0.0,0.0,0.0,0.0,0.0,0.0,0.0,0.0,0.0,0.0,0.0,0.0,0.0,0.0,0.0,0.0,0.0,0.0,0.0,0.0,0.0,0.0,0.0,0.0,0.0,0.0,0.0,0.0,0.0,0.0,0.0,0.0,0.0,0.0,0.0,0.0,0.0,0.0,0.0,0.0,0.0,0.0,0.0,0.0,0.0,0.0,0.0,0.0,0.0,0.0,0.0,0.0,0.0,0.0,0.0,0.0,0.0,0.0,0.0,0.0,0.0,0.0,0.0,0.0,0.0,0.0,0.0,0.0,0.0,0.0,0.0,0.0,0.0,0.0,0.0,0.0,0.0,0.0,0.0,0.0,0.0,0.0,0.0,0.0,0.0,0.0,0.0,0.0,0.0,0.0,0.0,0.0,0.0,0.0,0.0,0.0,0.0,0.0,0.0,0.0,0.0,0.0,0.0,0.0,0.0,0.0,0.0,0.0,0.0,0.0,0.0,0.0,0.0,0.0,0.0,0.0,0.0,0.0,0.0,0.0,0.0,0.0,0.0,0.0,0.0,0.0,0.0,0.0,0.0,0.0,0.0,0.0,0.0,0.0,0.0,0.0,0.0,0.0,0.0,0.0,0.0,0.0,0.0,0.0,0.0,0.0,0.0,0.0,0.0,0.0,0.0,0.0,0.0,0.0,0.0,0.0,0.0,0.0,0.0,0.0,0.0,0.0,0.0,0.0,0.0,0.0,0.0,0.0,0.0,0.0,0.0,0.0,0.0,0.0,0.0,0.0,0.0,0.0,0.0,0.0,0.0,0.0,0.0,0.0,0.0,0.0,0.0,0.0,0.0,0.0,0.0,0.0,0.0,0.0,0.0,0.0,0.0,0.0,0.0,0.0,0.0,0.0,0.0,0.0,0.0,0.0,0.0,0.0,0.0,0.0,0.0,0.0,0.0,0.0,0.0,0.0,0.0,0.0,0.0,0.0,0.0,0.0,0.0,0.0,0.0,0.0,0.0,0.0,0.0,0.0,0.0,0.0,0.0,0.0,0.0,0.0,0.0,0.0,0.0,0.0,0.0,0.0,0.0,0.0,0.0,0.0,0.0,0.0,0.0,0.0,0.0,0.0,0.0,0.0,0.0,0.0,0.0,0.0,0.0,0.0,0.0,0.0,0.0,0.0,0.0,0.0,0.0,0.0,0.0,0.0,0.0,0.0,0.0,0.0,0.0,0.0,0.0,0.0,0.0,0.0,0.0,0.0,0.0,0.0,0.0,0.0,0.0,0.0,0.0,0.0,0.0,0.0,0.0,0.0,0.0,0.0,0.0,0.0,0.0,0.0,0.0,0.0,0.0,0.0,0.0,0.0,0.0,0.0,0.0,0.0,0.0,0.0,0.0,0.0,0.0,0.0,0.0,0.0,0.0,0.0,0.0,0.0,0.0,0.0,0.0,0.0,0.0,0.0,0.0,0.0,0.0,0.0,0.0,0.0,0.0,0.0,0.0,0.0,0.0,0.0,0.0,0.0,0.0,0.0,0.0,0.0,0.0,0.0,0.0,0.0,0.0,0.0,0.0,0.0,0.0,0.0,0.0,0.0,0.0,0.0,0.0,0.0,0.0,0.0,0.0,0.0,0.0,0.0,0.0,0.0,0.0,0.0,0.0,0.0,0.0,0.0,0.0,0.0,0.0,0.0,0.0,0.0,0.0,0.0,0.0,0.0,0.0,0.0,0.0,0.0,0.0,0.0,0.0,0.0,0.0,0.0,0.0,0.0,0.0,0.0,0.0,0.0,0.0,0.0,0.0,0.0,0.0,0.0,0.0,0.0,0.0,0.0,0.0,0.0,0.0,0.0,0.0,0.0,0.0,0.0,0.0,0.0,0.0,0.0,0.0,0.0,0.0,0.0,0.0,0.0,0.0,0.0,0.0,0.0,0.0,0.0,0.0,0.0,0.0,0.0,0.0,0.0,0.0,0.0,0.0,0.0,0.0,0.0,0.0,0.0,0.0,0.0,0.0,0.0,0.0,0.0,0.0,0.0,0.0,0.0,0.0,0.0,0.0,0.0,0.0,0.0,0.0,0.0,0.0,0.0,0.0,0.0,0.0,0.0,0.0,0.0,0.0,0.0,0.0,0.0,0.0,0.0,0.0,0.0,0.0,0.0,0.0,0.0,0.0,0.0,0.0,0.0,0.0,0.0,0.0,0.0,0.0,0.0,0.0,0.0,0.0,0.0,0.0,0.0,0.0,0.0,0.0,0.0,0.0,0.0,0.0,0.0,0.0,0.0,0.0,0.0,0.0,0.0,0.0,0.0,0.0,0.0,0.0,0.0,0.0,0.0,0.0,0.0,0.0,0.0,0.0,0.0,0.0,0.0,0.0,0.0,0.0,0.0,0.0,0.0,0.0,0.0,0.0,0.0,0.0,0.0,0.0,0.0,0.0,0.0,0.0,0.0,0.0,0.0,0.0,0.0,0.0,0.0,0.0,0.0,0.0,0.0,0.0,0.0,0.0,0.0,0.0,0.0,0.0,0.0,0.0,0.0,0.0,0.0,0.0,0.0,0.0,0.0,0.0,0.0,0.0,0.0,0.0,0.0,0.0,0.0,0.0,0.0,0.0,0.0,0.0,0.0,0.0,0.0,0.0,0.0,0.0,0.0,0.0,0.0,0.0,0.0,0.0,0.0,0.0,0.0,0.0,0.0,0.0,0.0,0.0,0.0,0.0,0.0,0.0,0.0,0.0,0.0,0.0,0.0,0.0,0.0,0.0,0.0,0.0,0.0,0.0,0.0,0.0,0.0,0.0,0.0,0.0,0.0,0.0,0.0,0.0,0.0,0.0,0.0,0.0,0.0,0.0,0.0,0.0,0.0,0.0,0.0,0.0,0.0,0.0,0.0,0.0,0.0,0.0,0.0,0.0,0.0,0.0,0.0,0.0,0.0,0.0,0.0,0.0,0.0,0.0,0.0,0.0,0.0,0.0,0.0,0.0,0.0,0.0,0.0,0.0,0.0,0.0,0.0,0.0,0.0,0.0,0.0,0.0,0.0,0.0,0.0,0.0,0.0,0.0,0.0,0.0,0.0,0.0,0.0,0.0,0.0,0.0,0.0,0.0,0.0,0.0,0.0,0.0,0.0,0.0,0.0,0.0,0.0,0.0,0.0,0.0,0.0,0.0,0.0,0.0,0.0,0.0,0.0,0.0,0.0,0.0,0.0,0.0,0.0,0.0,0.0,0.0,0.0,0.0,0.0,0.0,0.0,0.0,0.0,0.0,0.0,0.0,0.0,0.0,0.0,0.0,0.0,0.0,0.0,0.0,0.0,0.0,0.0,0.0,0.0,0.0,0.0,0.0,0.0,0.0,0.0,0.0,0.0,0.0,0.0,0.0,0.0,0.0,0.0,0.0,0.0,0.0,0.0,0.0,0.0,0.0,0.0,0.0,0.0,0.0,0.0,0.0,0.0,0.0,0.0,0.0,0.0,0.0,0.0,0.0,0.0,0.0,0.0,0.0,0.0,0.0,0.0,0.0,0.0,0.0,0.0,0.0,0.0,0.0,0.0,0.0,0.0,0.0,0.0,0.0,0.0,0.0,0.0,0.0,0.0,0.0,0.0,0.0,0.0,0.0,0.0,0.0,0.0,0.0,0.0,0.0,0.0,0.0,0.0,0.0,0.0,0.0,0.0,0.0,0.0,0.0,0.0,0.0,0.0,0.0,0.0,0.0,0.0,0.0,0.0,0.0,0.0,0.0,0.0,0.0,0.0,0.0,0.0,0.0,0.0,0.0,0.0,0.0,0.0,0.0,0.0,0.0,0.0,0.0,0.0,0.0,0.0,0.0,0.0,0.0,0.0,0.0,0.0,0.0,0.0,0.0,0.0,0.0,0.0,0.0,0.0,0.0,0.0,0.0,0.0,0.0,0.0,0.0,0.0,0.0,0.0,0.0,0.0,0.0,0.0,0.0,0.0,0.0,0.0,0.0,0.0,0.0,0.0,0.0,0.0,0.0,0.0,0.0,0.0,0.0,0.0,0.0,0.0,0.0,0.0,0.0,0.0,0.0,0.0,0.0,0.0,0.0,0.0,0.0,0.0,0.0,0.0,0.0,0.0,0.0,0.0,0.0,0.0,0.0,0.0,0.0,0.0,0.0,0.0,0.0,0.0,0.0,0.0,0.0,0.0,0.0,0.0,0.0,0.0,0.0,0.0,0.0,0.0,0.0,0.0,0.0,0.0,0.0,0.0,0.0,0.0,0.0,0.0,0.0,0.0,0.0,0.0,0.0,0.0,0.0,0.0,0.0,0.0,0.0,-2.6415,0.0,0.0,0.0,0.0,0.0,0.0,0.0,0.0,0.0,0.0,0.0,0.0,0.0,0.0,0.0,0.0,0.0,0.0,0.0,0.0,0.0,0.0,0.0,0.0,0.0,0.0,0.0,0.0,0.0,0.0,0.0,0.0,0.0,0.0,0.0,0.0,0.0,0.0,0.0,-2.732,-2.8058,-2.9644,-2.9888,-2.9822,-2.9513,0.0,0.0,0.0,0.0,0.0,0.0,0.0,0.0,0.0,0.0,0.0,0.0,0.0,0.0,0.0,0.0,0.0,0.0,0.0,0.0,0.0,0.0,0.0,0.0,0.0,0.0,0.0,0.0,0.0,0.0,0.0,0.0,0.0,0.0,0.0,0.0,0.0,0.0,0.0,0.0,0.0,0.0,0.0,0.0,0.0,0.0,0.0,0.0,0.0,0.0,0.0,0.0,0.0,0.0,0.0,0.0,0.0,0.0,0.0,0.0,0.0,0.0,0.0,0.0,0.0,0.0,0.0,0.0,0.0,0.0,0.0,-2.7376,0.0,0.0,0.0,0.0,0.0,0.0,0.0,0.0,0.0,0.0,0.0,0.0,0.0,0.0,0.0,0.0,0.0,0.0,0.0,0.0,0.0,0.0,0.0,-2.681,-2.6215,-2.6873,-2.6109,-2.5918,0.0,0.0,0.0,0.0,0.0,0.0,0.0,-2.5075,-2.5895,-2.7675,-2.7909,-2.8717,-3.003,-3.0181,-3.0039,-2.9702,-2.9777,0.0,0.0,0.0,0.0,0.0,0.0,0.0,0.0,0.0,0.0,0.0,0.0,0.0,0.0,0.0,0.0,0.0,0.0,0.0,0.0,0.0,0.0,0.0,0.0,0.0,0.0,0.0,0.0,0.0,0.0,0.0,0.0,0.0,0.0,0.0,0.0,0.0,0.0,0.0,0.0,0.0,0.0,0.0,0.0,0.0,0.0,0.0,0.0,0.0,0.0,0.0,0.0,0.0,0.0,0.0,0.0,0.0,0.0,0.0,0.0,0.0,0.0,0.0,-2.8967,-2.8631,-2.8087,-2.8105,-2.794,-2.7678,-2.7742,-2.7587,-2.7345,-2.7771,0.0,0.0,0.0,0.0,0.0,0.0,0.0,0.0,0.0,0.0,0.0,0.0,0.0,0.0,0.0,0.0,0.0,0.0,0.0,0.0,0.0,-2.7892,-2.7779,-2.7822,-2.6973,-2.6487,-2.6612,0.0,0.0,0.0,0.0,0.0,-2.5459,-2.5264,-2.5972,-2.7605,-2.9338,-3.0298,-3.0521,-3.1289,-3.1667,-3.1672,-3.0302,-2.9664,-2.9607,0.0,0.0,0.0,0.0,0.0,0.0,0.0,0.0,0.0,0.0,0.0,0.0,0.0,0.0,0.0,0.0,0.0,0.0,0.0,0.0,0.0,0.0,0.0,0.0,0.0,0.0,0.0,0.0,0.0,0.0,0.0,0.0,0.0,0.0,0.0,0.0,0.0,0.0,0.0,0.0,0.0,-2.6365,-2.7427,0.0,0.0,0.0,0.0,0.0,0.0,0.0,0.0,0.0,0.0,0.0,0.0,0.0,-2.9297,-3.0649,-3.0023,-3.0023,-3.0667,-3.0391,-3.0071,-2.9685,-2.972,-2.9528,-2.9213,-2.951,0.0,-2.7299,-2.7376,0.0,0.0,0.0,0.0,0.0,0.0,0.0,0.0,0.0,0.0,0.0,0.0,0.0,0.0,0.0,0.0,0.0,0.0,0.0,0.0,0.0,-2.8749,-2.8338,-2.8794,-2.8029,-2.7524,-2.7556,-2.7083,0.0,0.0,0.0,-2.5867,-2.5393,-2.5186,-2.6028,-2.7937,-3.0321,-3.1708,-3.2117,-3.2403,-3.2636,-3.2766,-3.1461,-3.0653,-3.0244,-2.9906,0.0,0.0,0.0,0.0,0.0,0.0,0.0,0.0,0.0,0.0,0.0,0.0,0.0,0.0,0.0,0.0,0.0,0.0,0.0,0.0,0.0,0.0,0.0,0.0,0.0,0.0,0.0,0.0,0.0,0.0,0.0,0.0,0.0,0.0,0.0,0.0,0.0,0.0,0.0,-2.7045,-2.7331,-2.7108,-2.8008,-2.8651,0.0,0.0,0.0,0.0,0.0,0.0,0.0,0.0,0.0,-2.9977,-3.0111,-3.0713,-3.1836,-3.1973,-3.2375,-3.3027,-3.2419,-3.1948,-3.1653,-3.0533,-2.9904,-2.9774,-2.9758,-2.9554,-2.9161,-2.8627,-2.7971,-2.7313,0.0,0.0,0.0,0.0,-2.7862,-2.8108,0.0,0.0,0.0,0.0,0.0,0.0,0.0,0.0,0.0,0.0,0.0,0.0,-3.0652,-2.9832,-2.9347,-2.9794,-2.9205,-2.8754,-2.8596,-2.8028,-2.7446,0.0,-2.6539,-2.6039,-2.5363,-2.5779,-2.6944,-2.8875,-3.1524,-3.324,-3.403,-3.4061,-3.4177,-3.4372,-3.3315,-3.2048,-3.0689,-3.0264,-3.0021,-2.9999,0.0,0.0,0.0,0.0,0.0,0.0,0.0,0.0,0.0,0.0,0.0,0.0,0.0,0.0,0.0,0.0,0.0,0.0,0.0,0.0,0.0,0.0,0.0,0.0,0.0,0.0,0.0,0.0,0.0,0.0,0.0,0.0,0.0,0.0,0.0,0.0,0.0,-2.7736,-2.7881,-2.7091,-2.8355,-2.9223,0.0,0.0,0.0,0.0,0.0,0.0,-2.9955,-3.1195,-3.1722,-3.1294,-3.1704,-3.2491,-3.3716,-3.422,-3.4751,-3.5344,-3.4654,-3.4105,-3.3656,-3.2275,-3.155,-3.1323,-3.1077,-3.1046,-3.1029,-2.9656,-2.8601,-2.7848,-2.7739,-2.7887,-2.8176,-2.8268,-2.8788,-2.9497,0.0,0.0,0.0,0.0,0.0,0.0,0.0,0.0,0.0,0.0,0.0,-3.0703,-3.0781,-3.1401,-3.1523,-3.0796,-3.0589,-3.0159,-2.9392,-2.7782,-2.6838,-2.6804,-2.6055,-2.5602,-2.5492,-2.7593,-2.9349,-3.0673,-3.3295,-3.5076,-3.6084,-3.6632,-3.699,-3.7143,-3.6136,-3.3777,-3.0519,-3.0671,-3.045,-3.0007,-2.9999,0.0,0.0,0.0,0.0,0.0,0.0,0.0,0.0,0.0,0.0,0.0,0.0,0.0,0.0,0.0,0.0,0.0,0.0,0.0,0.0,0.0,0.0,0.0,0.0,0.0,0.0,0.0,0.0,0.0,0.0,0.0,0.0,0.0,0.0,0.0,0.0,0.0,0.0,-2.804,-2.9764,0.0,0.0,0.0,0.0,-3.1274,-3.2027,-3.2797,-3.3486,-3.3377,-3.3597,-3.4256,-3.3633,-3.4425,-3.6753,-3.6376,-3.6578,-3.7349,-3.6989,-3.6377,-3.5597,-3.5924,-3.5665,-3.4934,-3.4934,-3.393,-3.2124,-2.9501,-2.8815,-2.9281,-2.8159,-2.838,-2.9453,-2.9784,-3.0645,-3.1627,0.0,0.0,0.0,0.0,0.0,0.0,0.0,0.0,-3.0667,-3.0765,-3.0799,-2.9485,-2.6026,-2.9443,-3.0297,-2.6014,-2.8752,-3.0154,-2.8783,-2.7588,-2.6903,-2.6865,-2.6598,-2.6786,-2.755,-2.9303,-3.081,-3.2108,-3.4612,-3.6311,-3.7175,-3.7155,-3.7257,-3.7441,-3.6325,-3.4944,-3.3389,-3.2095,-3.1185,-3.054,-3.0105,-3.0103,0.0,0.0,0.0,0.0,0.0,0.0,0.0,0.0,0.0,0.0,0.0,0.0,0.0,0.0,0.0,0.0,0.0,0.0,0.0,0.0,0.0,0.0,0.0,0.0,0.0,0.0,0.0,0.0,0.0,0.0,0.0,0.0,0.0,0.0,0.0,0.0,0.0,-3.177,-3.1883,0.0,-3.2719,-3.2423,-3.2543,-3.3386,-3.4403,-3.5007,-3.5082,-3.6182,-3.6687,-3.6431,-3.6668,-3.7454,-3.8844,-3.9195,-3.979,-4.0579,-3.9951,-3.9191,-3.8387,-3.7809,-3.6826,-3.5497,-3.5301,-3.4813,-3.3984,-3.1317,-3.0213,-3.0265,-3.0318,-3.0595,-3.0972,-3.1115,-3.1664,-3.2334,0.0,0.0,0.0,0.0,0.0,0.0,0.0,0.0,-3.0605,-3.0684,-3.0735,-2.9529,-2.6298,-2.983,-3.0677,-2.6322,-2.944,-3.0827,-2.8865,-2.7905,-2.7248,-2.6913,-2.7107,-2.7931,-2.9489,-3.1027,-3.2611,-3.4179,-3.6273,-3.7622,-3.8218,-3.8005,-3.79,-3.7893,-3.7022,-3.651,-3.6196,-3.4228,-3.2735,-3.1637,-3.0901,-3.0731,-3.0767,0.0,0.0,0.0,0.0,0.0,0.0,0.0,0.0,0.0,0.0,0.0,0.0,0.0,0.0,0.0,0.0,0.0,0.0,0.0,0.0,0.0,0.0,0.0,0.0,0.0,0.0,0.0,0.0,0.0,0.0,0.0,0.0,0.0,0.0,0.0,-3.3232,-3.47,-3.4669,-3.4789,-3.5469,-3.5018,-3.5064,-3.5921,-3.693,-3.7546,-3.7598,-3.8816,-3.9276,-3.8726,-3.9239,-3.99,-4.0689,-4.124,-4.1772,-4.2286,-4.1497,-4.0836,-4.0286,-3.9524,-3.8423,-3.708,-3.6468,-3.5888,-3.5211,-3.3027,-3.2001,-3.1812,-3.1529,-3.1731,-3.2196,-3.2472,-3.2926,-3.3419,0.0,0.0,0.0,0.0,0.0,0.0,0.0,-3.0507,-3.0549,-3.0684,-3.0704,-3.0995,-3.178,-3.2704,-3.2884,-3.1936,-3.2668,-3.2165,-2.9764,-2.8664,-2.7774,-2.7,-2.7613,-2.8976,-3.1191,-3.2933,-3.4868,-3.6988,-3.8237,-3.9031,-3.9357,-3.9338,-3.9117,-3.8752,-3.8473,-3.8478,-3.8651,-3.6953,-3.5169,-3.3412,-3.2439,-3.2107,-3.2071,0.0,0.0,0.0,0.0,0.0,0.0,0.0,0.0,0.0,0.0,0.0,0.0,0.0,0.0,0.0,0.0,0.0,0.0,0.0,0.0,0.0,0.0,0.0,0.0,0.0,0.0,0.0,0.0,0.0,0.0,0.0,0.0,0.0,-3.3083,-3.4482,-3.5821,-3.6673,-3.8081,-3.8356,-3.6813,-3.8048,-3.8891,-3.8854,-3.957,-4.0341,-4.1148,-4.1185,-4.1185,-4.1185,-4.1185,-4.1552,-4.2323,-4.2341,-4.2341,-4.2323,-4.1552,-4.1167,-4.1148,-4.1148,-4.0689,-3.9845,-3.8733,-3.7312,-3.5634,-3.4548,-3.4062,-3.3799,-3.1655,-3.1733,-3.3059,-3.3835,-3.4553,-3.5067,0.0,0.0,0.0,0.0,0.0,0.0,0.0,-3.046,-3.052,-3.0618,-3.0672,-2.958,-2.6621,-2.9963,-3.078,-2.6661,-2.8896,-3.0288,-2.9646,-2.7577,-2.7061,-2.8571,-3.0433,-3.2262,-3.4028,-3.5642,-3.7279,-3.8926,-3.9779,-4.0484,-4.1045,-4.0535,-4.0235,-4.0042,-3.9388,-3.948,-4.0026,-3.9315,-3.8674,-3.785,-3.4255,-3.282,-3.2697,0.0,0.0,0.0,0.0,0.0,0.0,0.0,0.0,0.0,0.0,0.0,0.0,0.0,0.0,0.0,0.0,0.0,0.0,0.0,0.0,0.0,0.0,0.0,0.0,0.0,0.0,0.0,0.0,0.0,0.0,0.0,0.0,-3.481,-3.476,-3.6618,-3.8738,-4.0725,-4.0726,-4.1088,-4.2419,-4.1801,-4.1566,-4.2139,-4.2378,-4.2598,-4.2818,-4.2837,-4.2837,-4.2837,-4.2837,-4.2947,-4.3167,-4.3167,-4.3167,-4.3167,-4.2947,-4.2525,-4.1974,-4.1974,-4.1203,-3.9882,-3.958,-3.8162,-3.6138,-3.6159,-3.5439,-3.433,-3.3759,-3.4117,-3.4952,-3.4921,-3.4902,-3.4924,0.0,0.0,0.0,0.0,0.0,0.0,0.0,-3.0439,-3.0492,-3.0591,-3.0625,-2.9838,-2.7683,-3.0235,-3.0855,-2.7727,-2.9374,-3.0154,-2.9113,-2.7262,-2.7441,-3.0226,-3.1937,-3.4068,-3.6728,-3.7945,-3.9275,-4.0759,-4.1184,-4.1518,-4.1679,-4.12,-4.0914,-4.0682,-3.9881,-4.0155,-4.1192,-4.0401,-4.04,-4.0707,-3.7295,-3.5544,-3.4791,-3.334,-3.2791,-3.2722,-3.2264,-3.248,-3.2792,-3.173,0.0,0.0,0.0,0.0,0.0,0.0,0.0,0.0,0.0,0.0,0.0,0.0,0.0,0.0,0.0,0.0,0.0,0.0,0.0,0.0,0.0,0.0,0.0,0.0,-3.6024,-3.7782,-3.8396,-3.9713,-4.1501,-4.3934,-4.374,-4.3966,-4.5374,-4.4568,-4.4165,-4.461,-4.4646,-4.4612,-4.4595,-4.4265,-4.4046,-4.3993,-4.3663,-4.3497,-4.3497,-4.3497,-4.3497,-4.3497,-4.3149,-4.2928,-4.2782,-4.2451,-4.1791,-4.0891,-4.0543,-3.9423,-3.779,-3.7369,-3.6833,0.0,0.0,0.0,0.0,0.0,-3.4991,-3.4882,0.0,0.0,0.0,0.0,0.0,0.0,0.0,-3.0337,-3.0458,-3.0585,-3.0607,-3.0983,-3.1999,-3.2014,-3.1984,-3.209,-3.1934,-3.0843,-2.8566,-2.7897,-2.8935,-3.1932,-3.299,-3.5276,-3.9061,-3.9852,-4.0954,-4.2442,-4.2507,-4.2435,-4.2174,-4.1861,-4.1625,-4.1449,-4.0612,-4.1083,-4.2425,-4.1033,-4.1307,-4.2515,-4.0942,-3.9276,-3.7599,-3.6176,-3.5632,-3.5578,-3.5103,-3.4566,-3.3961,-3.3206,0.0,0.0,0.0,0.0,0.0,0.0,0.0,0.0,0.0,0.0,0.0,0.0,0.0,0.0,0.0,0.0,0.0,0.0,0.0,0.0,0.0,0.0,0.0,0.0,-3.8701,-4.1293,-4.3095,-4.3355,-4.4172,-4.6364,-4.6643,-4.6628,-4.6564,-4.6583,-4.6511,-4.6334,-4.6242,-4.6133,-4.5954,0.0,0.0,0.0,0.0,-4.3497,-4.3497,-4.3497,-4.3497,-4.3479,-4.2782,-4.28,-4.3461,-4.2671,-4.2304,-4.2268,-4.1552,-4.0726,-3.979,-3.8542,-3.8395,-3.881,-3.7228,-3.6256,-3.5756,-3.5283,-3.5035,-3.4882,0.0,0.0,0.0,0.0,0.0,0.0,0.0,-2.9982,-3.046,-3.0593,-3.0607,-3.0983,-3.1999,-3.1471,-3.1323,-3.2031,-3.086,-2.9822,-2.9235,-3.0845,-3.2389,-3.3677,-3.5881,-3.806,-4.0089,-4.1053,-4.2268,-4.3808,-4.3624,-4.4104,-4.5157,-4.4132,-4.4124,-4.4963,-4.3876,-4.3983,-4.4838,-4.3754,-4.3669,-4.4193,-4.3185,-4.1442,-3.927,-3.7695,-3.7088,-3.6942,-3.5665,-3.6031,-3.6795,-3.4953,-3.5093,-3.5699,-3.3618,-3.239,0.0,0.0,0.0,0.0,0.0,0.0,0.0,0.0,0.0,0.0,0.0,0.0,0.0,0.0,0.0,0.0,0.0,0.0,0.0,-3.9946,-4.1497,-4.3373,-4.6345,-4.6754,-4.6921,-4.7404,-4.7411,-4.7636,-4.825,-4.8216,-4.7884,-4.722,-4.6574,-4.5893,-4.5162,-4.4334,-4.3787,-4.3718,-4.3571,-4.3497,-4.3497,-4.3497,-4.3497,-4.3497,0.0,0.0,-4.3461,-4.2671,-4.2304,-4.2286,-4.2139,-4.124,-3.9974,-4.0965,-4.1075,-4.0423,-3.8513,-3.697,-3.5846,-3.6145,-3.568,-3.4882,0.0,0.0,0.0,0.0,0.0,0.0,0.0,-2.9533,-2.9989,-3.0532,-3.063,-3.0847,-3.1383,-3.1067,-3.0819,-3.086,-2.9647,-2.921,-2.9951,-3.1532,-3.3359,-3.5406,-3.7497,-3.9585,-4.1723,-4.2552,-4.3556,-4.4806,-4.4586,-4.474,-4.5232,-4.4744,-4.4691,-4.5077,-4.4677,-4.4833,-4.5399,-4.4481,-4.4211,-4.4327,-4.3739,-4.266,-4.1282,-4.0276,-3.9643,-3.916,-3.8164,-3.8098,-3.8287,-3.6539,-3.6214,-3.6136,-3.4067,-3.3047,-3.2422,0.0,0.0,0.0,0.0,0.0,0.0,0.0,0.0,0.0,0.0,0.0,0.0,0.0,0.0,-3.582,0.0,0.0,-4.0448,-4.2463,-4.3838,-4.5361,-4.7404,-4.8054,-4.8296,-4.8296,-4.828,-4.8412,-4.8802,-4.8785,-4.8583,-4.8175,-4.7787,-4.7124,-4.619,-4.536,-4.4665,-4.4121,-4.3699,-4.3497,-4.3497,-4.3497,-4.3497,-4.3497,-4.3497,-4.3699,-4.4066,-4.3259,-4.3112,-4.3479,-4.3075,-4.2433,-4.1754,-4.2561,-4.2194,-4.1042,-4.0437,-3.9117,-3.7612,-3.7958,-3.7486,-3.665,0.0,0.0,0.0,0.0,0.0,0.0,0.0,-2.8859,-2.9303,-3.0233,-3.0397,-3.0464,-3.054,-3.0551,-3.0284,-2.9667,-2.8882,-2.9193,-3.0994,-3.2035,-3.3909,-3.6881,-3.8654,-4.0636,-4.2917,-4.3599,-4.4381,-4.5302,-4.509,-4.4889,-4.4655,-4.4615,-4.4526,-4.4452,-4.4795,-4.5173,-4.55,-4.4756,-4.4447,-4.4395,-4.3777,-4.3304,-4.2941,-4.2496,-4.1901,-4.1185,-4.0318,-3.95,-3.8635,-3.7459,-3.6456,-3.5446,-3.4076,-3.3508,-3.303,-3.1368,-3.0835,0.0,0.0,0.0,0.0,0.0,0.0,0.0,0.0,0.0,-3.4498,-3.5498,-3.7426,-3.9175,-3.99,-4.1683,-4.3392,-4.4544,-4.5714,-4.6773,-4.759,-4.8259,-4.8612,-4.8444,-4.8574,-4.8667,-4.8667,-4.8667,-4.8723,-4.889,-4.876,-4.832,-4.7478,-4.6517,-4.5635,-4.4762,-4.3989,-4.3532,-4.3513,-4.3513,-4.3513,-4.3497,-4.3497,-4.3828,-4.4452,-4.3791,-4.3846,-4.4433,-4.3773,-4.3497,-4.3497,-4.3497,-4.2745,-4.1644,-4.2286,-4.1439,-3.9873,-3.9664,-3.912,-3.8518,0.0,0.0,0.0,0.0,0.0,0.0,0.0,0.0,-2.8444,-2.9332,-2.9457,-2.9509,-2.9624,-2.9654,-2.9639,-2.9606,-2.9393,-3.0302,-3.2756,-3.4225,-3.5844,-3.769,-3.9998,-4.1648,-4.2538,-4.3292,-4.4079,-4.4967,-4.4447,-4.4597,-4.5286,-4.4345,-4.4388,-4.5269,-4.5743,-4.6127,-4.6397,-4.5919,-4.5682,-4.5553,-4.4103,-4.3479,-4.3371,-4.2598,-4.2216,-4.1815,-3.978,-3.8357,-3.7344,-3.685,-3.5999,-3.519,-3.5225,-3.4624,-3.3642,-3.2331,-3.132,-3.0621,-3.0592,-3.1094,-3.1793,-3.2548,-3.2869,-3.3915,0.0,0.0,-3.8104,-4.0337,-4.1553,-4.25,-4.3299,-4.367,-4.4618,-4.6903,-4.6847,-4.6773,-4.759,-4.7776,-4.7571,-4.6847,-4.7404,-4.7831,-4.7831,-4.7831,-4.8129,-4.8853,-4.824,-4.776,-4.7583,-4.6101,-4.5127,-4.497,-4.4195,-4.3719,-4.3582,-4.3582,-4.3548,-4.3497,-4.3497,-4.3534,-4.3626,-4.3534,-4.3534,-4.3626,-4.3534,-4.3497,-4.3497,-4.3497,-4.3387,-4.3222,-4.3314,-4.2766,-4.175,-4.0116,-3.9236,-3.8738,0.0,0.0,0.0,0.0,0.0,0.0,0.0,0.0,0.0,-2.8415,-2.8579,-2.8819,-2.9374,-2.9445,-2.9258,-2.8825,-2.9136,-2.999,-3.1525,-3.4063,-3.6009,-3.7145,-4.0046,-4.1933,-4.2598,-4.3225,-4.3918,-4.4662,-4.4355,-4.4184,-4.4103,-4.3831,-4.3737,-4.3868,-4.4965,-4.5561,-4.5624,-4.5263,-4.5102,-4.4975,-4.3668,-4.285,-4.2231,-4.0756,-3.9913,-3.9418,-3.8541,-3.7424,0.0,-3.5497,-3.4989,-3.4543,-3.4068,-3.366,-3.3091,-3.1648,-3.1297,-3.1325,-3.1113,-3.177,-3.2915,-3.4485,-3.5755,-3.734,-3.9965,-4.0719,-4.1239,-4.2686,-4.4042,-4.5064,-4.5379,-4.5844,-4.6494,0.0,-4.7423,-4.7311,-4.7646,-4.7701,-4.7033,-4.5249,-4.5342,-4.5937,-4.6903,-4.6995,-4.7348,-4.8147,-4.7887,-4.7667,-4.7583,-4.6453,-4.5771,-4.5688,-4.4469,-4.3992,-4.4402,-4.3959,-4.3719,-4.3686,-4.3686,-4.3925,-4.4368,-4.3821,-4.3532,-4.3497,-4.3497,-4.3497,-4.3497,-4.3497,-4.3497,-4.3497,-4.3497,-4.3277,-4.2878,-4.1977,-4.1071,-4.0276,0.0,0.0,0.0,0.0,0.0,0.0,0.0,0.0,0.0,0.0,-2.769,-2.7956,-2.8598,-2.849,-2.831,-2.8209,-2.8689,-2.9533,-3.084,-3.3422,-3.5353,-3.6334,-3.9307,-4.1243,-4.1892,-4.2724,-4.3316,-4.3671,-4.3754,-4.3304,-4.2466,-4.2768,-4.2561,-4.2103,-4.3494,-4.4197,-4.4337,-4.4254,-4.4282,-4.4283,-4.3057,-4.1959,-4.0941,-3.9072,-3.7403,-3.607,-3.6133,-3.533,-3.4132,-3.3258,-3.2952,-3.2809,-3.2344,-3.2363,-3.2377,-3.1331,-3.1427,-3.1883,-3.1795,-3.2865,-3.4556,-3.6796,-3.8785,-4.0681,-4.2519,-4.3423,-4.4104,-4.4859,-4.6006,-4.6731,-4.6234,-4.6675,-4.714,-4.7363,-4.7181,-4.7107,-4.7363,-4.6958,-4.5937,-4.3912,-4.3466,-4.3801,-4.5026,-4.5547,-4.6234,-4.7293,-4.7367,-4.7426,-4.7617,-4.6598,-4.6101,-4.6274,-4.4702,-4.4147,-4.4687,-4.4114,-4.3837,-4.3804,-4.3804,-4.4118,-4.4653,-4.4165,-4.3913,-4.3862,-4.3828,-4.3699,-4.3497,-4.3497,-4.3497,-4.3497,-4.3497,-4.3497,-4.3516,-4.3524,-4.272,-4.1629,0.0,0.0,0.0,0.0,0.0,0.0,0.0,0.0,0.0,0.0,0.0,0.0,0.0,-2.6176,-2.6398,-2.8048,-2.8219,-2.9289,-3.1787,-3.2729,-3.3873,-3.547,-3.7801,-3.9337,-3.9889,-4.143,-4.2044,-4.1605,-4.2174,-4.1827,-4.0599,-4.0945,-4.0813,-4.0403,-4.1419,-4.222,-4.2818,-4.3223,-4.3701,-4.3987,-4.2301,-4.0975,-3.9772,-3.8138,-3.5288,-3.215,-3.2101,-3.148,-3.0549,-2.9864,-2.9522,-2.9511,-3.0392,-3.1195,-3.1853,-3.2,-3.1976,-3.2057,-3.2771,-3.4736,-3.7169,-3.9658,-4.1497,-4.3318,-4.5788,-4.6364,-4.6624,-4.7423,-4.7675,-4.7262,-4.5653,-4.5406,-4.573,-4.6512,-4.5927,-4.5672,-4.6531,-4.5183,-4.3782,-4.2946,-4.2147,-4.1683,0.0,-4.315,-4.4766,-4.6401,-4.6531,-4.6884,-4.7664,-4.6197,-4.5695,-4.6475,-4.4878,-4.3961,-4.3934,-4.3915,-4.3851,-4.3804,-4.3804,-4.3822,-4.3859,-4.4478,-4.4812,-4.4867,-4.4726,-4.4213,-4.3497,-4.3497,-4.3497,-4.3497,-4.3497,-4.3497,-4.3589,-4.4163,-4.3554,-4.2396,0.0,0.0,0.0,0.0,0.0,0.0,0.0,0.0,0.0,0.0,0.0,0.0,0.0,0.0,0.0,0.0,-2.7835,-2.8748,-3.0179,-3.1551,-3.2787,-3.3868,-3.5631,-3.6859,-3.7413,-3.7713,-3.8133,-3.8652,-3.8771,-3.8645,-3.8307,-3.8344,-3.8409,-3.859,-3.9364,-4.0051,-4.07,-4.0882,-4.1389,-4.1845,-3.9674,-3.861,-3.7936,-3.4669,-3.2519,-3.0918,0.0,-2.8161,-2.8542,-2.8705,-2.8745,-2.8858,-2.9582,-3.0049,-3.0558,-3.1699,-3.2387,-3.3231,-3.5406,-3.7525,-3.9834,-4.2617,-4.4304,-4.5751,-4.7664,-4.7698,-4.7285,-4.7024,-4.5711,-4.4084,-4.2425,-4.2126,-4.2435,-4.3293,-4.4084,-4.4922,-4.5693,-4.5289,-4.4228,-4.2281,-4.2251,0.0,0.0,0.0,0.0,-4.4766,-4.5379,-4.6048,-4.6865,-4.5881,-4.5658,-4.6475,-4.4878,-4.4283,-4.4827,-4.4271,-4.3961,-4.3929,-4.4503,-4.4453,-4.392,-4.522,-4.5137,-4.4076,-4.4612,-4.4338,-4.3497,-4.3497,-4.3497,-4.3497,-4.3497,-4.3497,-4.3589,-4.42,-4.4123,-4.3769,0.0,0.0,0.0,0.0,0.0,0.0,0.0,0.0,0.0,0.0,0.0,0.0,0.0,0.0,0.0,0.0,0.0,-2.8078,-2.8926,-2.9991,-3.1076,-3.22,-3.3451,-3.452,-3.5389,-3.5515,-3.5762,-3.6149,-3.6318,-3.6146,-3.5687,-3.5733,-3.585,-3.6011,-3.6395,-3.6991,-3.7698,-3.7637,-3.7982,-3.8324,-3.6434,-3.5357,-3.4587,-3.174,-2.9975,0.0,-2.6693,-2.6464,-2.7157,-2.7497,-2.7827,-2.8223,-2.8839,-2.97,-3.075,-3.2054,-3.3433,-3.5174,-3.8174,-4.0314,-4.2359,-4.513,-4.6635,-4.7605,-4.833,-4.7932,-4.6936,-4.5227,-4.3423,-4.1483,-3.9178,-3.9037,-3.9522,-4.039,-4.1409,-4.2687,-4.4386,-4.4076,-4.3301,-4.2276,-4.234,-4.2236,0.0,0.0,0.0,-4.3931,-4.4525,-4.5324,-4.6438,-4.5732,-4.5788,-4.6884,-4.5602,-4.5157,-4.5714,-4.4896,-4.4302,-4.4005,-4.4562,-4.4679,-4.4411,-4.5416,-4.5238,-4.4143,-4.4662,-4.4354,-4.3513,-4.3532,-4.3497,-4.3497,-4.3497,-4.3497,-4.3626,-4.4547,-4.4673,-4.4414,0.0,0.0,0.0,0.0,0.0,0.0,0.0,0.0,0.0,0.0,0.0,0.0,0.0,0.0,0.0,0.0,0.0,0.0,-2.8082,-2.8144,-2.8867,-3.0502,-3.1229,-3.2261,-3.3643,-3.4476,-3.4599,-3.3952,-3.4574,-3.4119,-3.2644,-3.3103,-3.3052,-3.2679,-3.2679,-3.311,-3.3852,-3.3722,-3.3731,-3.3743,-3.2773,-3.1474,-3.0068,-2.9366,-2.7792,-2.5965,-2.6008,-2.6217,-2.6454,-2.6308,-2.6862,-2.7759,-2.8385,-3.0264,-3.2364,-3.3212,-3.5165,-3.7753,-4.0942,-4.2965,-4.4766,-4.7163,-4.8438,-4.8859,-4.7891,-4.7079,-4.5592,-4.2296,-4.0913,-3.9338,0.0,0.0,-3.7117,-3.8053,-3.8221,-3.941,-4.281,-4.1838,-4.1334,0.0,0.0,0.0,0.0,0.0,0.0,-4.4005,0.0,-4.4766,-4.6345,-4.5714,-4.5992,-4.7534,-4.6828,-4.642,-4.6364,-4.5602,-4.4822,-4.4005,-4.4042,-4.4506,-4.5305,-4.5245,-4.5175,-4.5101,-4.4936,-4.4407,-4.3582,-4.3532,-4.3497,-4.3497,-4.3497,-4.3497,-4.3681,-4.5187,-4.5186,-4.4487,0.0,0.0,0.0,0.0,0.0,0.0,0.0,0.0,0.0,0.0,0.0,0.0,0.0,0.0,0.0,0.0,0.0,0.0,-2.724,-2.7265,-2.7705,-2.8784,-2.8782,-2.8919,-2.9294,-2.9279,-2.9341,-2.9537,-2.9457,-2.9326,-2.9171,-2.9088,-2.9221,-2.9541,-2.9541,-2.9972,-3.0679,-3.0626,-3.0938,-3.1266,-2.9816,-2.9269,-2.909,-2.7135,-2.6563,-2.6641,-2.5487,-2.6039,-2.7332,-2.7163,-2.8753,-3.0865,-3.103,-3.2337,-3.4222,-3.6248,-3.81,-4.0207,-4.3483,-4.5523,-4.7051,-4.8296,-4.8847,-4.8543,-4.6406,-4.4946,-4.3072,-3.9799,-3.7061,-3.4989,-3.4105,-3.4164,0.0,-3.7845,-3.9302,0.0,-4.3709,-4.3709,0.0,-4.3175,0.0,-4.4109,-4.2922,-4.4524,0.0,0.0,-4.4984,-4.5157,-4.5565,-4.5398,-4.5491,-4.59,-4.5714,-4.5287,-4.4636,-4.4432,-4.4228,-4.4005,-4.4655,-4.5082,-4.5342,-4.6498,-4.6335,-4.5138,-4.5614,-4.501,-4.3582,-4.3532,-4.3497,-4.3497,-4.3497,-4.3497,-4.3608,-4.4565,-4.5076,-4.5362,0.0,0.0,0.0,0.0,0.0,0.0,0.0,0.0,0.0,0.0,0.0,0.0,0.0,0.0,0.0,0.0,0.0,0.0,0.0,-2.6382,-2.6758,-2.7636,-2.744,-2.7479,-2.7865,-2.7593,-2.7547,-2.773,-2.7397,-2.7191,-2.7102,-2.6816,-2.6754,-2.6902,-2.6902,-2.7144,-2.7523,-2.7601,-2.7712,0.0,0.0,-2.6754,-2.6762,-2.5541,-2.5481,-2.5944,-2.5192,-2.6062,-2.7828,-2.9542,-3.1224,-3.2812,-3.388,-3.5356,-3.7149,-3.9605,-4.1446,-4.3247,-4.5792,-4.7388,-4.8438,-4.89,-4.8557,-4.7396,-4.4878,-4.2885,-4.054,-3.6841,-3.4652,-3.3081,-3.1973,-3.2349,-3.3569,0.0,0.0,0.0,-4.2433,-4.3127,-4.3596,0.0,-4.4739,0.0,-4.4851,-4.5623,-4.6103,0.0,-4.5871,-4.5974,-4.6327,-4.6011,-4.6141,-4.6865,-4.6197,-4.5417,-4.4581,-4.4562,-4.4376,-4.4005,-4.4506,-4.4729,-4.4748,-4.5658,-4.5533,-4.4652,0.0,-4.4915,-4.3704,-4.3918,-4.3809,-4.3497,-4.3497,-4.3497,-4.3644,-4.4747,-4.5351,-4.5765,0.0,0.0,0.0,0.0,0.0,0.0,0.0,0.0,0.0,0.0,-2.5087,-2.5149,0.0,0.0,0.0,0.0,0.0,0.0,0.0,0.0,-2.6044,-2.6795,-2.6712,-2.6987,-2.774,-2.7572,-2.7369,-2.7176,-2.6839,-2.6376,-2.5841,-2.5481,-2.5103,-2.4763,-2.4723,-2.4695,-2.4723,-2.4813,-2.469,-2.4444,-2.4562,-2.4454,-2.4247,0.0,-2.4764,-2.4972,-2.5495,-2.6428,-2.8048,-3.2199,-3.3732,-3.4298,-3.6798,-3.8807,-4.0678,-4.295,-4.4635,-4.6094,-4.7684,-4.8609,-4.9098,-4.9067,-4.7778,-4.5866,-4.3212,-4.0783,-3.7943,-3.3907,-3.2987,-3.2292,-3.0246,-3.1016,-3.2367,-3.3703,0.0,-3.7249,-4.0647,-4.1736,-4.305,-4.5416,-4.5078,-4.5256,-4.6772,-4.6199,-4.602,-4.6669,-4.6698,-4.6954,-4.7531,-4.6899,-4.7088,-4.8389,-4.6958,-4.5881,-4.5305,-4.5175,-4.4748,-4.4005,-4.4005,-4.4061,-4.4172,-4.4172,-4.4172,-4.4209,-4.4757,-4.4543,-4.3826,-4.4338,-4.4121,-4.3497,-4.3608,-4.3644,-4.3846,-4.5461,-4.5919,-4.5947,0.0,0.0,0.0,0.0,0.0,0.0,0.0,0.0,0.0,0.0,-2.5264,-2.5253,0.0,0.0,0.0,0.0,0.0,0.0,0.0,0.0,0.0,-2.5918,-2.5857,-2.5857,-2.594,-2.5809,-2.5658,-2.5531,-2.5114,-2.481,-2.4598,-2.4057,-2.3709,-2.3565,-2.331,-2.3188,-2.3188,-2.3162,-2.3307,-2.3606,-2.3629,-2.393,-2.4373,-2.4442,0.0,0.0,-2.7693,-2.7921,-2.8103,-3.2217,-3.4842,-3.6798,-3.9296,-4.1649,-4.3791,-4.5319,-4.614,-4.6825,-4.8259,-4.8919,-4.9048,-4.8375,-4.6999,-4.4766,-4.0929,-3.8227,-3.5559,-3.2067,-3.0809,-3.0415,-3.0715,-3.096,-3.2294,-3.5951,-3.6754,-3.8281,-4.2299,-4.2994,-4.3726,0.0,-4.5585,-4.5885,-4.6888,-4.6754,0.0,0.0,-4.7367,-4.7471,-4.6815,-4.6648,-4.6373,-4.5937,-4.4952,-4.4711,-4.5287,-4.4581,-4.4153,-4.4005,-4.4005,-4.4376,-4.5064,-4.5064,-4.5064,-4.5082,-4.5016,0.0,-4.3789,-4.3713,-4.3626,-4.3552,-4.4232,-4.4488,-4.469,-4.6305,-4.676,-4.6752,0.0,0.0,0.0,0.0,0.0,0.0,0.0,-2.524,-2.5512,-2.5505,-2.5473,-2.5422,-2.5321,-2.5357,-2.5422,0.0,0.0,0.0,0.0,0.0,0.0,0.0,0.0,0.0,-2.5549,-2.5425,-2.5301,-2.5154,0.0,-2.4685,-2.4296,-2.3986,-2.3702,-2.35,-2.3265,-2.317,-2.3218,-2.3307,-2.3473,-2.3714,-2.378,-2.406,-2.4459,0.0,0.0,0.0,0.0,-2.7586,-2.8075,-3.1775,-3.4262,-3.6389,-3.9721,-4.2152,-4.4158,-4.6085,-4.6744,-4.718,-4.8716,-4.9197,-4.9089,-4.8315,-4.5881,-4.2828,-3.9577,-3.6287,-3.3231,-3.079,-3.0321,-3.0376,-3.0393,-3.1091,-3.2468,-3.4881,-3.5593,-3.7299,-4.1417,-4.1999,-4.2919,-4.5416,-4.5341,-4.5585,-4.688,-4.6532,-4.6596,-4.7459,-4.7897,-4.7673,-4.6688,-4.6637,-4.5996,-4.4674,-4.4655,-4.4655,-4.4618,-4.4209,-4.4005,-4.4005,-4.4005,-4.4228,-4.4618,-4.4618,-4.4618,-4.4655,-4.4887,-4.4543,-4.3808,-4.4026,-4.3883,-4.3534,-4.392,-4.4085,-4.4268,-4.5883,-4.6377,-4.6446,0.0,0.0,0.0,0.0,0.0,0.0,-2.4078,-2.4812,-2.5362,-2.5403,-2.555,-2.559,-2.5478,-2.5464,-2.5506,0.0,0.0,0.0,0.0,0.0,0.0,0.0,0.0,0.0,0.0,0.0,0.0,0.0,-2.5214,0.0,0.0,0.0,0.0,0.0,-2.3653,-2.3588,-2.3649,-2.3774,-2.3896,0.0,0.0,-2.432,0.0,0.0,0.0,0.0,0.0,0.0,-2.7989,-3.095,-3.2975,-3.4827,-3.8188,-4.086,-4.3219,-4.5481,-4.6419,-4.7087,-4.8727,-4.9259,-4.9059,-4.7969,-4.4627,-4.0982,-3.8394,-3.4717,-3.1468,-3.002,-3.0281,-3.0636,-3.0182,-3.1218,-3.2446,-3.3412,-3.4243,-3.605,-3.9776,-4.0616,-4.1987,-4.5078,-4.489,0.0,-4.6843,-4.6054,0.0,-4.7819,-4.7763,-4.7384,-4.6782,-4.6333,-4.5488,-4.4092,-4.4705,-4.4724,-4.4005,-4.4005,-4.4005,-4.4005,-4.4005,-4.4005,-4.4005,-4.4005,-4.4005,-4.4042,-4.455,-4.4376,0.0,-4.4299,-4.4066,-4.3516,-4.3681,-4.3846,-4.4158,-4.5424,-4.6067,-4.6449,0.0,0.0,0.0,0.0,0.0,0.0,-2.3081,-2.3942,-2.4507,-2.451,-2.5192,-2.5695,-2.5679,-2.5679,-2.5652,0.0,0.0,0.0,0.0,0.0,0.0,0.0,0.0,0.0,0.0,0.0,0.0,0.0,0.0,0.0,0.0,0.0,0.0,0.0,0.0,0.0,-2.3756,-2.3671,0.0,0.0,0.0,0.0,0.0,0.0,0.0,0.0,0.0,0.0,-2.7944,-2.9646,-3.1331,-3.2874,-3.3942,-3.7367,-4.1334,-4.2903,-4.4524,-4.6157,-4.7697,-4.8809,-4.8927,-4.6523,-4.3407,-4.0065,-3.6927,-3.356,-3.0846,-2.996,-2.9897,-3.0229,-3.0947,-3.121,-3.1853,-3.35,-3.4395,-3.5777,-3.8346,-4.0024,-4.1876,-4.4308,0.0,0.0,-4.6843,-4.5566,-4.5322,-4.6993,-4.6373,-4.6213,-4.6855,-4.5361,-4.4423,-4.4184,-4.4258,-4.4209,-4.4005,-4.4005,-4.4005,-4.4005,-4.4005,-4.4005,-4.4005,-4.4005,-4.4005,-4.4005,-4.4003,-4.3925,0.0,-4.3708,-4.3621,-4.3552,-4.4305,-4.5039,-4.57,-4.5847,-4.6763,-4.7895,0.0,0.0,0.0,0.0,0.0,0.0,-2.227,-2.3497,-2.4202,-2.368,-2.4378,-2.4728,-2.4196,-2.4141,-2.4336,-2.4836,0.0,0.0,0.0,0.0,0.0,0.0,0.0,0.0,0.0,0.0,-2.5585,-2.5466,-2.5368,0.0,0.0,0.0,0.0,0.0,0.0,0.0,0.0,0.0,0.0,0.0,0.0,0.0,0.0,0.0,0.0,0.0,0.0,0.0,-2.7216,-2.8802,-2.9446,-2.9783,-3.1067,-3.2749,-3.5052,-3.9133,-4.1519,-4.3281,-4.5435,-4.6985,-4.7387,-4.4936,-4.1858,-3.87,-3.5962,-3.2751,-3.0236,-2.9933,-2.9959,-3.0269,-3.1105,-3.0906,-3.1131,-3.2811,-3.249,0.0,-3.6589,-3.7149,-3.8686,-4.2629,-4.3039,0.0,0.0,0.0,-4.4984,-4.6129,-4.5904,-4.5848,-4.6146,-4.5019,-4.4344,-4.4255,-4.4214,-4.4184,-4.4135,-4.4036,-4.4005,-4.4005,-4.4005,-4.4005,-4.4005,-4.4005,-4.4005,-4.4005,-4.3929,-4.3851,0.0,-4.3667,-4.3548,-4.3516,-4.3846,-4.447,-4.5241,-4.5718,-4.6599,-4.7551,0.0,0.0,0.0,0.0,0.0,-2.1419,-2.1416,-2.2686,-2.341,-2.2809,-2.3469,-2.378,-2.3171,-2.2862,-2.2962,-2.361,-2.3549,0.0,0.0,0.0,0.0,0.0,0.0,0.0,0.0,0.0,-2.5538,-2.5172,-2.5357,-2.529,0.0,0.0,0.0,0.0,0.0,0.0,0.0,0.0,0.0,0.0,0.0,0.0,0.0,0.0,0.0,0.0,0.0,0.0,0.0,0.0,0.0,-2.8583,-2.9751,-3.0068,-3.0937,-3.578,-3.8442,-4.0354,-4.2655,-4.4414,-4.502,-4.2567,-3.984,-3.7171,-3.4756,-3.2005,-2.9956,-2.9956,-3.0053,-3.0365,-3.1169,-3.0924,-3.0954,-3.206,-3.168,-3.2235,-3.504,-3.5475,-3.6906,-4.0651,0.0,-4.2213,0.0,-4.4421,-4.5003,-4.5322,-4.5566,-4.5604,-4.5359,-4.4758,-4.4401,-4.4344,-4.4285,-4.4244,-4.4184,-4.4104,-4.4036,-4.4005,-4.4005,-4.4005,-4.4005,-4.4005,-4.4005,-4.4005,-4.3961,-4.3883,0.0,-4.3719,-4.36,-4.3497,-4.3497,-4.3993,-4.4782,-4.5351,-4.6214,-4.7167,0.0,0.0,0.0,0.0,0.0,0.0,-2.0503,-2.1252,-2.182,-2.1818,-2.2581,-2.3113,-2.3103,-2.232,-2.1835,-2.1918,-2.3423,0.0,0.0,0.0,0.0,0.0,0.0,0.0,0.0,0.0,-2.5286,-2.4413,-2.5133,-2.5406,-2.5192,-2.5053,-2.4896,0.0,0.0,0.0,0.0,0.0,0.0,0.0,0.0,0.0,0.0,0.0,0.0,0.0,0.0,0.0,0.0,0.0,0.0,0.0,0.0,-3.0204,-3.0686,-3.3127,-3.5552,-3.7804,-3.9491,-4.1116,-4.1732,-3.918,-3.7322,-3.5495,-3.3082,-3.1267,-3.0102,-3.0102,-3.0161,-3.0419,-3.115,-3.1401,-3.1465,-3.1427,-3.286,-3.3936,-3.3855,-3.5931,-3.7734,0.0,0.0,-4.1205,-4.1961,-4.4252,-4.5359,-4.459,-4.5247,0.0,-4.4552,-4.4515,-4.4487,-4.4383,-4.4383,-4.4344,-4.4184,-4.4184,-4.4135,-4.4005,-4.4005,-4.4005,-4.4005,-4.4005,-4.4005,-4.4005,-4.4005,-4.3929,0.0,-4.3804,-4.3686,-4.3497,-4.3497,-4.3993,-4.4709,-4.4727,-4.5736,-4.7094,0.0,0.0,0.0,0.0,0.0,0.0,-2.0506,-2.123,-2.1606,-2.1048,-2.1708,-2.2003,-2.1448,-2.1154,-2.0998,-2.1003,-2.1491,0.0,0.0,0.0,0.0,0.0,0.0,0.0,0.0,-2.4366,-2.4645,-2.4335,-2.5127,-2.5418,-2.5264,-2.5179,-2.4994,-2.4783,-2.4757,0.0,0.0,0.0,0.0,0.0,0.0,0.0,0.0,0.0,0.0,0.0,0.0,0.0,0.0,0.0,0.0,0.0,0.0,0.0,0.0,-3.0954,-3.3037,-3.5173,-3.6255,-3.7694,-3.8426,-3.6556,-3.5325,-3.4051,-3.2229,-3.0963,-3.0176,-3.0176,-3.019,-3.0452,-3.1283,-3.0973,-3.0987,-3.2114,-3.2248,-3.2615,0.0,0.0,0.0,-3.9164,-4.1776,-4.3453,0.0,0.0,-4.4777,-4.4533,-4.474,-4.4777,-4.4515,-4.4515,-4.4487,-4.4487,-4.4411,-4.4383,-4.4344,-4.4244,-4.4184,-4.4135,-4.4036,-4.4005,-4.4005,-4.4005,-4.4005,-4.4005,-4.4005,-4.3961,0.0,-4.3837,-4.3719,-4.3548,-4.3532,-4.3993,-4.4709,-4.4709,-4.5369,-4.6287,0.0,0.0,0.0,0.0,0.0,0.0,-2.0506,-2.0982,-2.1165,-2.0636,-2.1028,-2.1152,-2.0651,-2.0591,-2.059,-2.0593,-2.0596,0.0,0.0,0.0,0.0,0.0,0.0,0.0,-2.2585,-2.3754,-2.4172,-2.3811,-2.4966,-2.5478,-2.5331,-2.5303,-2.5115,-2.4847,-2.4837,-2.4783,0.0,0.0,0.0,0.0,0.0,0.0,-2.5194,0.0,0.0,0.0,0.0,0.0,0.0,0.0,0.0,0.0,0.0,0.0,0.0,0.0,-3.1268,-3.2616,-3.3384,-3.4546,-3.5249,-3.3918,-3.3285,-3.2575,-3.1298,-3.0586,-3.0204,-3.0204,-3.0204,-3.0357,-3.0911,-3.0815,-3.1006,-3.2076,-3.2325,-3.2764,0.0,0.0,0.0,-3.9548,0.0,0.0,0.0,-4.4327,-4.4515,-4.4515,-4.4515,-4.4515,-4.4515,-4.4515,-4.4515,-4.4515,-4.4458,-4.4411,-4.4354,-4.4285,-4.4214,-4.4135,-4.4036,-4.4005,-4.4005,-4.4005,-4.4005,-4.4005,-4.4005,-4.3942,0.0,-4.3837,-4.3719,-4.3582,-4.3532,-4.3809,-4.4287,-4.4599,-4.5021,-4.5498,0.0,0.0,0.0,0.0,0.0,0.0,0.0,-2.0562,-2.0588,-2.0525,-2.0562,-2.0593,-2.0593,-2.0593,-2.0593,-2.0593,-2.0598,0.0,0.0,0.0,0.0,0.0,0.0,0.0,-2.1701,-2.3334,-2.3835,-2.3086,-2.481,-2.5596,-2.5498,-2.5498,-2.5302,-2.498,-2.4936,-2.4842,0.0,0.0,0.0,0.0,0.0,0.0,0.0,0.0,0.0,0.0,0.0,0.0,0.0,0.0,0.0,0.0,0.0,0.0,0.0,0.0,0.0,0.0,0.0,-3.1863,-3.2313,-3.1435,-3.1329,-3.1197,-3.0376,-3.0204,0.0,-3.0204,-3.0204,-3.0223,-3.028,-3.0892,-3.1465,-3.1656,-3.3032,0.0,0.0,-3.5613,0.0,0.0,-4.1286,0.0,-4.3219,-4.4026,-4.4515,-4.4515,-4.4515,-4.4515,-4.4515,-4.4515,-4.4515,-4.4515,-4.4515,-4.443,-4.4314,-4.4314,-4.4207,-4.4005,-4.4005,-4.4005,-4.4005,-4.4005,-4.4005,0.0,-4.4005,-4.3974,0.0,-4.3837,-4.3719,-4.3615,-4.3513,-4.3497,-4.3589,-4.4342,-4.4617,-4.4727,0.0,0.0,0.0,0.0,0.0,0.0,0.0,0.0,0.0,0.0,-2.0591,-2.0593,-2.0593,-2.0593,-2.0593,0.0,0.0,0.0,0.0,0.0,0.0,0.0,0.0,0.0,-2.1607,-2.2637,-2.3391,-2.3848,-2.5481,-2.6293,-2.6313,-2.6313,-2.6173,-2.5863,-2.526,-2.4883,0.0,0.0,0.0,0.0,0.0,0.0,0.0,0.0,0.0,0.0,-2.5303,-2.6418,0.0,0.0,0.0,0.0,0.0,0.0,0.0,0.0,-3.0207,-3.0232,-3.0409,0.0,-3.0739,-3.05,-3.0476,-3.0452,0.0,0.0,0.0,0.0,0.0,0.0,0.0,-3.135,-3.1904,-3.3203,0.0,-3.4923,-3.4923,0.0,0.0,-4.0632,-4.2706,-4.3853,-4.3332,-4.4026,-4.4515,-4.4515,-4.4515,-4.4515,-4.4515,-4.4515,-4.4515,-4.4515,-4.4515,-4.4458,-4.4383,-4.4314,-4.4255,-4.4135,-4.4055,-4.4005,-4.4005,-4.4005,-4.4005,-4.4005,-4.4005,-4.4005,-4.3974,-4.3851,-4.3771,-4.3719,-4.3566,-4.3497,-4.3516,-4.3699,-4.3773,-4.3809,0.0,0.0,0.0,0.0,0.0,0.0,0.0,0.0,0.0,0.0,-2.0545,-2.0724,-2.1159,-2.0843,-2.0904,0.0,0.0,0.0,0.0,0.0,0.0,0.0,0.0,-2.1094,-2.1509,-2.2747,-2.3606,-2.4051,-2.5332,-2.5986,-2.6053,-2.6088,-2.5976,-2.5723,-2.5197,-2.4883,-2.4756,-2.4324,0.0,0.0,-2.4631,0.0,0.0,0.0,0.0,0.0,-2.5293,-2.6418,0.0,-2.7816,-2.896,-3.0386,0.0,0.0,0.0,0.0,-3.0188,-3.0188,-3.0188,-3.0213,-3.0204,-3.0204,-3.0199,-3.0199,-3.0185,0.0,0.0,0.0,0.0,0.0,0.0,-3.1503,-3.2057,0.0,-3.4369,0.0,0.0,0.0,-3.9466,-4.095,-4.2554,-4.3667,0.0,-4.4279,-4.4515,-4.4515,-4.4515,-4.4515,-4.4515,-4.4515,-4.4515,-4.4515,-4.4515,-4.4458,-4.4373,-4.4314,-4.4226,-4.4104,-4.4036,-4.4005,-4.4005,-4.4005,-4.4005,-4.4005,-4.4005,-4.4005,-4.4005,-4.3883,-4.3837,-4.3771,-4.36,-4.3532,-4.3497,-4.3497,-4.3497,-4.3497,0.0,0.0,0.0,0.0,0.0,0.0,0.0,0.0,0.0,0.0,0.0,0.0,0.0,0.0,0.0,0.0,0.0,0.0,0.0,0.0,0.0,0.0,-2.2168,-2.1641,-2.1752,-2.3276,-2.4072,-2.4128,-2.5004,-2.5466,-2.5552,-2.5605,-2.5483,-2.5186,-2.4987,-2.4902,-2.485,-2.403,-2.4228,-2.5012,-2.4276,0.0,0.0,0.0,0.0,0.0,0.0,0.0,0.0,-2.7835,-2.896,-3.0386,-3.0247,0.0,0.0,0.0,0.0,0.0,-3.0221,-3.0213,-3.0204,-3.0199,-3.0194,-3.0207,-3.0199,0.0,0.0,0.0,0.0,0.0,0.0,-3.1713,0.0,0.0,0.0,0.0,-3.6852,-3.7794,-3.9051,-4.1068,-4.2086,0.0,-4.4391,-4.4549,-4.4524,-4.4515,-4.4515,-4.4515,-4.4515,-4.4515,-4.4458,-4.4327,-4.4327,-4.4196,-4.3941,-4.4184,-4.4226,-4.4036,-4.4005,-4.4005,-4.4005,-4.4005,-4.4005,-4.4005,0.0,0.0,-4.4005,-4.3929,-4.3851,-4.3804,-4.3667,-4.3548,-4.3497,-4.3497,-4.3497,-4.3497,0.0,0.0,0.0,0.0,0.0,0.0,0.0,0.0,0.0,0.0,0.0,0.0,0.0,0.0,0.0,0.0,0.0,0.0,0.0,0.0,0.0,-2.3974,-2.2406,-2.2122,-2.3398,-2.3705,-2.4143,-2.4765,-2.5574,-2.6072,-2.6255,-2.6266,-2.5874,-2.5186,-2.4987,-2.4902,-2.4869,-2.4633,-2.4681,-2.491,-2.4848,0.0,0.0,0.0,0.0,0.0,0.0,0.0,0.0,-2.7879,-2.9014,-3.0386,-3.0305,0.0,0.0,0.0,0.0,0.0,-3.0279,-3.024,-3.0199,-3.0194,-3.0207,-3.0207,-3.0207,0.0,0.0,0.0,0.0,0.0,0.0,-3.2649,-3.37,0.0,0.0,-3.7731,0.0,0.0,-4.1818,-4.1355,0.0,-4.4393,-4.3737,-4.4271,-4.4632,-4.4515,-4.4515,-4.4515,-4.4515,-4.4515,-4.4195,-4.3501,-4.3482,-4.3098,-4.2285,-4.3604,-4.4274,-4.4184,-4.4036,-4.4005,-4.4005,-4.4005,-4.4005,-4.4005,0.0,-4.4005,-4.4005,-4.3929,-4.3851,-4.3804,-4.3667,-4.3548,-4.3497,-4.3497,-4.3497,-4.3497,0.0,0.0,0.0,0.0,0.0,0.0,0.0,0.0,0.0,0.0,0.0,0.0,0.0,0.0,0.0,0.0,0.0,0.0,0.0,0.0,-2.3477,-2.4803,-2.3525,-2.3111,-2.379,-2.425,-2.4632,-2.491,-2.5386,-2.566,-2.5738,-2.5795,-2.5618,-2.5255,-2.5171,-2.5115,-2.5103,-2.4902,-2.4893,-2.5,0.0,0.0,0.0,0.0,0.0,0.0,0.0,0.0,0.0,0.0,-2.8698,-2.9763,-3.0157,0.0,0.0,0.0,0.0,0.0,-3.0292,-3.0286,-3.024,-3.0207,-3.0188,-3.0207,-3.0194,0.0,0.0,0.0,0.0,0.0,0.0,0.0,-3.3586,-3.4503,0.0,-3.8686,-3.9489,-4.0272,-4.0903,0.0,0.0,-4.2544,-4.2872,-4.3152,-4.3484,-4.382,-4.3426,-4.3369,-4.3839,-4.3426,-4.2994,-4.2618,-4.26,-4.2385,-4.1965,-4.266,-4.3193,-4.3554,-4.2999,-4.2988,-4.3397,-4.3385,-4.3355,-4.3373,0.0,-4.4005,-4.4005,-4.3974,-4.3897,-4.3851,-4.3753,-4.3634,-4.3548,-4.3513,-4.3497,-4.3497,0.0,0.0,0.0,0.0,0.0,0.0,0.0,0.0,0.0,0.0,0.0,0.0,0.0,0.0,0.0,0.0,0.0,0.0,0.0,-2.4216,-2.3995,-2.5322,-2.4596,-2.4144,-2.4105,-2.4721,-2.4987,-2.4902,-2.5032,-2.5113,-2.5125,-2.5209,-2.5264,-2.5284,-2.5254,-2.5264,-2.5274,-2.5056,-2.5013,-2.5106,0.0,0.0,0.0,0.0,0.0,0.0,0.0,0.0,0.0,0.0,0.0,0.0,0.0,0.0,0.0,-3.0316,-3.0304,-3.0304,-3.0286,-3.0292,-3.0279,-3.0221,-3.0188,0.0,0.0,0.0,0.0,0.0,0.0,0.0,0.0,-3.2119,0.0,-3.5209,-3.7464,-3.9069,-3.9279,-3.9642,-4.0291,-4.1361,-4.1035,-4.118,-4.2344,-4.2319,-4.2479,-4.2991,-4.2374,-4.2299,-4.2956,-4.2374,-4.1897,-4.1736,-4.1736,-4.1642,-4.1454,-4.1383,-4.1809,-4.2687,-4.2033,-4.1994,-4.259,-4.253,-4.2519,-4.2556,-4.3373,-4.3726,-4.3726,-4.3912,-4.3942,-4.3897,-4.3837,-4.3719,-4.3548,-4.3513,-4.3497,-4.3497,0.0,0.0,0.0,0.0,0.0,0.0,0.0,0.0,0.0,0.0,0.0,0.0,0.0,0.0,0.0,0.0,0.0,0.0,0.0,-2.5284,-2.5245,-2.5303,-2.5057,-2.4948,-2.5008,-2.4955,-2.4907,-2.4902,-2.4851,-2.4865,-2.4915,-2.4994,-2.5091,-2.5203,-2.5149,-2.5182,-2.5303,-2.5149,-2.5084,-2.5115,-2.516,0.0,0.0,0.0,0.0,0.0,0.0,0.0,0.0,0.0,0.0,0.0,0.0,0.0,-3.0398,-3.0316,-3.0304,-3.0304,-3.0304,-3.0299,-3.0279,-3.0221,-3.0188,0.0,-3.1216,-3.136,0.0,-3.2348,0.0,0.0,0.0,-3.2153,-3.3513,-3.5995,-3.7884,-3.9279,-4.01,0.0,-4.2278,-4.1571,-4.2163,-4.26,-4.2588,-4.2458,-4.2361,-4.2272,-4.2107,-4.201,-4.2085,-4.201,-4.168,-4.091,-4.0891,-4.0534,-3.9765,-3.9765,-4.0476,-4.1894,-4.1772,-4.1686,-4.1683,-4.1683,-4.1683,-4.172,-4.2537,-4.289,-4.2946,-4.3689,-4.3942,-4.3897,-4.3837,-4.3686,-4.3532,-4.3479,-4.3497,-4.3497,0.0,0.0,0.0,0.0,0.0,0.0,0.0,0.0,0.0,0.0,0.0,0.0,0.0,0.0,0.0,0.0,0.0,0.0,0.0,-2.5351,-2.5331,-2.5303,-2.5149,-2.5103,-2.516,-2.4981,-2.4934,-2.5025,-2.4999,-2.4945,-2.4851,-2.5031,-2.5126,-2.5149,-2.5303,-2.5378,-2.5415,-2.5284,-2.5215,-2.5233,-2.5252,-2.5252,0.0,0.0,0.0,0.0,0.0,0.0,0.0,0.0,-2.7651,-2.8486,-2.9302,-2.9936,-3.0398,-3.0367,-3.0336,-3.0304,-3.0304,-3.0267,-3.0234,-3.0207,-3.0194,0.0,0.0,-3.1828,-3.2157,-3.2,-3.3184,0.0,0.0,0.0,-3.3987,-3.5458,-3.8018,-3.9737,-3.9527,-4.0501,-4.0922,-4.0043,-3.9756,-3.9795,-4.0193,-4.019,-4.0542,-4.1453,-4.0939,-4.0565,-4.0565,-4.0528,-3.9877,-3.8525,-3.8976,-3.8863,-3.8037,-3.7995,-3.8484,-3.9522,-4.0018,-4.0486,-4.0914,-4.0876,-4.0847,-4.0903,-4.1702,-4.2333,-4.2816,-4.3132,-4.3509,-4.3942,-4.3851,-4.3686,-4.3497,-4.3497,-4.3497,-4.3497,0.0,0.0,0.0,0.0,0.0,0.0,0.0,0.0,0.0,0.0,0.0,0.0,0.0,0.0,0.0,0.0,0.0,0.0,-2.5379,-2.5361,-2.5313,-2.5273,-2.516,-2.5126,-2.5168,-2.5038,-2.5012,-2.5101,-2.5031,-2.4959,-2.4879,-2.5024,-2.5138,-2.5171,-2.5359,-2.5464,-2.5484,-2.5404,-2.5359,-2.5351,-2.5332,-2.5322,0.0,0.0,0.0,0.0,0.0,0.0,0.0,0.0,-2.7017,-2.7621,-2.8459,-2.9305,-2.9987,-2.9987,-3.0148,-3.0336,-3.0336,-3.0279,-3.0228,-3.0234,0.0,0.0,-3.156,-3.2271,-3.2691,-3.2669,-3.3815,-3.4655,-3.4101,0.0,0.0,0.0,-3.7387,-3.8992,-3.8648,-3.8877,-3.8973,-3.8629,-3.7846,-3.7619,-3.8385,-3.8442,-3.8839,-3.9854,-3.929,-3.8897,-3.8874,-3.8841,-3.8305,-3.7136,-3.7624,-3.7662,-3.7099,-3.7057,-3.7267,-3.7773,-3.8327,-3.9141,-4.0058,-4.0002,-3.9974,-4.003,-4.0847,-4.1534,-4.2054,-4.2314,-4.286,-4.3521,-4.343,-4.3446,-4.3497,-4.3497,-4.3497,-4.3497,0.0,0.0,0.0,0.0,0.0,0.0,0.0,0.0,0.0,0.0,0.0,0.0,0.0,0.0,0.0,0.0,0.0,0.0,-2.5337,-2.5395,-2.5339,-2.5198,-2.5145,-2.5091,-2.5113,-2.5095,-2.5101,-2.5101,-2.4898,-2.4879,-2.5006,-2.493,-2.5061,-2.5313,-2.5303,-2.5376,-2.5511,-2.5511,-2.5511,-2.5484,-2.5429,-2.5401,-2.5401,0.0,0.0,0.0,0.0,0.0,0.0,0.0,-2.6651,-2.6755,-2.7633,-2.845,-2.9113,-2.9102,-2.9717,-3.0398,-3.0398,-3.0348,-3.0292,-3.0305,0.0,0.0,-3.2306,-3.2691,-3.3169,-3.4846,-3.4541,-3.3987,-3.3987,-3.3299,0.0,-3.4923,-3.5935,-3.6776,-3.754,-3.6986,-3.6776,-3.7559,-3.6948,-3.6795,-3.7578,-3.7603,-3.7528,-3.7411,-3.7268,-3.7178,-3.7103,-3.7103,-3.708,-3.7061,-3.708,-3.708,-3.7061,-3.708,-3.7057,-3.7004,-3.6913,-3.7653,-3.9082,-3.9082,-3.9082,-3.9138,-4.0011,-4.0383,-4.0457,-4.1256,-4.1964,-4.2479,-4.2479,-4.2879,-4.3479,-4.3479,-4.3479,-4.3497,0.0,0.0,0.0,0.0,0.0,0.0,0.0,0.0,0.0,0.0,0.0,0.0,0.0,0.0,0.0,0.0,0.0,0.0,-2.5454,-2.5425,-2.5382,-2.534,-2.5224,-2.5179,-2.5164,-2.5111,-2.5099,-2.5099,-2.5084,-2.5077,-2.5077,-2.5154,-2.5216,-2.5303,-2.5398,-2.5468,-2.5511,-2.5499,-2.5499,-2.5511,-2.5484,-2.5464,-2.5476,0.0,0.0,0.0,0.0,0.0,0.0,0.0,0.0,0.0,-2.7816,-2.8865,-3.0009,-3.0006,-3.0155,-3.0348,-3.0398,-3.033,0.0,-3.0292,0.0,0.0,0.0,-3.2252,0.0,0.0,-3.4082,-3.328,-3.3891,-3.3796,0.0,-3.4273,-3.5572,-3.6184,-3.5229,-3.5381,-3.5248,-3.4292,-3.3971,-3.4108,-3.4876,-3.5491,-3.6045,-3.6519,-3.6438,-3.6354,-3.633,-3.628,-3.5972,-3.5353,-3.5935,-3.5953,-3.5334,-3.5289,-3.5548,-3.6105,-3.6072,-3.6858,-3.8327,-3.8274,-3.8562,-3.9101,-3.9361,-3.9825,-4.0457,-4.1215,-4.157,-4.1662,-4.1617,-4.2018,-4.2653,-4.2653,-4.3002,-4.3497,0.0,0.0,0.0,0.0,0.0,0.0,0.0,0.0,0.0,0.0,0.0,0.0,0.0,0.0,0.0,0.0,0.0,0.0,0.0,-2.5504,-2.5439,-2.532,-2.5265,-2.5214,-2.516,-2.5153,-2.5138,-2.5141,-2.5143,-2.5165,-2.5186,-2.5255,-2.5329,-2.5374,-2.5456,-2.5503,-2.5511,-2.5499,-2.5499,-2.553,-2.5859,-2.5975,-2.5967,0.0,0.0,0.0,0.0,0.0,0.0,0.0,0.0,0.0,-2.7412,-2.8578,-2.9924,-2.9902,-3.011,-3.0348,-3.0398,-3.0318,0.0,-3.0279,-2.9991,-2.9822,-3.03,0.0,0.0,0.0,-3.4407,-3.3853,-3.4388,-3.3929,0.0,-3.349,-3.4331,-3.4655,-3.3624,-3.3624,-3.3471,-3.2768,-3.2405,-3.252,-3.3293,-3.383,-3.4329,-3.4736,-3.4642,-3.4545,-3.4524,-3.4779,-3.4677,-3.4132,-3.494,-3.5127,-3.4602,-3.4561,-3.4783,-3.5248,-3.524,-3.588,-3.7075,-3.7359,-3.7697,-3.8154,-3.8469,-3.8915,-3.9454,-4.0203,-4.0614,-4.0831,-4.0756,-4.1158,-4.1827,-4.1827,-4.2139,-4.2598,0.0,0.0,0.0,0.0,0.0,0.0,0.0,0.0,0.0,0.0,-2.3639,0.0,0.0,0.0,0.0,0.0,0.0,0.0,0.0,-2.5601,-2.5496,-2.5235,-2.5263,-2.5244,-2.5101,-2.516,-2.5201,-2.5186,-2.5154,-2.5196,-2.5311,-2.5318,-2.5371,-2.5495,-2.5495,-2.5507,-2.5511,-2.5511,-2.5511,-2.5569,-2.6296,-2.6586,-2.6586,-2.6586,0.0,0.0,0.0,0.0,0.0,0.0,0.0,0.0,-2.6843,-2.7952,-2.9319,-2.9248,-2.9775,-3.0398,-3.0398,-3.0362,-3.0292,-3.0292,-2.9646,0.0,-2.8834,-3.1885,-3.477,-3.4846,0.0,-3.498,-3.498,-3.3738,-3.2691,-3.2691,-3.2691,-3.2653,-3.2481,-3.1847,-3.1599,-3.2176,-3.1599,-3.1446,-3.2157,-3.2367,-3.2416,-3.2355,-3.2308,-3.2277,-3.2298,-3.286,-3.325,-3.34,-3.4113,-3.4526,-3.4602,-3.4602,-3.4602,-3.4602,-3.4539,-3.4884,-3.56,-3.6348,-3.6708,-3.6723,-3.7466,-3.7819,-3.7949,-3.8628,-3.932,-3.9981,-3.9927,-4.0349,-4.1001,-4.1001,-4.1056,-4.1203,0.0,0.0,0.0,0.0,0.0,0.0,0.0,0.0,0.0,0.0,0.0,0.0,0.0,0.0,0.0,0.0,0.0,0.0,0.0,-2.5601,-2.5556,-2.5441,-2.5357,-2.5239,-2.5101,-2.5164,-2.5203,-2.5186,-2.5245,-2.5318,-2.5464,-2.5471,-2.5464,-2.5495,-2.5495,-2.5507,-2.5511,-2.5511,-2.5511,-2.553,-2.5685,-2.5762,-2.5762,-2.5762,-2.5762,0.0,0.0,0.0,0.0,0.0,0.0,0.0,-2.7865,-2.883,-3.0207,-3.0133,-3.0256,-3.0398,-3.0398,-3.0362,0.0,-3.0292,-3.0106,-2.9574,-2.8255,-2.9688,-3.1465,-3.2153,-3.2802,-3.3226,-3.3226,-3.294,-3.2691,-3.2691,-3.2691,-3.2233,-3.0911,-3.0586,-3.0051,-2.8905,-2.8618,-2.8534,-2.8613,-2.9817,-3.0548,-3.0506,-3.108,-3.1691,-3.2279,-3.1808,-3.209,-3.3362,-3.3569,-3.3963,-3.4583,-3.4602,-3.4602,-3.4602,-3.4602,-3.4611,-3.4703,-3.5491,-3.6168,-3.6705,-3.6872,-3.7318,-3.7912,-3.7961,-3.8449,-3.9139,-3.9038,-3.9441,-4.0157,-4.0157,-4.0561,-4.113,0.0,0.0,0.0,0.0,0.0,0.0,0.0,0.0,0.0,0.0,0.0,0.0,0.0,0.0,0.0,0.0,0.0,0.0,0.0,0.0,-2.5582,-2.5459,-2.5348,-2.5248,-2.5101,-2.5125,-2.5179,-2.5244,-2.5274,-2.5374,-2.5499,-2.5499,-2.5511,-2.5498,-2.5495,-2.5499,-2.5499,-2.5492,-2.5511,-2.553,-2.5917,-2.6064,-2.6064,-2.6064,-2.6064,-2.6025,-2.5646,0.0,0.0,0.0,0.0,0.0,0.0,0.0,-3.0344,-2.9462,-2.9478,-2.9775,-2.9775,0.0,0.0,-2.9685,0.0,-2.9249,-2.7988,-2.8389,-2.9134,-2.9593,-3.0643,-3.1503,-3.1503,-3.1503,-3.1369,-3.0954,-3.0877,-3.0438,-2.9172,-2.9,-2.8676,-2.7797,-2.7701,-2.7669,-2.7611,-2.8722,-2.947,-2.9425,-3.0193,-3.0845,-3.1231,-3.1088,-3.1581,-3.2822,-3.3214,-3.3794,-3.4583,-3.4602,-3.4602,-3.4602,-3.4602,-3.4517,-3.4404,-3.4758,-3.5157,-3.5516,-3.5925,-3.6352,-3.6779,-3.7054,-3.7627,-3.8338,-3.8191,-3.8646,-3.9331,-3.9331,-3.9588,-4.001,0.0,0.0,0.0,0.0,0.0,0.0,0.0,0.0,0.0,0.0,0.0,0.0,0.0,0.0,0.0,0.0,0.0,0.0,0.0,0.0,0.0,-2.5388,-2.533,-2.5258,-2.5101,-2.5114,-2.5191,-2.5303,-2.5293,-2.5376,-2.5499,-2.5518,-2.5511,-2.5505,-2.5507,-2.5499,-2.5495,-2.5499,-2.5492,-2.5569,-2.6227,-2.6497,-2.6489,-2.6489,-2.6489,-2.6412,-2.5743,-2.5588,-2.5685,-2.555,0.0,0.0,0.0,0.0,-2.9785,-2.8327,-2.8364,-2.892,-2.9074,0.0,-2.9186,-2.8683,-2.874,0.0,-2.7892,-2.7587,-2.7472,-2.7472,-2.8695,-2.9765,-2.9765,-2.9765,-2.9535,-2.8796,-2.8681,-2.8414,-2.7587,-2.7472,-2.7434,-2.7268,-2.7249,-2.7307,-2.7427,-2.8191,-2.8725,-2.8891,-2.967,-3.0102,-3.0072,-3.0534,-3.1185,-3.2034,-3.2652,-3.3362,-3.4151,-3.417,-3.417,-3.417,-3.417,-3.4255,-3.4409,-3.412,-3.4091,-3.4234,-3.4959,-3.5349,-3.5553,-3.6163,-3.6823,-3.7525,-3.7569,-3.7971,-3.8536,-3.8652,-3.8707,-3.8799,0.0,0.0,0.0,0.0,0.0,0.0,0.0,0.0,0.0,0.0,0.0,0.0,0.0,0.0,0.0,0.0,0.0,0.0,0.0,0.0,0.0,-2.5316,-2.5367,-2.5302,-2.5101,-2.5163,-2.5217,-2.5303,-2.5293,-2.5374,-2.5499,-2.557,-2.557,-2.5499,-2.5507,-2.5507,-2.5492,-2.5507,-2.5507,-2.5511,-2.5623,-2.5654,-2.5666,-2.5666,-2.5666,-2.5646,-2.555,-2.5956,-2.6431,-2.5743,-2.6613,0.0,0.0,0.0,-2.829,-2.7981,-2.7971,-2.8231,-2.8991,0.0,-2.9621,0.0,-2.7867,-2.8681,0.0,0.0,-2.6574,0.0,-2.7358,-2.8026,-2.8026,-2.8026,-2.8007,-2.7892,-2.7854,-2.7568,-2.6689,-2.6574,-2.6282,-2.5546,-2.5457,-2.5723,-2.6428,-2.7266,-2.8093,-2.8834,-2.9693,-3.0113,-2.994,-3.0002,-3.0371,-3.1073,-3.1185,-3.1635,-3.2424,-3.2424,-3.2424,-3.2424,-3.2439,-3.3147,-3.4454,-3.3649,-3.3613,-3.4197,-3.4309,-3.4791,-3.5497,-3.5551,-3.6017,-3.6786,-3.7376,-3.7669,-3.7805,-3.8462,-3.8707,-3.8726,0.0,0.0,0.0,0.0,0.0,0.0,0.0,0.0,0.0,0.0,0.0,0.0,0.0,0.0,0.0,0.0,0.0,0.0,0.0,0.0,0.0,-2.5371,-2.534,-2.5282,-2.5163,-2.518,-2.5239,-2.5351,-2.5369,-2.5418,-2.557,-2.5583,-2.5531,-2.5456,-2.5488,-2.5488,-2.5453,-2.548,-2.5499,-2.5507,-2.5499,-2.5448,-2.5397,-2.5468,-2.5459,-2.5397,-2.5476,-2.5724,-2.5967,-2.5627,-2.6285,-2.7136,-2.6288,0.0,0.0,0.0,-2.6824,-2.7142,-2.7045,-2.7588,-2.8011,0.0,-2.7357,-2.7663,-2.8242,-2.774,-2.7128,-2.7128,-2.7033,-2.6975,-2.6975,-2.6937,-2.6911,-2.6911,-2.6885,-2.6553,-2.5678,-2.5545,-2.5418,-2.5031,-2.4993,-2.5145,-2.5473,-2.6303,-2.7153,-2.7999,-2.8869,-2.9509,-2.9886,-2.9874,-3.0184,-3.0923,-3.0922,-3.1297,-3.2086,-3.2105,-3.2105,-3.2105,-3.2103,-3.2477,-3.3147,-3.2705,-3.3119,-3.4245,-3.4221,-3.442,-3.4773,-3.4748,-3.5199,-3.5962,-3.626,-3.686,-3.7577,-3.7474,-3.7654,-3.7955,0.0,0.0,0.0,0.0,0.0,0.0,0.0,0.0,0.0,0.0,0.0,0.0,0.0,0.0,0.0,0.0,0.0,0.0,0.0,0.0,0.0,-2.5406,-2.534,-2.5292,-2.5203,-2.5214,-2.5271,-2.5406,-2.5387,-2.5445,-2.5596,-2.5577,-2.5498,-2.5401,-2.5495,-2.5483,-2.5434,-2.5488,-2.5488,-2.5495,-2.5472,-2.5395,-2.5313,-2.5397,-2.5476,-2.558,-2.5678,-2.5723,-2.5741,-2.5741,-2.6047,-2.6296,-2.5685,-2.6365,0.0,0.0,0.0,-2.64,0.0,0.0,-2.7113,-2.688,-2.6787,-2.7064,0.0,0.0,-2.7491,0.0,-2.7338,-2.6727,-2.6683,-2.6288,-2.5983,-2.595,-2.591,-2.5641,-2.4996,-2.4902,-2.4902,-2.4874,-2.4874,-2.4969,-2.5177,-2.5797,-2.6517,-2.7346,-2.8214,-2.8957,-2.955,-2.9729,-3.0073,-3.0639,-3.0622,-3.0884,-3.1485,-3.1485,-3.1598,-3.1785,-3.1598,-3.169,-3.2081,-3.1792,-3.2422,-3.372,-3.3855,-3.4011,-3.4197,-3.4197,-3.4563,-3.5099,-3.5321,-3.6075,-3.6979,-3.6546,-3.6728,-3.7092,0.0,0.0,0.0,0.0,0.0,0.0,0.0,0.0,0.0,0.0,0.0,0.0,-2.5582,-2.5542,-2.55,-2.5517,-2.5576,0.0,0.0,0.0,0.0,-2.541,-2.5393,0.0,-2.5198,-2.5261,-2.5332,-2.5406,-2.535,-2.541,-2.5596,-2.5464,-2.5406,-2.5401,-2.5543,-2.5557,-2.5495,-2.5505,-2.5498,-2.5495,-2.5437,-2.5359,-2.5284,-2.5243,-2.5658,-2.6256,-2.6269,-2.6339,-2.6456,-2.6456,-2.6044,-2.5569,-2.5511,-2.5569,-2.56,0.0,0.0,0.0,0.0,-2.6516,0.0,-2.5011,-2.5937,-2.7656,0.0,0.0,-2.6918,-2.851,-2.8198,-2.758,-2.7475,-2.6186,-2.5114,-2.4991,-2.4959,-2.494,-2.4902,-2.4902,-2.4874,-2.4808,-2.4808,-2.5129,-2.597,-2.6084,-2.6492,-2.7418,-2.8233,-2.8695,-2.8671,-2.9393,-2.9792,-2.9776,-2.9758,-2.9777,-2.9814,-2.9814,-3.0208,-3.094,-3.019,-3.0621,-3.2067,-3.1158,-3.1267,-3.2142,-3.2776,-3.3491,-3.4197,-3.4197,-3.4216,-3.4346,-3.5106,-3.5417,-3.5504,-3.6168,-3.6379,-3.6358,0.0,0.0,0.0,0.0,0.0,0.0,0.0,0.0,0.0,0.0,0.0,0.0,0.0,-2.5173,-2.5564,-2.5554,-2.5625,0.0,0.0,0.0,0.0,-2.5406,-2.5322,-2.5252,-2.5198,-2.5217,-2.528,-2.5332,-2.536,-2.5421,-2.5536,-2.5495,-2.5503,-2.5536,-2.549,-2.5456,-2.5441,-2.5483,-2.5498,-2.5401,-2.4212,-2.434,-2.5118,-2.4004,-2.4369,0.0,0.0,0.0,-2.5611,-2.5705,-2.5582,-2.5388,-2.5468,-2.5511,-2.5484,-2.5456,-2.5642,0.0,0.0,0.0,0.0,-2.5716,-2.5501,-2.5746,-2.7338,-2.7459,-2.7402,-2.8007,-2.83,-2.8425,-2.8293,-2.7333,-2.6375,-2.5773,-2.6072,-2.5988,-2.493,-2.5687,-2.6177,-2.5618,-2.6032,-2.6465,-2.6785,-2.6349,-2.6594,-2.7966,-2.79,-2.8256,-2.9298,-2.967,-2.9823,-2.9774,-2.9755,-2.9756,-2.9701,-2.9701,-2.9833,-3.0133,-2.9833,-2.9983,-3.047,-3.0111,-3.0387,-3.1203,-3.192,-3.2692,-3.3417,-3.3417,-3.3733,-3.4216,-3.4476,-3.4862,-3.5246,-3.4916,-3.5073,-3.5404,0.0,0.0,0.0,0.0,0.0,0.0,0.0,0.0,0.0,-2.213,0.0,0.0,0.0,0.0,-2.5444,-2.5499,-2.5526,-2.5517,-2.5499,-2.5479,-2.5456,-2.5395,-2.5313,-2.5241,-2.5209,-2.5228,-2.5269,-2.5311,-2.5341,-2.5415,-2.5495,-2.5456,-2.548,-2.5596,-2.5468,-2.5434,-2.5464,-2.5517,-2.5531,-2.5421,-2.4146,-2.4264,-2.5088,-2.3932,0.0,0.0,0.0,0.0,0.0,-2.5317,-2.4666,-2.4082,-2.4477,-2.5012,-2.5484,0.0,0.0,0.0,-2.469,0.0,0.0,0.0,-2.5513,-2.5222,-2.655,-2.6864,-2.7012,-2.758,-2.8122,-2.8635,-2.9091,-2.8666,-2.7846,-2.6645,-2.6881,-2.681,-2.5702,-2.651,-2.6998,-2.647,-2.6866,-2.7204,-2.7204,-2.6716,-2.6848,-2.7919,-2.7834,0.0,-2.9336,-2.9723,-2.9874,-2.9808,-2.9773,-2.9756,-2.9701,-2.9701,-2.9701,-2.9701,-2.9701,-2.9664,-2.9588,-2.9531,-2.979,-3.0307,-3.0764,-3.1745,-3.3008,-3.3287,-3.3714,-3.4197,-3.4124,-3.44,-3.4784,-3.4142,-3.4191,-3.4523,0.0,0.0,0.0,0.0,0.0,0.0,0.0,0.0,-2.1208,-2.1349,0.0,0.0,0.0,0.0,0.0,-2.5274,-2.5236,-2.528,-2.5466,-2.5432,-2.5387,-2.5387,0.0,0.0,-2.5212,-2.5264,-2.5293,-2.5311,-2.5311,-2.537,-2.5488,-2.5361,-2.5397,-2.559,-2.5456,-2.5472,-2.5596,-2.5596,-2.5596,-2.557,-2.5335,-2.5226,-2.5233,0.0,0.0,0.0,-2.7301,-2.7349,0.0,-2.5432,0.0,0.0,0.0,0.0,0.0,0.0,0.0,0.0,0.0,0.0,0.0,0.0,0.0,0.0,-2.5433,0.0,-2.5666,-2.728,-2.7638,-2.8134,-2.9665,-2.9855,-2.9196,-2.7483,-2.7242,-2.7261,-2.7204,-2.7242,-2.7261,-2.7242,-2.7261,-2.7279,-2.7279,-2.7242,-2.7242,-2.7261,-2.8114,-2.8617,-2.8636,-2.9439,-2.9874,-2.9789,-2.9738,-2.9701,-2.9683,-2.9701,-2.9701,-2.9701,-2.9701,-2.9664,-2.9588,-2.9531,-2.9472,-2.9392,-2.9446,-3.0764,-3.299,-3.3788,-3.416,-3.4197,-3.4124,-3.4049,-3.3998,-3.3921,-3.386,-3.3807,0.0,0.0,0.0,0.0,0.0,-1.9861,-1.9861,-2.0049,-2.02,0.0,0.0,0.0,-2.2808,-2.4247,-2.516,-2.5154,-2.5187,-2.5158,-2.5069,-2.5178,-2.5226,-2.5184,-2.5283,-2.5312,-2.5282,-2.5241,-2.522,-2.5239,-2.5271,-2.5322,-2.536,-2.5313,-2.5388,-2.5515,-2.5443,-2.5451,-2.5541,-2.5583,-2.5538,-2.5333,-2.4025,-2.4571,0.0,0.0,0.0,0.0,0.0,-2.738,-2.6987,0.0,-2.4423,-2.4809,0.0,0.0,0.0,0.0,0.0,0.0,-2.5484,0.0,0.0,0.0,0.0,0.0,0.0,0.0,-2.5395,-2.5811,-2.6381,-2.6746,-2.6453,-2.6346,-2.6507,-2.7156,-2.8253,-2.8594,-2.7373,-2.8237,-2.8763,-2.8125,-2.8631,-2.9007,-2.9007,-2.8444,-2.8331,0.0,-2.8755,-2.8862,-2.943,-2.9693,-2.9841,-2.9874,-2.9755,-2.9719,-2.9773,-2.9719,-2.9701,-2.9701,-2.9701,-2.9664,-2.9588,-2.9531,-2.9472,-2.9429,-3.0002,-3.0652,-3.134,-3.2117,-3.3138,-3.4197,-3.4074,-3.4023,-3.3998,-3.3868,-3.3834,-3.3807,0.0,0.0,0.0,0.0,0.0,-1.9949,-1.9949,-1.9873,-1.9849,0.0,0.0,0.0,-2.3232,-2.434,-2.4987,-2.5012,-2.5003,-2.4979,-2.4929,-2.503,-2.5069,-2.5096,-2.5179,-2.5241,-2.5311,-2.5261,-2.5239,-2.5187,-2.5239,-2.5271,-2.5293,-2.5273,-2.5332,-2.5456,-2.5425,-2.5416,-2.5459,-2.5541,-2.5503,0.0,-2.4295,0.0,0.0,-2.5356,-2.625,0.0,0.0,0.0,-2.7044,-2.4953,-2.4436,0.0,0.0,0.0,0.0,0.0,0.0,0.0,0.0,0.0,0.0,0.0,0.0,0.0,-2.462,-2.4101,-2.3391,0.0,-2.2382,-2.2802,-2.324,-2.3436,-2.3994,-2.5402,-2.663,-2.7605,-2.8163,-2.9082,-2.9514,-2.9007,-2.9382,-2.9701,-2.9738,-2.9286,-2.921,-2.9735,-2.9441,-2.9431,-2.9937,-2.9943,-2.9943,-2.9972,-2.9859,-2.9808,-2.9841,-2.9773,-2.9738,-2.9738,-2.9701,-2.9664,-2.9607,-2.955,-2.9472,-2.9431,-2.9893,-3.0281,-3.0652,-3.1117,-3.2042,-3.3184,-3.342,-3.3474,-3.3486,-3.3732,-3.3807,-3.3807,0.0,0.0,-1.9762,-1.9788,-1.9884,-1.9982,-1.9982,-2.0013,-2.0044,0.0,-2.1482,-2.298,-2.4407,-2.4657,-2.4745,-2.4875,-2.4746,-2.476,-2.494,-2.4907,-2.4942,-2.5049,-2.5072,-2.5168,-2.5271,-2.5282,-2.5271,-2.5198,-2.5198,-2.522,-2.5311,-2.522,-2.5273,-2.5385,-2.5379,0.0,-2.5389,-2.5451,0.0,-2.5476,-2.5423,-2.588,0.0,0.0,-2.7536,-2.8793,-2.8745,-2.8214,-2.7267,-2.5498,-2.3815,0.0,0.0,0.0,0.0,0.0,-2.5298,0.0,0.0,0.0,0.0,0.0,0.0,0.0,-2.2844,-2.2048,-2.1293,0.0,-1.8285,-1.8696,-2.0793,-2.147,-2.2089,-2.33,-2.3787,-2.5278,-2.8932,-2.9438,-2.9476,-2.9682,-2.9701,-2.9719,-2.979,-2.979,-2.9806,-2.9855,-2.9991,-3.0102,-3.0157,-3.0117,-3.0087,-3.0102,-2.9972,-2.9888,-2.9888,-2.9823,-2.9808,-2.979,-2.9719,-2.9683,-2.9607,-2.9607,-2.9531,-2.9412,-2.9412,-2.982,-3.0466,-3.0466,-3.0962,-3.1765,-3.2416,-3.2699,-3.279,-3.343,-3.3733,-3.3807,0.0,-1.9513,-1.958,-1.9707,-1.9793,-1.9851,-1.9851,-2.0413,-2.0865,-2.0871,-2.2265,-2.3389,-2.3694,-2.4313,-2.4711,-2.4729,-2.4663,-2.4594,-2.461,-2.4689,-2.4749,-2.4779,-2.4975,-2.5115,-2.5138,-2.5241,-2.5282,-2.5271,-2.5231,-2.5222,-2.5311,-2.5241,-2.5233,-2.5322,-2.5253,-2.5273,-2.5331,0.0,0.0,-2.5341,-2.5379,0.0,-2.6668,-2.724,-2.8058,-2.8883,-2.8874,-2.8722,-2.8154,-2.5731,-2.3448,-2.1704,0.0,0.0,0.0,-2.4034,0.0,0.0,0.0,0.0,0.0,0.0,0.0,0.0,-2.5695,-2.5146,-2.4482,0.0,-2.3256,-2.27,-2.2431,-2.2383,-2.2911,-2.4486,-2.3617,-2.3931,-2.7301,-2.7725,-2.8216,-2.9622,-2.9738,-2.972,-2.9719,-2.9755,-2.9773,-2.9738,-2.9808,-2.9893,-2.9937,-2.9956,-2.9991,-3.0102,-2.9972,-2.9888,-2.9888,-2.9823,-2.9773,-2.9719,-2.972,-2.9683,-2.9683,-2.9626,-2.9588,-2.9569,-2.9492,-2.9546,-2.9634,-2.9634,-3.0488,-3.1778,-3.1876,-3.2273,-3.2791,-3.2882,-3.329,-3.3807,-1.9172,-1.931,-1.9526,-2.0094,-1.9951,-2.0013,-2.0809,-2.1029,-2.1243,-2.1645,-2.2727,-2.3589,-2.4001,-2.4318,-2.4497,-2.4498,-2.4497,-2.4495,-2.4459,-2.458,-2.4676,-2.4749,-2.4888,-2.4981,-2.505,-2.5118,-2.5172,-2.5206,-2.5164,-2.5187,-2.525,-2.5212,-2.5212,-2.525,-2.5212,-2.5222,-2.5252,0.0,-2.5253,-2.5253,-2.5313,0.0,-2.6587,-2.696,-2.7612,-2.83,-2.8264,-2.7942,-2.711,-2.4555,-2.3206,0.0,-2.2211,-2.216,-2.2469,0.0,-2.4161,-2.4432,0.0,0.0,0.0,-2.6075,0.0,0.0,0.0,-2.381,-2.3126,-2.1825,-2.1161,-2.0774,-2.0623,-2.0812,-2.14,-2.2786,-2.1488,-2.1695,-2.5646,-2.5733,-2.5731,-2.6607,-2.701,-2.7541,-2.842,-2.8529,-2.8902,-2.9751,-2.9823,-2.9891,-2.9988,-2.994,-2.9956,-3.0102,-2.9972,-2.9888,-2.9888,-2.9823,-2.979,-2.9756,-2.972,-2.9701,-2.9701,-2.9683,-2.9626,-2.9588,-2.955,-2.9472,-2.9412,-2.9412,-2.9874,-3.0631,-3.0973,-3.1312,-3.1653,-3.201,-3.2624,-3.3254,-1.7274,-1.8407,-1.9389,-2.0194,-1.9931,-2.0111,-2.1573,-2.1502,-2.1638,-2.259,-2.3169,-2.3764,-2.4416,-2.4265,-2.4135,-2.4135,-2.3823,-2.3801,-2.4246,-2.4014,-2.3917,-2.4001,-2.453,-2.4639,-2.4265,-2.4746,-2.5019,-2.5088,-2.5113,-2.5149,-2.5176,-2.519,-2.5201,-2.5198,-2.5209,-2.5201,-2.5201,0.0,0.0,-2.5192,0.0,-2.5666,-2.6263,-2.6443,-2.6905,-2.744,-2.7393,-2.6754,-2.5649,-2.3486,-2.3217,-2.353,-2.1981,-2.1847,0.0,0.0,0.0,0.0,0.0,0.0,0.0,0.0,0.0,-2.4958,0.0,0.0,0.0,0.0,0.0,0.0,-1.9726,0.0,0.0,0.0,0.0,0.0,0.0,-2.3575,0.0,-2.4257,-2.4147,-2.481,-2.6865,-2.7204,-2.7894,-2.9352,-2.975,-2.9988,-3.0117,-2.9988,-2.9991,-3.0102,-2.9972,-2.9888,-2.9891,-2.9823,-2.979,-2.9773,-2.9719,-2.9701,-2.9701,-2.9701,-2.9664,-2.9607,-2.9607,-2.9531,-2.9412,-2.9412,-2.939,-2.9442,-3.0068,-3.0335,-3.0531,-3.1325,-3.209,-3.2735,-1.1324,-1.5858,-1.8878,-1.9004,-1.9166,-1.9589,-2.0528,-2.1417,-2.251,-2.3957,-2.4026,-2.3969,-2.406,-2.3767,-2.3581,-2.3581,-2.186,-2.1662,-2.3739,-2.2218,-2.1194,-2.1167,-2.3506,-2.3785,-2.1588,-2.3803,-2.5,-2.5006,-2.513,-2.5153,-2.5106,-2.5168,-2.5201,-2.5187,-2.5214,-2.5195,0.0,0.0,-2.519,0.0,-2.5209,-2.5275,0.0,-2.6201,-2.6522,-2.6555,-2.6537,-2.5933,-2.4974,0.0,-2.3712,-2.3515,0.0,-2.0958,-2.0891,-2.3383,0.0,0.0,0.0,0.0,0.0,0.0,-2.6144,0.0,0.0,0.0,-2.4958,-2.4609,0.0,0.0,0.0,0.0,0.0,0.0,0.0,0.0,-2.0814,-2.1173,-2.2928,-2.6621,-2.3776,-2.2752,-2.594,-2.6884,-2.7453,-2.7823,-2.9231,-3.0117,-3.0171,-3.0117,-3.0087,-3.0102,-2.9972,-2.9874,-2.9806,-2.9808,-2.9773,-2.9701,-2.9683,-2.9701,-2.9701,-2.9701,-2.9701,-2.9701,-2.9626,-2.955,-2.9492,-2.9433,-2.939,-2.9407,-2.9479,-2.9919,-3.0598,-3.1395,-3.2114,-3.2808,-0.588,-1.1071,-1.4751,-1.5731,-1.7988,-2.0282,-2.2135,-2.2993,-2.371,-2.4465,-2.4338,-2.4154,-2.4154,-2.3862,0.0,0.0,0.0,-2.1474,0.0,0.0,-2.1554,-2.3518,-2.4326,-2.4245,-2.3201,-2.427,-2.4837,-2.4879,-2.4929,-2.4981,-2.5038,-2.5068,-2.5099,-2.5144,-2.5132,0.0,-2.5144,0.0,-2.5141,0.0,0.0,0.0,0.0,-2.5604,-2.5695,-2.564,-2.5653,-2.5368,-2.4879,0.0,-2.3802,0.0,0.0,0.0,0.0,-2.4167,0.0,0.0,0.0,0.0,0.0,0.0,0.0,0.0,-2.5495,0.0,-2.5488,0.0,0.0,0.0,0.0,0.0,0.0,0.0,-2.2537,0.0,0.0,0.0,-1.9821,0.0,0.0,0.0,-2.3009,-2.4794,-2.5272,-2.3779,-2.7157,-2.8897,-2.7979,-2.9239,-3.0022,-3.0102,-2.9972,-2.9891,-2.9857,-2.9857,-2.9841,-2.9825,-2.9773,-2.9774,-2.9774,-2.9719,-2.9701,-2.9701,-2.9664,-2.9607,-2.9492,-2.9472,-2.9431,-2.9407,-2.9407,-2.959,-2.9903,-3.0238,-3.0798,-3.1476,0.1868,0.0,-0.9045,-1.0406,-1.4584,-1.9017,-2.2797,-2.3874,-2.4358,-2.4723,-2.4395,-2.4243,-2.4584,-2.4042,0.0,0.0,-2.1674,-2.1608,0.0,0.0,-2.1712,-2.338,-2.4437,-2.4233,-2.2678,-2.3986,-2.4726,-2.4764,-2.4808,-2.4879,-2.4947,-2.4987,-2.5019,-2.5057,-2.507,-2.507,-2.507,0.0,-2.5101,-2.5113,-2.5137,-2.518,-2.5191,-2.5191,-2.5168,-2.5144,-2.5107,-2.507,-2.4949,-2.4328,-2.4138,0.0,-2.3113,0.0,-2.2917,0.0,0.0,0.0,-2.9012,0.0,0.0,0.0,0.0,0.0,0.0,0.0,0.0,0.0,0.0,0.0,0.0,0.0,0.0,0.0,0.0,-2.1645,0.0,-2.0344,0.0,0.0,0.0,0.0,0.0,-2.3409,-2.3952,-2.148,-2.5291,-2.7324,-2.6384,-2.7975,-2.9285,-3.0083,-2.9972,-2.9888,-2.9888,-2.9888,-2.9888,-2.9874,-2.9823,-2.979,-2.9773,-2.9719,-2.9701,-2.9701,-2.9683,-2.9626,-2.9512,-2.9492,-2.9451,-2.9388,-2.9407,-2.9407,-2.9425,-2.9628,-3.0005,-3.0522,1.3305,0.5077,0.0,-0.2558,-0.782,-1.4298,-2.1286,-2.3184,-2.4088,0.0,0.0,0.0,0.0,0.0,0.0,0.0,0.0,-2.157,-2.4333,0.0,-2.0705,-1.7896,-2.283,-2.3095,-1.7566,-2.2215,-2.4711,-2.4698,-2.4832,-2.4875,-2.4806,-2.4945,-2.498,-2.4902,-2.4961,-2.4993,-2.5012,-2.507,-2.5095,-2.5101,-2.5113,-2.5137,-2.5191,0.0,-2.521,-2.518,-2.5125,0.0,0.0,-2.4987,-2.4961,0.0,0.0,0.0,0.0,0.0,0.0,0.0,0.0,0.0,0.0,-2.8189,0.0,0.0,0.0,0.0,-2.5505,0.0,0.0,0.0,0.0,0.0,0.0,0.0,0.0,0.0,0.0,0.0,0.0,0.0,0.0,0.0,0.0,-2.361,-2.439,0.0,-2.4266,-2.5619,-2.6364,-2.6403,-2.7556,-3.0026,-2.9972,-2.9888,-2.9888,-2.9888,-2.9874,-2.9808,-2.9808,-2.9774,-2.9683,-2.9701,-2.9701,-2.9701,-2.9626,-2.9607,-2.9588,-2.9471,-2.9412,-2.9392,-2.9388,-2.9407,-2.9479,-3.0194,-3.0424,-3.0614,0.0,0.0,0.0,0.0,0.0,-0.8806,-1.6399,-2.1453,0.0,0.0,-2.4786,0.0,0.0,-2.3973,-2.3658,0.0,0.0,-2.1312,-2.5044,-2.3069,0.0,-2.3284,-2.5287,-2.543,0.0,-2.5186,-2.5961,-2.5555,-2.5618,-2.5333,-2.4806,-2.485,-2.4875,-2.4837,-2.4851,-2.487,0.0,0.0,0.0,0.0,0.0,-2.5137,-2.5191,0.0,-2.5168,-2.5125,-2.5107,-2.507,0.0,-2.4972,-2.4926,-2.4861,-2.454,-2.4582,-2.5045,-2.6541,-2.72,0.0,0.0,0.0,-2.8099,-2.7864,0.0,0.0,0.0,0.0,0.0,0.0,0.0,0.0,0.0,0.0,0.0,0.0,0.0,0.0,0.0,0.0,0.0,0.0,0.0,0.0,0.0,0.0,0.0,0.0,-2.1185,0.0,-2.3108,-2.6225,-2.8425,-2.9284,-2.9808,-3.0113,-3.0113,-3.0113,-3.0098,-3.0068,-3.0022,-2.9943,-2.9823,-2.979,-2.9738,-2.9701,-2.9683,-2.9626,-2.9588,-2.955,-2.9491,-2.9412,-2.9411,-2.9409,-2.9405,-2.962,-2.9669,-2.9824,1.6584,0.0,0.0,0.0,0.0,0.0,0.0,0.0,0.0,0.0,-2.5017,0.0,-2.5145,0.0,-2.413,0.0,-2.2718,-2.2638,-2.5586,-2.4118,0.0,-2.4723,-2.5796,0.0,0.0,-2.5633,-2.5966,-2.5723,-2.5548,-2.522,-2.476,-2.476,-2.4742,-2.4738,-2.4753,-2.4768,-2.4764,-2.4875,-2.4969,0.0,0.0,-2.5125,0.0,0.0,-2.5168,-2.5101,0.0,-2.5057,-2.498,-2.4912,-2.5092,-2.5309,-2.522,-2.5528,-2.6167,-2.7342,-2.7862,-2.8209,-2.8894,-2.8527,0.0,-2.765,-2.6603,0.0,-2.6082,0.0,0.0,0.0,0.0,0.0,0.0,0.0,0.0,0.0,0.0,0.0,0.0,-2.1585,0.0,0.0,0.0,0.0,0.0,0.0,-1.9467,-1.6491,-2.0213,-2.2668,0.0,-2.581,-2.8141,-2.9325,-2.9917,-3.0204,-3.0204,-3.0204,-3.019,-3.0176,-3.0117,-3.0022,-2.9888,-2.9857,-2.9808,-2.9738,-2.9738,-2.9701,-2.9626,-2.9569,-2.9511,-2.9433,-2.9411,-2.9409,-2.9386,-2.9323,-2.9425,-2.9806,1.8185,1.7201,0.0,0.0,0.4656,0.0,0.0,0.0,-2.3551,0.0,-2.4334,-2.432,-2.511,-2.487,-2.4684,-2.4786,-2.4925,-2.5192,-2.5824,-2.5872,0.0,0.0,-2.453,-2.4551,-2.1809,-2.3726,-2.491,-2.5214,-2.4838,-2.4678,-2.4741,-2.4778,-2.4762,-2.4711,-2.4725,0.0,-2.4748,-2.4776,-2.4865,-2.501,-2.5063,-2.5101,-2.5113,-2.5168,-2.5156,-2.5101,-2.5095,-2.5057,-2.498,-2.4912,-2.5423,-2.6076,-2.5944,-2.592,-2.6226,-2.7736,-2.7718,-2.7546,-2.9101,-2.9023,-2.8339,-2.7585,-2.6764,0.0,0.0,0.0,-2.5098,0.0,0.0,0.0,0.0,0.0,0.0,0.0,0.0,0.0,0.0,0.0,0.0,0.0,0.0,0.0,0.0,-2.2345,-2.2412,-1.9216,-2.1168,-2.3282,0.0,-2.5249,-2.6816,-3.0032,-3.0166,-3.0204,-3.0204,-3.0204,-3.0176,-3.0102,-3.0102,-3.0038,-2.9905,-2.9905,-2.9874,-2.9808,-2.9808,-2.9755,-2.9701,-2.9569,-2.9492,-2.9492,-2.9429,-2.9407,-2.9386,-2.9323,-2.9776,-3.0526,1.864,1.829,1.7873,0.0,0.9572,0.1352,0.0,0.0,0.0,0.0,-1.6859,-1.4661,-0.9006,-1.7779,-2.211,-1.7073,-2.1262,0.0,0.0,0.0,0.0,-2.459,-2.5832,-2.615,-2.5316,-2.6243,-2.6391,-2.566,-2.6315,-2.6217,-2.5392,-2.5987,-2.6265,-2.6265,0.0,-2.5445,-2.5405,-2.4893,-2.4742,-2.4856,-2.4991,-2.5057,-2.5095,0.0,-2.5107,-2.5095,-2.5101,-2.5063,-2.4991,-2.487,-2.5393,-2.6095,-2.5949,-2.6707,-2.7737,-2.809,-2.85,-2.876,-2.8536,-2.7998,-2.7445,-2.7219,-2.6204,-2.537,0.0,0.0,0.0,0.0,0.0,0.0,0.0,0.0,0.0,0.0,0.0,0.0,0.0,0.0,0.0,-2.2508,0.0,0.0,-2.0175,-2.0216,-2.0112,-1.9879,-1.9863,-2.1176,-2.4147,0.0,-2.7802,-2.9251,-2.9901,-3.0213,-3.0204,-3.0204,-3.0204,-3.0157,-3.0157,-3.0128,-3.0038,-3.0038,-2.9959,-2.9808,-2.9808,-2.9755,-2.9683,-2.9607,-2.955,-2.9492,-2.9431,-2.9409,-2.9386,-2.9323,-2.9776,-3.0526,1.9916,1.9681,0.0,1.8643,0.0,0.0,0.2033,-0.3895,0.0,-1.308,-1.3773,0.0,-0.7687,-1.1506,-1.4181,-1.3628,-1.7155,0.0,-2.4909,0.0,0.0,-2.5416,-2.5783,-2.6021,-2.6075,-2.504,0.0,-2.6027,-2.5195,-2.5228,-2.6057,-2.6499,-2.672,-2.6722,0.0,-2.6115,-2.6079,-2.5408,-2.4965,-2.4723,-2.4861,-2.4931,0.0,-2.5076,-2.5089,-2.5063,-2.5089,-2.5063,-2.4977,-2.487,-2.5653,-2.6607,-2.651,-2.7567,-2.8858,-2.8801,-2.9077,-2.9223,-2.8406,-2.7102,-2.6054,-2.6447,-2.5089,-2.3992,-2.5219,-2.4403,-2.3436,0.0,-2.2301,-2.1215,0.0,0.0,0.0,0.0,0.0,0.0,0.0,0.0,0.0,0.0,-2.1336,0.0,-2.0269,-1.8785,-1.8655,-2.0623,-2.0318,-2.1529,-2.4905,0.0,-2.8171,-2.897,-2.9813,-3.0253,-3.024,-3.024,-3.0226,-3.0213,-3.0213,-3.0185,-3.0147,-3.0147,-3.0072,-2.9926,-2.9857,-2.9808,-2.9738,-2.9645,-2.9588,-2.9531,-2.9433,-2.939,-2.9407,-2.9365,-2.9601,-3.0098,2.1439,2.1089,0.0,0.0,0.0,0.0,0.0,-0.1024,0.0,-0.9846,0.0,-1.0112,-0.9136,-0.4882,-0.4798,-1.1499,0.0,-1.6937,-2.4844,-2.5123,-2.5123,-2.5339,-2.5123,-2.5123,-2.5339,-2.2459,-2.2647,0.0,0.0,-2.359,-2.6683,-2.6814,-2.6848,-2.6805,0.0,0.0,0.0,-2.6024,-2.535,-2.4731,-2.476,-2.4764,-2.4794,-2.4972,-2.5018,-2.4991,-2.5044,-2.505,-2.4996,-2.4931,-2.597,-2.7285,-2.7238,-2.8314,-2.9588,-2.9531,-2.9472,-2.9283,-2.8633,-2.6692,-2.5016,-2.5779,-2.4174,-2.2806,-2.4273,-2.4473,-2.4403,-2.4521,-2.3199,-2.1658,0.0,0.0,0.0,0.0,0.0,0.0,0.0,0.0,0.0,0.0,0.0,0.0,0.0,-1.8525,-1.8428,-2.1455,-2.1677,-2.315,-2.6507,0.0,-2.8234,-2.9142,-2.9896,-3.0279,-3.0312,-3.0266,-3.0253,-3.0188,-3.0161,-3.0166,-3.0204,-3.0171,-3.0147,-3.0087,-2.9972,-2.9891,-2.9789,-2.9664,-2.9607,-2.9569,-2.9453,-2.939,-2.9347,-2.9386,-2.9386,-2.9477,2.1925,0.0,0.0,0.0,0.0,2.1158,1.9867,1.7237,1.3212,0.7122,0.6219,0.849,1.446,0.5043,-0.2383,-0.4035,-0.9968,0.0,0.0,0.0,0.0,-2.5084,-2.5045,-2.5005,-2.5084,-2.361,-2.3637,0.0,0.0,0.0,-2.7029,-2.7919,-2.8348,0.0,0.0,0.0,-2.656,-2.5853,0.0,-2.5375,-2.4791,-2.4594,-2.4639,-2.4738,-2.4823,-2.4921,-2.4926,-2.4945,-2.4996,-2.4931,-2.597,-2.7304,-2.729,-2.8351,-2.9588,-2.9588,-2.9531,-2.9455,-2.9324,-2.8017,-2.6673,-2.6822,-2.5514,-2.4244,-2.454,-2.3534,-2.2563,-2.2585,-2.1352,-2.0584,-2.1655,0.0,0.0,0.0,0.0,0.0,0.0,0.0,0.0,0.0,0.0,-2.035,0.0,0.0,-2.1258,-2.2562,-2.2604,-2.407,-2.7458,0.0,-2.856,0.0,-3.0098,0.0,0.0,0.0,-3.0094,-3.0207,-3.003,-3.0049,-3.0185,-3.0034,-3.0022,-3.0102,-3.0087,-3.0007,-2.9855,-2.9735,-2.9626,-2.9492,-2.9433,-2.927,-2.9101,-2.9326,-2.9262,-2.92,2.2978,0.0,0.0,0.0,0.0,0.0,0.0,2.2434,1.9554,1.1758,1.0544,1.1727,1.5208,1.2334,0.8453,0.4393,0.0407,-0.6774,-1.8331,-1.9071,-2.0863,-2.4831,-2.5005,-2.5005,-2.5005,-2.3076,-2.3289,-2.5832,0.0,0.0,-2.7531,0.0,0.0,-2.8492,0.0,-2.7676,0.0,0.0,0.0,-2.5954,-2.5245,-2.4968,-2.493,-2.4678,-2.4657,-2.4764,-2.487,-2.4917,-2.4931,-2.4917,-2.5687,-2.6755,-2.7123,-2.8049,-2.897,-2.8971,-2.8952,-2.8765,-2.7903,-2.6463,-2.5288,-2.5735,-2.4629,-2.3618,-2.4428,-2.3998,-2.3438,-2.34,-2.2106,-2.125,-2.213,-2.2999,0.0,0.0,0.0,0.0,0.0,0.0,0.0,0.0,0.0,0.0,0.0,0.0,0.0,0.0,0.0,0.0,0.0,0.0,-2.7785,0.0,0.0,0.0,-3.0202,0.0,-3.0003,-2.9996,-2.9902,-2.9905,-2.9991,-2.9855,-2.9822,-2.9891,-2.9823,-2.9754,-2.9681,-2.9626,-2.9589,-2.955,-2.9472,-2.9353,-2.9188,-2.9119,-2.9007,-2.8975,0.0,2.3805,0.0,0.0,2.326,2.3098,2.3068,2.3113,2.0876,1.4446,1.3265,1.2993,1.2948,1.7972,1.8174,1.0432,0.9377,0.3349,-1.0306,-1.1204,-1.4624,-2.2234,-2.2576,-2.3363,-2.495,-2.2604,-2.2797,0.0,0.0,0.0,0.0,0.0,0.0,0.0,0.0,0.0,0.0,0.0,-2.7144,-2.6513,-2.5807,-2.5411,-2.5173,-2.4764,-2.4575,-2.4545,-2.4734,-2.4856,-2.4884,-2.487,-2.5408,-2.6208,-2.6768,-2.7488,-2.8108,-2.8091,-2.8091,-2.7829,-2.657,-2.511,-2.412,-2.4792,-2.3885,-2.3135,-2.4348,-2.4663,-2.4682,-2.4631,-2.3565,-2.2697,-2.2835,-2.2846,0.0,0.0,0.0,0.0,0.0,0.0,0.0,0.0,0.0,0.0,-1.9001,0.0,0.0,0.0,0.0,0.0,-2.2596,0.0,0.0,0.0,0.0,-2.9453,-3.0136,0.0,-2.9888,-2.9817,-2.9786,-2.977,-2.9808,-2.9681,-2.9663,-2.9681,-2.957,-2.9512,-2.9472,-2.9472,-2.9472,-2.9453,-2.9373,-2.9272,-2.9104,-2.8837,-2.87,-2.8694,0.0,0.0,0.0,0.0,0.0,2.3764,2.3551,2.3465,2.3083,2.2279,2.1865,2.1563,2.1306,2.1885,1.8856,1.0377,0.9556,0.5856,-0.2895,-0.3443,-0.6793,-1.435,-1.4666,-1.7894,-2.4847,-2.3518,-2.3016,0.0,0.0,-2.4522,0.0,0.0,0.0,0.0,0.0,0.0,0.0,-2.75,-2.7209,-2.7065,-2.6345,-2.5592,-2.4942,-2.4965,-2.4644,-2.4264,-2.4476,-2.4689,-2.4884,-2.4817,-2.5382,-2.6095,-2.611,-2.6573,-2.7121,-2.7065,-2.7084,-2.7084,-2.6953,-2.6332,-2.5778,-2.5853,-2.5177,-2.452,-2.4654,-2.4692,-2.4692,-2.4692,-2.4567,-2.4504,-2.4629,-2.4512,-2.4473,0.0,0.0,0.0,0.0,0.0,-2.1855,-2.0115,0.0,0.0,-1.8962,-2.1872,0.0,0.0,-2.1036,0.0,0.0,0.0,0.0,-2.8795,-2.9541,-3.0023,-3.0279,-2.9902,-2.9787,-2.9888,-2.9719,-2.9682,-2.979,-2.9551,-2.9532,-2.9699,-2.9626,-2.9513,-2.9412,-2.9412,-2.923,-2.8975,-2.8883,-2.8646,-2.8342,-2.8478,-2.8376,-2.821,0.0,0.0,0.0,0.0,0.0,0.0,0.0,2.3979,2.3551,2.3377,2.3187,2.2992,2.2675,2.2431,2.0931,1.7576,1.6705,1.305,0.531,0.4493,0.0924,-0.6647,-0.6976,-1.0554,-1.8084,-1.7747,-1.9798,0.0,0.0,0.0,0.0,0.0,0.0,0.0,0.0,-2.7806,-2.7943,-2.7771,-2.7673,-2.7602,-2.6757,-2.6118,-2.5579,-2.4729,-2.432,-2.4176,-2.4074,-2.4263,-2.462,-2.4673,-2.496,-2.5382,-2.5712,-2.6002,-2.6209,-2.6098,-2.6079,-2.5987,-2.5523,-2.5188,-2.4999,-2.5084,-2.4839,-2.4594,-2.4692,-2.4707,-2.4707,-2.4707,-2.4692,-2.4711,-2.4757,-2.4787,-2.4753,-2.4676,0.0,0.0,0.0,0.0,0.0,-1.7768,0.0,-1.7832,0.0,-2.1031,0.0,0.0,0.0,0.0,0.0,0.0,0.0,-2.9025,0.0,-2.9074,-3.0114,-2.9836,-2.9699,-2.9645,-2.957,-2.955,-2.9551,-2.9411,-2.9328,-2.927,-2.9249,-2.9246,-2.9222,-2.9222,-2.9141,-2.902,-2.8989,-2.8892,-2.8707,-2.842,-2.8264,-2.8129,2.6674,0.0,2.5533,0.0,2.5259,2.491,2.4902,2.4461,2.3979,2.3595,2.3523,2.3334,2.2841,2.2552,2.2385,2.2324,2.1636,1.8935,1.3465,1.2628,0.8956,0.1334,0.0832,0.0,-1.0328,-1.0529,-1.3083,-1.8414,-1.919,0.0,0.0,0.0,0.0,0.0,-2.7164,-2.7369,-2.7535,-2.7777,-2.7853,-2.7771,-2.6906,-2.6221,-2.5634,-2.4386,-2.3739,-2.3517,-2.349,-2.3723,-2.4118,-2.4402,-2.4588,-2.4782,-2.5217,-2.5317,-2.5245,-2.5114,-2.5095,-2.4948,-2.4394,-2.4266,-2.4321,-2.4428,-2.4444,-2.4461,-2.4564,-2.4596,-2.4578,-2.4626,-2.4626,-2.4645,-2.4631,-2.4757,-2.4783,-2.4594,0.0,0.0,0.0,-2.028,0.0,0.0,-1.691,-1.7549,-1.9536,-2.1604,0.0,0.0,0.0,0.0,0.0,0.0,0.0,0.0,0.0,0.0,-3.0056,-2.9855,-2.9663,-2.957,-2.9531,-2.9492,-2.9433,-2.9349,-2.92,-2.904,-2.904,-2.9021,-2.9044,-2.9044,-2.8984,-2.8925,-2.8934,-2.8905,-2.8791,-2.8326,-2.8138,-2.8083,2.7117,2.7117,2.6939,2.6229,2.6104,2.5799,2.502,2.4902,2.4623,2.3909,2.3925,2.3683,2.2886,2.2809,2.2644,2.2231,2.2184,2.1969,2.15,2.0926,1.7315,0.0,0.0,0.5065,-0.2566,-0.2748,-0.2391,-0.1703,0.0,0.0,-0.3285,0.0,-1.9575,-2.6123,-2.6607,-2.6808,-2.6858,-2.7386,-2.7557,-2.7448,-2.677,-2.5782,-2.4626,-2.3947,-2.2962,-2.2005,-2.2677,-2.3066,-2.3404,-2.4081,-2.4386,-2.4512,-2.4495,-2.4393,-2.421,-2.4151,-2.4112,-2.4112,-2.4112,-2.4209,-2.4284,-2.4303,-2.4303,-2.4303,-2.4303,-2.4303,-2.4339,-2.4478,-2.4512,-2.4512,-2.4512,-2.461,-2.4657,-2.4522,0.0,0.0,0.0,0.0,0.0,-1.977,-2.0559,-2.1405,-2.2102,-2.458,0.0,0.0,0.0,0.0,0.0,0.0,0.0,-2.7668,-2.9315,0.0,-3.0204,-2.9924,-2.9771,-2.9699,-2.9626,-2.955,-2.9492,-2.9373,-2.9228,-2.9089,-2.9089,-2.9021,-2.8887,-2.8887,-2.8743,-2.8492,-2.8492,-2.8388,-2.8174,-2.8053,-2.7996,-2.7968,2.7396,2.7195,2.6989,2.6504,2.6262,2.6016,2.5762,2.5237,2.4728,2.4282,2.4036,2.3711,2.326,2.3157,2.2992,0.0,2.2338,2.2137,0.0,2.1527,1.9999,1.7242,1.6924,1.3135,0.52,0.5044,0.2635,-0.2211,0.0,0.0,0.0,-0.7019,-1.2161,-1.8615,-1.8953,-2.1793,-2.635,-2.6539,-2.664,-2.6455,-2.4585,-2.3357,-2.2349,-2.0285,-1.9451,-1.9544,-2.0062,-2.1118,-2.239,-2.315,-2.3777,-2.4229,-2.4229,-2.421,-2.4171,-2.4056,-2.4016,-2.4016,-2.4016,-2.4056,-2.4114,-2.421,-2.4192,-2.4192,-2.4339,-2.4339,-2.4303,-2.4357,-2.4375,-2.4375,-2.4375,-2.4446,-2.4481,-2.4445,-2.3549,0.0,-2.062,0.0,-1.6769,-1.788,-1.8379,-1.9557,-2.2023,-2.4168,0.0,0.0,0.0,0.0,0.0,0.0,0.0,0.0,-2.8979,0.0,-3.0,-3.0007,-2.9926,-2.9771,-2.9755,-2.9626,-2.9433,-2.9353,-2.9228,-2.9071,-2.8519,-2.8525,-2.885,-2.8255,-2.8251,-2.8619,-2.8587,-2.8536,-2.8458,-2.8219,-2.8136,-2.8063,2.7636,2.7382,2.71,2.6792,2.6487,2.6175,2.5888,2.553,2.5045,2.442,2.4147,2.3882,2.3595,2.3566,0.0,2.2947,2.2692,2.2495,2.237,2.1874,2.1431,2.1055,2.0908,1.845,1.3468,1.333,0.0,0.5763,0.5148,0.3343,0.0421,-0.0094,-0.3943,-1.0416,-1.0942,-1.3655,-1.7832,-1.8215,-1.8387,-1.8313,-1.7303,-1.6526,-1.5788,-1.47,-1.4765,-1.559,-1.6992,-1.8812,-2.0767,-2.2344,-2.3305,-2.3846,-2.3959,-2.3958,-2.3935,-2.3873,-2.381,-2.3801,-2.4068,-2.3941,-2.3843,-2.4301,-2.4178,-2.3961,-2.4191,-2.4449,-2.4651,-2.469,-2.4709,-2.4709,-2.4708,-2.4524,-2.4393,-2.4358,-2.3021,-2.1282,-1.9219,0.0,-1.6512,0.0,0.0,0.0,0.0,-2.4572,-2.5506,0.0,0.0,0.0,0.0,0.0,0.0,-2.8692,-2.9004,-2.9374,-2.982,-2.9857,-2.9806,-2.9682,-2.9608,-2.9474,-2.931,-2.9188,-2.9056,-2.8915,-2.8443,-2.8453,-2.8779,-2.831,-2.8377,-2.8767,-2.8712,-2.8637,-2.8536,-2.8282,-2.8164,-2.8027,2.7858,2.7595,2.7321,0.0,2.6708,2.6262,2.5594,2.5686,2.5506,2.4523,2.4343,2.4177,2.3882,2.394,2.3797,2.3216,0.0,0.0,2.2646,2.2263,2.1996,2.1793,2.1431,2.1237,2.114,2.1175,2.0706,1.9723,1.865,1.4848,0.8548,0.8548,0.4796,-0.1932,-0.2791,-0.3465,-0.3961,-0.4852,-0.5217,-0.5361,-0.6461,-0.6569,-0.6209,-0.7644,-0.8827,-1.0184,-1.3471,-1.6044,-1.8404,-2.1638,-2.3007,-2.3455,-2.3753,-2.3725,-2.3567,-2.3571,-2.3512,-2.3525,-2.4155,-2.3855,-2.359,-2.4485,-2.4177,-2.3721,-2.4008,-2.4686,-2.5312,-2.5439,-2.5461,-2.5459,-2.5456,-2.4968,-2.4467,-2.4247,-2.2895,-2.1,-1.8445,-1.811,-1.8395,0.0,0.0,0.0,-2.5301,-2.5523,-2.5282,0.0,0.0,0.0,0.0,0.0,-2.9528,-2.8539,-2.928,-2.9697,-2.9699,-2.9589,-2.9512,-2.9492,-2.9293,-2.9206,-2.92,-2.8925,-2.8761,-2.8718,-2.8713,-2.8688,-2.8694,-2.8785,-2.885,-2.8815,-2.8743,-2.8619,-2.844,-2.8255,-2.8109,-2.7862,0.0,0.0,2.7393,2.6536,2.6455,2.6434,2.6277,2.5709,2.5265,2.5137,2.4655,2.4261,2.4177,2.4219,2.4051,2.3653,2.3304,2.3083,2.2994,2.2646,2.2278,2.1793,2.1698,2.1251,2.0472,2.0845,2.0746,2.0105,1.9109,1.779,1.6208,1.585,1.1956,0.5331,0.5114,0.2051,-0.2928,-0.3152,-0.3504,-0.3768,-0.2381,-0.1795,-0.1573,-0.0521,-0.047,-0.1835,-0.8537,-1.1924,-1.4189,-2.0671,-2.3045,-2.3383,-2.4153,-2.4277,-2.4032,-2.3636,-2.3891,-2.4219,-2.3773,-2.3969,-2.4201,-2.3825,-2.3998,-2.4361,-2.4622,-2.528,-2.5886,-2.6115,-2.6158,-2.6158,-2.6155,-2.6093,-2.5383,-2.3547,-2.1877,-2.0427,-1.9182,-1.7449,-1.7541,0.0,-2.1207,-2.2098,-2.4608,-2.4828,-2.4981,0.0,0.0,0.0,-2.6411,-2.7952,-2.838,-2.7484,-2.8856,-2.9608,-2.9551,-2.9664,-2.9682,-2.9569,-2.9373,-2.9289,-2.9262,-2.9012,-2.8832,-2.8731,-2.7991,-2.7933,-2.8352,-2.7679,-2.7717,-2.8201,-2.8147,-2.8055,-2.7989,-2.8081,-2.8035,-2.778,2.7936,2.7871,2.7648,2.6819,2.6486,2.6353,2.6367,2.5905,2.5411,2.487,2.4592,2.4385,2.4193,2.4234,2.4193,2.3982,2.3494,2.3172,2.3172,2.2904,2.2586,2.2203,2.2249,2.1969,2.1202,2.1479,2.1286,2.056,1.9798,1.9291,1.9081,1.8804,1.671,1.3103,1.2908,1.0746,0.7156,0.6932,0.6712,0.643,0.6431,0.6608,0.6809,0.6236,0.5562,0.4222,-0.1426,-0.4626,-0.7013,-1.198,-1.4076,-1.527,-1.8837,-1.9996,-2.0621,-2.3466,-2.459,-2.4794,-2.4353,-2.43,-2.429,-2.3903,-2.4431,-2.5091,-2.5231,-2.5857,-2.6462,-2.661,-2.6616,-2.6616,-2.6591,-2.6154,-2.5142,-2.3042,-2.1825,-2.0543,-1.8857,-1.8876,-1.9739,-2.1534,-2.2482,-2.3528,-2.4892,-2.4651,-2.4727,-2.5504,-2.5671,0.0,-2.6321,-2.7569,-2.8072,-2.766,-2.8858,-2.9493,-2.9453,-2.9531,-2.9511,-2.9429,-2.9267,-2.9181,-2.9152,-2.8892,-2.8731,-2.8633,-2.8023,-2.7941,-2.8237,-2.7736,-2.7718,-2.7982,-2.7926,-2.7829,-2.773,-2.7795,-2.7642,-2.7274,2.8254,2.8209,2.8024,2.7455,2.6877,2.6438,2.6212,2.6198,2.5756,2.4587,2.4465,2.4364,2.4048,2.4094,2.4181,2.4197,2.3728,2.3408,2.3319,2.3038,2.2799,2.2618,2.2754,2.2632,2.2278,2.217,2.1779,2.1042,2.056,2.0067,1.9617,1.9577,1.9525,1.9525,1.9081,1.891,1.8857,1.8483,1.8267,1.7961,1.5735,1.5164,1.5335,1.2405,1.0724,0.9387,0.574,0.3028,0.0736,-0.1908,-0.3463,-0.5343,-1.1099,-1.3151,-1.456,-2.06,-2.2288,-2.2672,-2.4527,-2.4582,-2.4138,-2.4383,-2.5137,-2.5833,-2.5867,-2.6472,-2.7068,-2.7139,-2.7139,-2.7112,-2.7041,-2.6206,-2.4932,-2.3151,-2.2555,-2.1479,-1.9051,0.0,-2.2776,-2.2039,-2.3955,-2.5316,-2.5316,-2.4652,-2.4523,-2.5262,-2.53,-2.5356,-2.5486,-2.6896,-2.7828,-2.8072,-2.8948,-2.9412,-2.9412,-2.9368,-2.9283,-2.9222,-2.9175,-2.9108,-2.9017,-2.8767,-2.8594,-2.8518,-2.838,-2.8273,-2.8191,-2.8246,-2.8128,-2.7915,-2.784,-2.7713,-2.7491,-2.7478,-2.7213,-2.6721,2.8309,2.8209,2.817,2.8066,2.7939,2.7522,2.6376,2.6208,2.6122,2.5891,2.4823,2.406,2.3994,2.4028,2.4112,2.4261,2.42,2.3909,2.3334,2.2934,2.2618,2.231,2.2324,2.2077,2.1568,2.1104,2.1006,2.1313,2.0908,2.0646,2.056,2.022,2.008,2.0029,1.9512,1.9316,1.9316,1.9251,1.8934,1.8494,1.8058,1.7654,1.7269,1.6837,1.6539,1.5421,0.8811,0.6263,0.5018,-0.1419,-0.3562,-0.3785,-0.5495,-0.6043,-0.6413,-0.8203,-0.8749,-1.0999,-2.1453,-2.4181,-2.4234,-2.4906,-2.5684,-2.6346,-2.6587,-2.7199,-2.7832,-2.8111,-2.8164,-2.8138,-2.8076,-2.7967,-2.715,-2.4972,-2.4418,-2.3959,-2.3071,0.0,-2.3191,-2.4381,-2.4499,-2.4487,-2.4487,-2.4377,-2.4321,-2.4394,-2.4394,-2.445,-2.4524,-2.5393,-2.6283,-2.7102,-2.861,-2.9433,-2.9492,-2.9412,-2.9351,-2.9272,-2.9265,-2.924,-2.9156,-2.8952,-2.8791,-2.8644,-2.8466,-2.8282,-2.8126,-2.8126,-2.7911,-2.7569,-2.7569,-2.7341,-2.7023,-2.7258,-2.7195,-2.6847,2.8281,2.8201,2.8198,2.82,2.7594,2.6923,2.6286,2.6193,2.6204,2.6188,2.5615,2.4831,2.3878,2.379,2.3808,2.3895,2.4101,2.3934,2.3392,2.2746,2.257,2.2921,2.2965,2.2665,2.2109,2.1684,2.1458,2.1423,2.1215,2.0957,2.0709,2.051,2.0422,2.0422,1.9914,1.9708,1.9708,1.946,1.9263,1.8999,1.8721,1.8614,1.8548,1.7995,1.7952,1.7716,1.4024,1.2577,1.1888,0.8433,0.7051,0.606,0.1878,0.0463,-0.0453,-0.4604,-0.8289,-1.2253,-1.7975,-2.2404,-2.5474,-2.5823,-2.6429,-2.7033,-2.7163,-2.7455,-2.773,-2.7876,-2.7922,-2.7922,-2.7864,-2.768,-2.6915,-2.4992,-2.5105,0.0,-2.3937,-2.4251,-2.4853,-2.5597,-2.5048,-2.4697,-2.4815,-2.441,-2.4356,-2.4855,-2.4506,-2.4653,-2.554,-2.5522,-2.5911,-2.6764,-2.8457,-2.9373,-2.9453,-2.933,-2.9289,-2.9307,-2.9197,-2.9152,-2.9178,-2.9021,-2.8929,-2.8887,-2.8669,-2.8466,-2.83,-2.8191,-2.7922,-2.7539,-2.7509,-2.7247,-2.6909,-2.7038,-2.6908,-2.6472,2.8414,2.8254,2.8201,2.8215,2.736,2.6539,2.6243,2.6219,2.6203,2.6196,2.6204,2.5675,2.4351,2.4215,2.4194,2.4194,2.407,2.3849,2.3475,2.289,2.2847,2.3522,2.3507,2.3231,2.2844,2.2495,2.2077,2.1602,2.1602,2.1361,2.0858,2.0809,2.0772,2.0759,2.0346,2.0144,2.0093,1.9811,1.9617,1.946,1.9028,1.904,1.921,1.8387,1.8333,1.8614,1.8104,1.7648,1.7292,1.707,1.6537,1.4997,0.9562,0.7688,0.6432,0.0993,-0.5454,-1.119,-1.2845,-1.7265,-2.1842,-2.3734,-2.4599,-2.545,-2.7157,-2.7539,-2.7539,-2.7539,-2.7539,-2.7539,-2.7526,-2.7256,-2.6631,-2.542,0.0,-2.3789,0.0,-2.2142,-2.2344,-2.3759,-2.3144,-2.2723,-2.3017,-2.2438,-2.2357,-2.3102,-2.2661,-2.3442,-2.5941,-2.552,-2.5688,-2.6667,-2.8192,-2.9147,-2.9412,-2.9289,-2.9243,-2.9262,-2.913,-2.9067,-2.9134,-2.9062,-2.9017,-2.9021,-2.8743,-2.8619,-2.8518,-2.8309,-2.8017,-2.7742,-2.7672,-2.7369,-2.699,-2.6975,-2.659,-2.5946,2.882,2.847,2.8198,2.8193,2.8137,2.7646,2.637,2.6185,2.6184,2.6203,2.6217,2.6145,2.6043,2.6018,2.6022,2.6022,2.4564,2.364,2.3605,2.3538,2.3478,2.3407,2.3111,2.3024,2.3275,2.2828,2.2449,2.2221,2.217,2.1983,2.1712,2.1471,2.1313,2.1326,2.0809,2.056,2.056,2.051,2.0207,1.9747,1.9747,1.9448,1.904,1.9052,1.9052,1.8934,1.8614,1.8363,1.8178,1.7765,1.7567,1.7412,1.6918,1.6721,1.6503,1.5467,0.9535,0.1952,-0.4662,-0.6295,-0.7933,-1.5515,-1.7448,-1.9301,-2.6148,-2.7701,-2.7701,-2.7701,-2.7701,-2.7672,-2.76,-2.7607,-2.7666,-2.7723,0.0,0.0,-1.91,-1.3136,-1.0781,-1.6434,-1.6338,-1.5963,-1.6292,-1.6258,-1.6231,-1.6237,-1.6407,-1.8764,-2.3919,-2.432,-2.5115,-2.6648,-2.7614,-2.8509,-2.9394,-2.9332,-2.9249,-2.9218,-2.9178,-2.913,-2.9017,-2.9017,-2.8929,-2.881,-2.8594,-2.8569,-2.8669,-2.8388,-2.8237,-2.8156,-2.8075,-2.7718,-2.7272,-2.7213,-2.6529,-2.5478,2.8925,2.8228,2.7647,2.7648,2.7954,2.8025,2.7528,2.6725,2.6215,2.6191,2.6214,2.6184,2.6184,2.6194,2.6211,2.6211,2.4608,2.3575,2.3619,2.4622,2.4722,2.3551,2.3348,2.3319,2.3422,2.2994,2.2768,2.2649,2.2663,2.2449,2.2044,2.1949,2.1698,2.1375,2.0858,2.061,2.061,2.0422,2.022,2.0067,2.0207,1.9952,1.95,1.9565,1.9356,1.8987,1.8881,1.8774,1.8655,1.8104,1.7929,1.7875,1.749,1.7435,1.749,1.7401,1.5233,1.2148,0.9068,0.1473,-0.6282,-0.9271,-1.0017,-1.0753,-1.354,-1.4184,-1.4209,-1.4359,-1.4647,-1.4912,-1.4898,-1.86,-2.0178,-1.5773,0.0,-1.5951,-1.2098,-0.8638,-0.7588,-1.0456,-1.0129,-0.9816,-1.0288,-1.0322,-1.0377,-1.0472,-1.0387,-1.152,-1.4292,-1.7918,-2.0418,-2.1586,-2.5366,-2.8013,-2.9334,-2.9203,-2.9138,-2.92,-2.9021,-2.8975,-2.9062,-2.8975,-2.8952,-2.8975,-2.8834,-2.8743,-2.8761,-2.8612,-2.8083,-2.7334,-2.7582,-2.7005,-2.6029,-2.5832,-2.5564,-2.5063,2.9,2.8083,2.7299,2.7302,2.7626,2.7921,2.7924,2.7145,2.642,2.606,2.6002,2.6046,2.6175,2.62,2.6192,2.6192,2.5091,2.4436,2.4445,2.5299,2.5222,2.4017,2.3666,2.3581,2.364,2.3216,2.2979,2.2934,2.2934,2.2709,2.231,2.2402,2.2217,2.1827,2.1479,2.1237,2.1104,2.0921,2.0623,2.0321,2.051,2.0258,1.9798,1.9798,1.9552,1.9251,1.9158,1.9093,1.8987,1.8536,1.8375,1.8267,1.7875,1.771,1.7655,1.7765,1.771,1.7435,1.7011,0.9207,0.0568,-0.1898,-0.2491,-0.3118,-0.5453,-0.5979,-0.6034,-0.6188,-0.654,-0.6836,-0.6836,-1.0868,-1.2604,-0.7602,-0.8848,-0.8909,-0.4475,-0.1582,-0.0811,-0.3407,-0.3349,-0.3298,-0.389,-0.4113,-0.4341,-0.4676,-0.4454,-0.5459,-0.8027,-1.1951,-1.4455,-1.5248,-1.9044,-2.1704,-2.2956,-2.7049,-2.9112,-2.9152,-2.8975,-2.8952,-2.9021,-2.8952,-2.8952,-2.9044,-2.8892,-2.8821,-2.8834,-2.87,-2.8149,-2.7415,-2.7667,-2.6981,-2.5839,-2.5635,-2.4778,-2.357,2.9009,2.8084,2.7315,2.73,2.7297,2.7282,2.7296,2.7299,2.6888,2.5776,2.5622,2.5768,2.6155,2.6191,2.6195,2.6195,2.6213,2.6216,2.6181,2.5394,2.4844,2.472,2.3997,2.3739,2.3982,2.3538,2.3231,2.3083,2.2979,2.2754,2.2512,2.2799,2.2889,2.2889,2.2889,2.2632,2.2184,2.2184,2.1589,2.061,2.061,2.0308,1.9798,1.9798,1.9798,1.9747,1.9512,1.9303,1.9186,1.904,1.8893,1.8851,1.8946,1.8602,1.8093,1.8093,1.7699,1.7202,1.7202,1.7202,1.5259,0.7017,0.5009,0.3048,-0.4337,-0.6018,-0.6018,-0.6018,-0.6018,-0.6018,-0.6018,-0.6062,-0.6106,-0.6062,-0.0534,0.3585,0.3313,0.9194,1.1238,0.5108,0.4174,0.3797,0.302,0.2511,0.1934,0.1319,0.1336,-0.1097,-0.6774,-0.7229,-0.758,-0.8117,-0.8172,-0.8506,-0.9098,-2.2417,-2.9071,-2.8938,-2.9007,-2.9003,-2.8887,-2.8887,-2.8929,-2.8994,-2.8785,-2.8785,-2.8887,-2.8621,-2.8554,-2.8615,-2.8594,-2.7936,-2.6994,-2.6986,-2.435,-2.0742,2.9009,2.8732,2.8246,2.7437,2.7297,2.73,2.7296,2.7306,2.718,2.6824,2.6092,2.5645,2.5775,2.5779,2.5901,2.6171,2.6194,2.5879,2.5114,2.4831,2.4704,2.4782,2.4036,2.3653,2.3739,2.3566,2.348,2.3465,2.3421,2.3201,2.2799,2.2844,2.2694,2.2314,2.2314,2.2282,2.2142,2.2328,2.2063,2.1458,2.1636,2.1202,2.0359,2.0359,2.0156,1.9798,1.9708,1.9643,1.9592,1.9239,1.9081,1.904,1.8774,1.8614,1.8441,1.856,1.8398,1.8104,1.7776,1.76,1.6928,1.4346,1.3666,1.2986,1.0386,0.9797,0.9645,0.9092,0.8639,0.833,0.833,0.4199,0.2395,0.7475,0.6004,0.5756,1.0263,1.2605,1.2882,1.0372,0.9993,0.9824,0.9372,0.9214,0.9061,0.8857,0.8413,0.7331,0.5374,0.1333,-0.1344,-0.2213,-0.6073,-0.8528,-0.939,-1.3648,-1.7992,-2.2274,-2.2694,-2.5111,-2.9185,-2.9123,-2.9138,-2.9134,-2.9016,-2.9012,-2.9044,-2.8948,-2.6078,-2.2124,-2.5861,-2.4156,-1.9986,-2.3282,-2.2768,-2.0308,2.8986,2.9003,2.8789,2.8101,2.7621,2.7286,2.7282,2.731,2.7291,2.7301,2.6319,2.5622,2.5595,2.5599,2.5701,2.5946,2.5983,2.5667,2.5041,2.5005,2.4895,2.4751,2.423,2.3852,2.3595,2.3566,2.3566,2.3595,2.3595,2.3465,2.3201,2.3201,2.3009,2.268,2.268,2.2589,2.242,2.2603,2.2374,2.1921,2.2123,2.1766,2.1175,2.1006,2.0709,2.0409,2.0067,1.9901,1.985,1.954,1.9436,1.9384,1.9133,1.8975,1.8869,1.8934,1.8774,1.856,1.8236,1.8116,1.805,1.7886,1.7556,1.7112,1.674,1.674,1.6627,1.6046,1.5468,1.505,1.505,1.1269,0.9618,1.3997,1.1262,0.9973,1.3965,1.4419,1.415,1.3547,1.3255,1.3024,1.2702,1.2444,1.2299,1.2207,1.1688,1.1352,1.1279,0.7841,0.5638,0.5145,0.1585,-0.0531,-0.1093,-0.1828,-0.6648,-1.5394,-1.582,-1.8017,-2.1873,-2.4243,-2.4187,-2.2338,-2.4716,-2.4341,-2.2063,-2.2156,-1.9687,-1.619,-1.9507,-1.8022,-1.4558,-1.8808,-1.8496,-1.6179,2.8978,2.8973,2.8985,2.9003,2.8129,2.7429,2.7437,2.7355,2.7304,2.7312,2.6403,2.5765,2.576,2.5661,2.5589,2.5582,2.5589,2.5587,2.5587,2.5608,2.532,2.4686,2.463,2.4328,2.3681,2.3625,2.3625,2.3681,2.3638,2.3653,2.3638,2.361,2.3595,2.3595,2.3595,2.3377,2.2979,2.2979,2.2649,2.2175,2.2175,2.2128,2.2035,2.1636,2.1458,2.1361,2.0623,2.0258,2.0093,1.9901,1.9798,1.9759,1.9759,1.95,1.9239,1.9239,1.8975,1.8667,1.8614,1.8614,1.8614,1.856,1.7843,1.7067,1.692,1.6965,1.7011,1.6807,1.6343,1.5989,1.5989,1.5536,1.5147,1.5147,1.5088,1.5029,1.5029,1.497,1.498,1.498,1.4456,1.3995,1.3651,1.3159,1.2694,1.243,1.2151,1.2118,1.2321,1.2225,1.2257,1.2438,1.1941,1.1745,1.1864,1.0661,0.3829,-0.844,-0.8555,-0.9195,-1.0426,-1.6017,-1.5924,-1.1684,-1.7249,-1.6455,-1.1271,-1.1476,-1.1229,-1.0766,-1.1379,-1.0925,-1.0399,-1.4208,-1.3072,-1.0199,2.8755,2.8822,2.8894,2.8977,2.8612,2.8389,2.8614,2.7859,2.7296,2.7302,2.706,2.691,2.6928,2.6129,2.5615,2.5605,2.5594,2.5589,2.5589,2.5599,2.5429,2.5029,2.4879,2.4679,2.4369,2.4385,2.4385,2.4369,2.4051,2.3925,2.3979,2.3668,2.3538,2.3595,2.3595,2.3551,2.3465,2.3465,2.3157,2.274,2.274,2.2466,2.2081,2.2002,2.1955,2.1955,2.1752,2.1431,2.0957,2.0194,1.9759,1.946,1.946,1.9408,1.9356,1.946,1.9356,1.9198,1.8987,1.8839,1.8679,1.8302,1.8139,1.7963,1.7623,1.7501,1.739,1.692,1.6694,1.6581,1.6581,1.6524,1.641,1.641,1.5894,1.5478,1.5478,1.497,1.4625,1.4625,1.4433,1.425,1.425,1.406,1.3738,1.3142,1.3007,1.2759,1.2303,1.2361,1.2414,1.2364,1.2249,1.2166,1.2182,1.1919,0.7259,-0.1655,-0.2172,-0.5009,-0.9783,-1.1406,-1.1469,-1.0414,-1.1781,-1.1847,-1.0994,-1.1245,-0.8923,-0.5584,-0.9922,-0.9386,-0.6899,-1.274,-1.3421,-1.0989,2.8682,2.8682,2.873,2.8855,2.8721,2.8662,2.8801,2.8315,2.7682,2.7099,2.7173,2.7301,2.7313,2.6277,2.5612,2.5598,2.5582,2.5615,2.5616,2.5616,2.5524,2.5355,2.5262,2.5185,2.5084,2.5084,2.491,2.4589,2.4385,2.4302,2.4328,2.412,2.3925,2.3797,2.3797,2.3653,2.348,2.348,2.3348,2.3172,2.3172,2.3038,2.274,2.2466,2.236,2.2267,2.2049,2.1827,2.1602,2.114,2.0709,2.0372,2.0372,2.0067,1.9708,1.9708,1.9565,1.9368,1.9052,1.9052,1.8999,1.8721,1.8625,1.8476,1.8018,1.7963,1.7909,1.7534,1.719,1.7011,1.7011,1.6729,1.656,1.656,1.6104,1.5758,1.5758,1.5245,1.4902,1.4902,1.4666,1.4437,1.4267,1.4198,1.4019,1.364,1.364,1.3459,1.3155,1.3155,1.3094,1.2903,1.2544,1.2428,1.2428,1.1926,0.9752,0.5796,0.5346,0.3181,-0.0466,-0.3849,-0.4059,-0.1852,-0.4914,-0.4824,-0.2537,-0.2943,-0.1506,0.0562,-0.2524,-0.2309,-0.0757,-0.4793,-0.6622,-0.6791,2.8669,2.8633,2.8615,2.8669,2.8639,2.8608,2.8612,2.8603,2.8127,2.6882,2.7006,2.7211,2.7199,2.6353,2.5824,2.5888,2.579,2.5717,2.5696,2.5675,2.5637,2.5637,2.5616,2.5616,2.5616,2.5616,2.5333,2.4751,2.471,2.4655,2.467,2.4589,2.4385,2.4109,2.4109,2.3882,2.3523,2.3523,2.3538,2.3596,2.3596,2.3553,2.3422,2.2979,2.274,2.2603,2.2217,2.2077,2.2077,2.1983,2.1746,2.1471,2.1471,2.0957,2.0295,2.0144,1.9914,1.9617,1.9303,1.9356,1.9408,1.9186,1.8987,1.8744,1.8356,1.8247,1.8205,1.7975,1.7556,1.7213,1.7213,1.6821,1.6425,1.6425,1.6208,1.5989,1.5989,1.5642,1.541,1.541,1.5059,1.4647,1.4189,1.4189,1.4189,1.4189,1.407,1.407,1.4189,1.401,1.3821,1.3563,1.2903,1.2544,1.2544,1.1802,1.1498,1.1747,1.149,1.0856,0.9857,0.4095,0.3873,0.7718,0.2217,0.2503,0.6835,0.6189,0.5758,0.538,0.4897,0.4677,0.457,0.3519,0.1172,-0.1568,2.8612,2.8612,2.8594,2.8612,2.8612,2.8612,2.8598,2.8595,2.8156,2.6871,2.676,2.6774,2.68,2.6623,2.6681,2.7052,2.6509,2.6101,2.6134,2.597,2.586,2.586,2.5675,2.5616,2.5616,2.5616,2.5578,2.5448,2.5052,2.4918,2.5013,2.4614,2.4451,2.4508,2.4508,2.4467,2.4426,2.4426,2.4219,2.394,2.394,2.3668,2.3319,2.3275,2.3216,2.3172,2.3127,2.2799,2.2374,2.1983,2.1793,2.1746,2.1746,2.165,2.1541,2.1554,2.1202,2.0696,2.0308,1.9914,1.9512,1.9093,1.8987,1.8946,1.8881,1.8302,1.77,1.7412,1.7245,1.719,1.719,1.7123,1.7078,1.7078,1.6606,1.6255,1.6255,1.5748,1.541,1.541,1.5352,1.5186,1.4834,1.4843,1.4852,1.4852,1.4428,1.4369,1.4852,1.3941,1.3563,1.3914,1.3017,1.2613,1.2744,1.2621,1.249,1.2359,1.174,1.1303,1.0856,0.9488,0.9319,1.0021,0.8274,0.7562,0.7649,0.6482,0.5506,0.4772,0.419,0.3855,0.3749,0.3591,0.2074,-0.0056,2.8656,2.8587,2.8587,2.8587,2.8587,2.8587,2.8587,2.8586,2.8389,2.7835,2.7747,2.7487,2.677,2.6681,2.6775,2.694,2.6669,2.6482,2.6476,2.6217,2.6063,2.6063,2.599,2.5934,2.5934,2.5824,2.5749,2.5749,2.547,2.5301,2.5355,2.5162,2.4974,2.4759,2.4759,2.4655,2.4426,2.4426,2.4343,2.4204,2.4204,2.412,2.3894,2.3653,2.3523,2.3436,2.3187,2.2963,2.2783,2.2601,2.2356,2.2203,2.2203,2.2016,2.1746,2.1348,2.1153,2.0845,2.0258,2.0016,1.9862,1.9617,1.946,1.9303,1.9133,1.8602,1.817,1.817,1.7952,1.7722,1.7722,1.7457,1.719,1.719,1.6853,1.656,1.6503,1.6104,1.5642,1.5352,1.5294,1.5118,1.4715,1.4715,1.4715,1.4715,1.4478,1.4478,1.4725,1.4231,1.3992,1.3992,1.3519,1.3277,1.3467,1.2858,1.2544,1.2658,1.1732,1.1178,1.0989,1.0231,0.9849,0.9779,0.9064,0.8408,0.779,0.7012,0.6303,0.5618,0.5175,0.4625,0.4024,0.358,0.2402,0.0949]}]]